[[{"header":{"parameterUnit":"m.s-1","parameterCategory":1,"la1":30.6,"la2":28.766,"lo1":-90.7593,"lo2":-88.6598,"dy":0.0162,"dx":0.0183,"nx":116,"ny":114,"refTime":"2023-04-07T18:00:00:Z","depth":0,"parameterNumber":2,"parameterNumberName":"U-component_of_WINDS"},"data":[0.0,0.0,0.0,0.0,0.0,0.0,0.0,0.0,0.0,0.0,0.0,0.0,0.0,0.0,0.0,0.0,0.0,0.0,0.0,0.0,0.0,0.0,0.0,0.0,0.0,0.0,0.0,0.0,0.0,0.0,0.0,0.0,0.0,0.0,0.0,0.0,0.0,0.0,0.0,0.0,0.0,0.0,0.0,0.0,0.0,0.0,0.0,0.0,0.0,0.0,0.0,0.0,0.0,0.0,0.0,0.0,0.0,0.0,0.0,0.0,0.0,0.0,0.0,0.0,0.0,0.0,0.0,0.0,0.0,0.0,0.0,0.0,0.0,0.0,0.0,0.0,0.0,0.0,0.0,0.0,0.0,0.0,0.0,0.0,0.0,0.0,0.0,0.0,0.0,0.0,0.0,0.0,0.0,0.0,0.0,0.0,0.0,0.0,0.0,0.0,0.0,0.0,0.0,0.0,0.0,0.0,0.0,0.0,0.0,0.0,0.0,0.0,0.0,0.0,0.0,0.0,0.0,0.0,0.0,0.0,0.0,0.0,0.0,0.0,0.0,0.0,0.0,0.0,0.0,0.0,0.0,0.0,0.0,0.0,0.0,0.0,0.0,0.0,0.0,0.0,0.0,0.0,0.0,0.0,0.0,0.0,0.0,0.0,0.0,0.0,0.0,0.0,0.0,0.0,0.0,0.0,0.0,0.0,0.0,0.0,0.0,0.0,0.0,0.0,0.0,0.0,0.0,0.0,0.0,0.0,0.0,0.0,0.0,0.0,0.0,0.0,0.0,0.0,0.0,0.0,0.0,0.0,0.0,0.0,0.0,0.0,0.0,0.0,0.0,0.0,0.0,0.0,0.0,0.0,0.0,0.0,0.0,0.0,0.0,0.0,0.0,0.0,0.0,0.0,0.0,0.0,0.0,0.0,0.0,0.0,0.0,0.0,0.0,0.0,0.0,0.0,0.0,0.0,0.0,0.0,0.0,0.0,0.0,0.0,0.0,0.0,0.0,0.0,0.0,0.0,0.0,0.0,0.0,0.0,0.0,0.0,0.0,0.0,0.0,0.0,0.0,0.0,0.0,0.0,0.0,0.0,0.0,0.0,0.0,0.0,0.0,0.0,0.0,0.0,0.0,0.0,0.0,0.0,0.0,0.0,0.0,0.0,0.0,0.0,0.0,0.0,0.0,0.0,0.0,0.0,0.0,0.0,0.0,0.0,0.0,0.0,0.0,0.0,0.0,0.0,0.0,0.0,0.0,0.0,0.0,0.0,0.0,0.0,0.0,0.0,0.0,0.0,0.0,0.0,0.0,0.0,0.0,0.0,0.0,0.0,0.0,0.0,0.0,0.0,0.0,0.0,0.0,0.0,0.0,0.0,0.0,0.0,0.0,0.0,0.0,0.0,0.0,0.0,0.0,0.0,0.0,0.0,0.0,0.0,0.0,0.0,0.0,0.0,0.0,0.0,0.0,0.0,0.0,0.0,0.0,0.0,0.0,0.0,0.0,0.0,0.0,0.0,0.0,0.0,0.0,0.0,0.0,0.0,0.0,0.0,0.0,0.0,0.0,0.0,0.0,0.0,0.0,0.0,0.0,0.0,0.0,0.0,0.0,0.0,0.0,0.0,0.0,0.0,0.0,0.0,0.0,0.0,0.0,0.0,0.0,0.0,0.0,0.0,0.0,0.0,0.0,0.0,0.0,0.0,0.0,0.0,0.0,0.0,0.0,0.0,0.0,0.0,0.0,0.0,0.0,0.0,0.0,0.0,0.0,0.0,0.0,0.0,0.0,0.0,0.0,0.0,0.0,0.0,0.0,0.0,0.0,0.0,0.0,0.0,0.0,0.0,0.0,0.0,0.0,0.0,0.0,0.0,0.0,0.0,0.0,0.0,0.0,0.0,0.0,0.0,0.0,0.0,0.0,0.0,0.0,0.0,0.0,0.0,0.0,0.0,0.0,0.0,0.0,0.0,0.0,0.0,0.0,0.0,0.0,0.0,0.0,0.0,0.0,0.0,0.0,0.0,0.0,0.0,0.0,0.0,0.0,0.0,0.0,0.0,0.0,0.0,0.0,0.0,0.0,0.0,0.0,0.0,0.0,0.0,0.0,0.0,0.0,0.0,0.0,0.0,0.0,0.0,0.0,0.0,0.0,0.0,0.0,0.0,0.0,0.0,0.0,0.0,0.0,0.0,0.0,0.0,0.0,0.0,0.0,0.0,0.0,0.0,0.0,0.0,0.0,0.0,0.0,0.0,0.0,0.0,0.0,0.0,0.0,0.0,0.0,0.0,0.0,0.0,0.0,0.0,0.0,0.0,0.0,0.0,0.0,0.0,0.0,0.0,0.0,0.0,0.0,0.0,0.0,0.0,0.0,0.0,0.0,0.0,0.0,0.0,0.0,0.0,0.0,0.0,0.0,0.0,0.0,0.0,0.0,0.0,0.0,0.0,0.0,0.0,0.0,0.0,0.0,0.0,0.0,0.0,0.0,0.0,0.0,0.0,0.0,0.0,0.0,0.0,0.0,0.0,0.0,0.0,0.0,0.0,0.0,0.0,0.0,0.0,0.0,0.0,0.0,0.0,0.0,0.0,0.0,0.0,0.0,0.0,0.0,0.0,0.0,0.0,0.0,0.0,0.0,0.0,0.0,0.0,0.0,0.0,0.0,0.0,0.0,0.0,0.0,0.0,0.0,0.0,0.0,0.0,0.0,0.0,0.0,0.0,0.0,0.0,0.0,0.0,0.0,0.0,0.0,0.0,0.0,0.0,0.0,0.0,0.0,0.0,0.0,0.0,0.0,0.0,0.0,0.0,0.0,0.0,0.0,0.0,0.0,0.0,0.0,0.0,0.0,0.0,0.0,0.0,0.0,0.0,0.0,0.0,0.0,0.0,0.0,0.0,0.0,0.0,0.0,0.0,0.0,0.0,0.0,0.0,0.0,0.0,0.0,0.0,0.0,0.0,0.0,0.0,0.0,0.0,0.0,0.0,0.0,0.0,0.0,0.0,0.0,0.0,0.0,0.0,0.0,0.0,0.0,0.0,0.0,0.0,0.0,0.0,0.0,0.0,0.0,0.0,0.0,0.0,0.0,0.0,0.0,0.0,0.0,0.0,0.0,0.0,0.0,0.0,0.0,0.0,0.0,0.0,0.0,0.0,0.0,0.0,0.0,0.0,0.0,0.0,0.0,0.0,0.0,0.0,0.0,0.0,0.0,0.0,0.0,0.0,0.0,0.0,0.0,0.0,0.0,0.0,0.0,0.0,0.0,0.0,0.0,0.0,0.0,0.0,0.0,0.0,0.0,0.0,0.0,0.0,0.0,0.0,0.0,0.0,0.0,0.0,0.0,0.0,0.0,0.0,0.0,0.0,0.0,0.0,0.0,0.0,0.0,0.0,0.0,0.0,0.0,0.0,0.0,0.0,0.0,0.0,0.0,0.0,0.0,0.0,0.0,0.0,0.0,0.0,0.0,0.0,0.0,0.0,0.0,0.0,0.0,0.0,0.0,0.0,0.0,0.0,0.0,0.0,0.0,0.0,0.0,0.0,0.0,0.0,0.0,0.0,0.0,0.0,0.0,0.0,0.0,0.0,0.0,0.0,0.0,0.0,0.0,0.0,0.0,0.0,0.0,0.0,0.0,0.0,0.0,0.0,0.0,0.0,0.0,0.0,0.0,0.0,0.0,0.0,0.0,0.0,0.0,0.0,0.0,0.0,0.0,0.0,0.0,0.0,0.0,0.0,0.0,0.0,0.0,0.0,0.0,0.0,0.0,0.0,0.0,0.0,0.0,0.0,0.0,0.0,0.0,0.0,0.0,0.0,0.0,0.0,0.0,0.0,0.0,0.0,0.0,0.0,0.0,0.0,0.0,0.0,0.0,0.0,0.0,0.0,0.0,0.0,0.0,0.0,0.0,0.0,0.0,0.0,0.0,0.0,0.0,0.0,0.0,0.0,0.0,0.0,0.0,0.0,0.0,0.0,0.0,0.0,0.0,0.0,0.0,0.0,0.0,0.0,0.0,0.0,0.0,0.0,0.0,0.0,0.0,0.0,0.0,0.0,0.0,0.0,0.0,0.0,0.0,0.0,0.0,0.0,0.0,0.0,0.0,0.0,0.0,0.0,0.0,0.0,0.0,0.0,0.0,0.0,0.0,0.0,0.0,0.0,0.0,0.0,0.0,0.0,0.0,0.0,0.0,0.0,0.0,0.0,0.0,0.0,0.0,0.0,0.0,0.0,0.0,0.0,0.0,0.0,0.0,0.0,0.0,0.0,0.0,0.0,0.0,0.0,0.0,0.0,0.0,0.0,0.0,0.0,0.0,0.0,0.0,0.0,0.0,0.0,0.0,0.0,0.0,0.0,0.0,0.0,0.0,0.0,0.0,0.0,0.0,0.0,0.0,0.0,0.0,0.0,0.0,0.0,0.0,0.0,0.0,0.0,0.0,0.0,0.0,0.0,0.0,0.0,0.0,0.0,0.0,0.0,0.0,0.0,0.0,0.0,0.0,0.0,0.0,0.0,0.0,0.0,0.0,0.0,0.0,0.0,0.0,0.0,0.0,0.0,0.0,0.0,0.0,0.0,0.0,0.0,0.0,0.0,0.0,0.0,0.0,0.0,0.0,0.0,0.0,0.0,0.0,0.0,0.0,0.0,0.0,0.0,0.0,0.0,0.0,0.0,0.0,0.0,0.0,0.0,0.0,0.0,0.0,0.0,0.0,0.0,0.0,0.0,0.0,0.0,0.0,0.0,0.0,0.0,0.0,0.0,0.0,0.0,0.0,0.0,0.0,0.0,0.0,0.0,0.0,0.0,0.0,0.0,0.0,0.0,0.0,0.0,0.0,0.0,0.0,0.0,0.0,0.0,0.0,0.0,0.0,0.0,0.0,0.0,0.0,0.0,0.0,0.0,0.0,0.0,0.0,0.0,0.0,0.0,0.0,0.0,0.0,0.0,0.0,0.0,0.0,0.0,0.0,0.0,0.0,0.0,0.0,0.0,0.0,0.0,0.0,0.0,0.0,0.0,0.0,0.0,0.0,0.0,0.0,0.0,0.0,0.0,0.0,0.0,0.0,0.0,0.0,0.0,0.0,0.0,0.0,0.0,0.0,0.0,0.0,0.0,0.0,0.0,0.0,0.0,0.0,0.0,0.0,0.0,0.0,0.0,0.0,0.0,0.0,0.0,0.0,0.0,0.0,0.0,0.0,0.0,0.0,0.0,0.0,0.0,0.0,0.0,0.0,0.0,0.0,0.0,0.0,0.0,0.0,0.0,0.0,0.0,0.0,0.0,0.0,0.0,0.0,0.0,0.0,0.0,0.0,0.0,0.0,0.0,0.0,0.0,0.0,0.0,0.0,0.0,0.0,0.0,0.0,0.0,0.0,0.0,0.0,0.0,0.0,0.0,0.0,0.0,0.0,0.0,0.0,0.0,0.0,0.0,0.0,0.0,0.0,0.0,0.0,0.0,0.0,0.0,0.0,0.0,0.0,0.0,0.0,0.0,0.0,0.0,0.0,0.0,0.0,0.0,0.0,0.0,0.0,0.0,0.0,0.0,0.0,0.0,0.0,0.0,0.0,0.0,0.0,0.0,0.0,0.0,0.0,0.0,0.0,0.0,0.0,0.0,0.0,0.0,0.0,0.0,0.0,0.0,0.0,0.0,0.0,0.0,0.0,0.0,0.0,0.0,0.0,0.0,0.0,0.0,0.0,0.0,0.0,0.0,0.0,0.0,0.0,0.0,0.0,0.0,0.0,0.0,0.0,0.0,0.0,0.0,0.0,0.0,0.0,0.0,0.0,0.0,0.0,0.0,0.0,0.0,0.0,0.0,0.0,0.0,0.0,0.0,0.0,0.0,0.0,0.0,0.0,0.0,0.0,0.0,0.0,0.0,0.0,0.0,0.0,0.0,0.0,0.0,0.0,0.0,0.0,0.0,0.0,0.0,0.0,0.0,0.0,0.0,0.0,0.0,0.0,0.0,0.0,0.0,0.0,0.0,0.0,0.0,0.0,0.0,0.0,0.0,0.0,0.0,0.0,0.0,0.0,0.0,0.0,0.0,0.0,0.0,0.0,0.0,0.0,0.0,0.0,0.0,0.0,0.0,0.0,0.0,1.8763,0.0,0.0,0.0,0.0,0.0,0.0,0.0,0.0,0.0,0.0,0.0,0.0,0.0,0.0,0.0,0.0,0.0,0.0,0.0,0.0,0.0,0.0,0.0,0.0,0.0,0.0,0.0,0.0,0.0,0.0,0.0,0.0,0.0,0.0,0.0,0.0,0.0,0.0,1.4243,1.4711,1.5174,1.5628,1.5628,1.5716,1.5891,0.0,0.0,0.0,0.0,0.0,0.0,0.0,0.0,0.0,0.0,0.0,0.0,0.0,0.0,0.0,0.0,0.0,0.0,0.0,0.0,0.0,0.0,0.0,0.0,0.0,0.0,0.0,0.0,0.0,0.0,0.0,0.0,0.0,0.0,0.0,0.0,0.0,0.0,0.0,0.0,0.0,0.0,0.0,0.0,0.0,0.0,0.0,0.0,0.0,0.0,0.0,0.0,0.0,0.0,0.0,0.0,0.0,0.0,0.0,0.0,0.0,0.0,0.0,0.0,0.0,0.0,0.0,0.0,0.0,0.0,0.0,1.9453,0.0,0.0,0.0,0.0,0.0,0.0,0.0,0.0,0.0,0.0,0.0,0.0,0.0,0.0,0.0,0.0,0.0,0.0,0.0,0.0,0.0,0.0,0.0,1.3598,1.3609,1.3667,1.3667,1.3667,0.0,0.0,0.0,0.0,0.0,0.0,1.4477,1.455,1.4594,1.4653,1.5373,1.6089,1.6821,1.6865,1.6953,1.7056,1.666,0.0,0.0,0.0,0.0,0.0,0.0,0.0,0.0,0.0,0.0,0.0,0.0,0.0,0.0,0.0,0.0,0.0,0.0,0.0,0.0,0.0,0.0,0.0,0.0,0.0,0.0,0.0,0.0,0.0,0.0,0.0,0.0,0.0,0.0,0.0,0.0,0.0,0.0,0.0,0.0,0.0,0.0,0.0,0.0,0.0,0.0,0.0,0.0,0.0,0.0,0.0,0.0,0.0,0.0,0.0,0.0,0.0,0.0,0.0,0.0,0.0,0.0,0.0,2.3094,2.3634,2.3905,2.4249,2.4579,2.4716,2.306,2.1437,2.0041,0.0,0.0,0.0,0.0,0.0,0.0,0.0,0.0,0.0,0.0,0.0,0.0,0.0,0.0,0.0,0.0,0.0,0.0,0.0,0.0,0.0,0.0,1.3935,1.4052,1.433,1.4379,1.4379,1.4379,0.0,0.0,0.0,0.0,0.0,1.4511,1.4735,1.4993,1.5285,1.6469,1.7536,1.8506,1.8785,1.9199,1.9611,1.7686,1.6997,1.7244,0.0,0.0,0.0,0.0,0.0,0.0,0.0,0.0,0.0,0.0,0.0,0.0,0.0,0.0,0.0,0.0,0.0,0.0,0.0,0.0,0.0,0.0,0.0,0.0,0.0,0.0,0.0,0.0,0.0,0.0,0.0,0.0,0.0,0.0,0.0,0.0,0.0,0.0,0.0,0.0,0.0,1.8668,1.8414,0.0,0.0,0.0,0.0,0.0,0.0,0.0,0.0,0.0,0.0,0.0,0.0,0.0,2.2311,2.2878,2.3719,2.4329,2.466,2.5504,2.6079,2.6333,2.6667,2.6961,2.7241,2.7269,0.0,2.2723,2.23,0.0,0.0,0.0,0.0,0.0,0.0,0.0,0.0,0.0,0.0,0.0,0.0,0.0,0.0,0.0,0.0,0.0,0.0,0.0,0.0,0.0,1.42,1.4515,1.4542,1.5177,1.5327,1.4765,1.5072,0.0,0.0,0.0,1.4803,1.4999,1.5155,1.5756,1.6817,1.8086,1.9096,1.9886,2.0208,2.0516,2.0707,1.955,1.8701,1.813,1.793,0.0,0.0,0.0,0.0,0.0,0.0,0.0,0.0,0.0,0.0,0.0,0.0,0.0,0.0,0.0,0.0,0.0,0.0,0.0,0.0,0.0,0.0,0.0,0.0,0.0,0.0,0.0,0.0,0.0,0.0,0.0,0.0,0.0,0.0,0.0,0.0,0.0,0.0,0.0,1.9689,1.9864,1.8863,1.9493,1.9614,0.0,0.0,0.0,0.0,0.0,0.0,0.0,0.0,0.0,2.3025,2.3781,2.4479,2.5239,2.5999,2.6507,2.6854,2.7535,2.8123,2.8564,2.8698,2.9005,2.9432,2.945,2.8521,2.6891,2.5084,2.3531,2.2205,0.0,0.0,0.0,0.0,2.1483,2.2302,0.0,0.0,0.0,0.0,0.0,0.0,0.0,0.0,0.0,0.0,0.0,0.0,1.4077,1.4901,1.5413,1.5425,1.6242,1.6381,1.5508,1.5725,1.5688,1.5211,1.5078,1.5242,1.5636,1.6031,1.6964,1.8473,1.9704,2.0662,2.1467,2.1701,2.1906,2.2052,2.1642,2.0647,1.9242,1.8672,1.8634,1.8918,0.0,0.0,0.0,0.0,0.0,0.0,0.0,0.0,0.0,0.0,0.0,0.0,0.0,0.0,0.0,0.0,0.0,0.0,0.0,0.0,0.0,0.0,0.0,0.0,0.0,0.0,0.0,0.0,0.0,0.0,0.0,0.0,0.0,0.0,0.0,0.0,0.0,2.0673,2.107,1.9456,2.0658,2.0956,0.0,0.0,0.0,0.0,0.0,0.0,2.2773,2.3512,2.4411,2.5491,2.6106,2.6841,2.7722,2.831,2.8751,2.9088,2.9566,3.0087,3.0595,3.0595,3.0835,3.1223,3.1055,3.0755,3.0242,2.7685,2.5832,2.4557,2.3624,2.3445,2.3717,2.3246,2.3696,2.4585,0.0,0.0,0.0,0.0,0.0,0.0,0.0,0.0,0.0,0.0,0.0,1.3954,1.5354,1.6286,1.7027,1.7594,1.7682,1.7485,1.6926,1.6271,1.5908,1.5948,1.5582,1.5665,1.6323,1.7545,1.8793,2.0081,2.1115,2.2228,2.3457,2.3471,2.3808,2.4412,2.3735,2.2403,2.0517,1.9286,1.9048,1.943,1.895,0.0,0.0,0.0,0.0,0.0,0.0,0.0,0.0,0.0,0.0,0.0,0.0,0.0,0.0,0.0,0.0,0.0,0.0,0.0,0.0,0.0,0.0,0.0,0.0,0.0,0.0,0.0,0.0,0.0,0.0,0.0,0.0,0.0,0.0,0.0,0.0,0.0,0.0,2.0419,2.2159,0.0,0.0,0.0,0.0,2.2258,2.3682,2.4652,2.4927,2.6053,2.7107,2.7965,2.8551,2.9285,3.0226,3.0755,3.1196,3.1537,3.1797,3.2118,3.246,3.246,3.2474,3.25,3.2487,3.2313,3.181,2.9415,2.8081,2.7387,2.6227,2.6133,2.648,2.5596,2.5949,2.6928,0.0,0.0,0.0,0.0,0.0,0.0,0.0,0.0,1.2727,1.3067,1.3794,1.474,1.5849,1.7457,1.8647,1.9107,1.9648,1.9669,1.8847,1.8007,1.726,1.6664,1.6131,1.6364,1.7412,1.8814,2.0199,2.1553,2.2912,2.3984,2.4847,2.5052,2.5271,2.5476,2.4851,2.4192,2.3415,2.1467,2.0597,2.0377,1.9585,1.9435,0.0,0.0,0.0,0.0,0.0,0.0,0.0,0.0,0.0,0.0,0.0,0.0,0.0,0.0,0.0,0.0,0.0,0.0,0.0,0.0,0.0,0.0,0.0,0.0,0.0,0.0,0.0,0.0,0.0,0.0,0.0,0.0,0.0,0.0,0.0,0.0,0.0,2.2666,2.4487,0.0,2.355,2.4098,2.4588,2.4713,2.6094,2.7067,2.7362,2.8303,2.9243,3.01,3.0702,3.1249,3.1805,3.2345,3.2599,3.2519,3.2826,3.312,3.345,3.32,3.3213,3.34,3.3187,3.304,3.2866,3.1837,3.0621,2.9343,2.8123,2.7896,2.8161,2.7636,2.8191,2.9203,0.0,0.0,0.0,0.0,0.0,0.0,0.0,0.0,1.255,1.3012,1.411,1.5297,1.6546,1.8426,1.9854,2.0416,2.0903,2.07,1.9583,1.8597,1.7654,1.6772,1.6942,1.7626,1.8878,2.051,2.2021,2.3362,2.4634,2.5549,2.6193,2.6296,2.6398,2.6486,2.5979,2.5686,2.5481,2.3837,2.2497,2.1313,2.0374,2.0082,2.0213,0.0,0.0,0.0,0.0,0.0,0.0,0.0,0.0,0.0,0.0,0.0,0.0,0.0,0.0,0.0,0.0,0.0,0.0,0.0,0.0,0.0,0.0,0.0,0.0,0.0,0.0,0.0,0.0,0.0,0.0,0.0,0.0,0.0,0.0,0.0,2.5174,2.462,2.6384,2.7118,2.5803,2.642,2.696,2.7162,2.8347,2.9222,2.9606,3.0381,3.1156,3.1944,3.2545,3.2946,3.3196,3.3627,3.3774,3.3638,3.3681,3.3948,3.4322,3.4015,3.4042,3.4322,3.4108,3.3961,3.3841,3.3547,3.2692,3.1483,3.0247,2.9967,3.0181,2.99,3.0341,3.1122,0.0,0.0,0.0,0.0,0.0,0.0,0.0,1.212,1.2287,1.3107,1.4204,1.5645,1.7454,1.9223,2.063,2.155,2.1318,2.0498,1.9043,1.7972,1.7049,1.6293,1.7972,1.9502,2.0737,2.2667,2.4276,2.5544,2.6222,2.6866,2.7518,2.7174,2.7188,2.7518,2.7159,2.6837,2.653,2.6193,2.4598,2.2258,2.1401,2.1064,2.1017,0.0,0.0,0.0,0.0,0.0,0.0,0.0,0.0,0.0,0.0,0.0,0.0,0.0,0.0,0.0,0.0,0.0,0.0,0.0,0.0,0.0,0.0,0.0,0.0,0.0,0.0,0.0,0.0,0.0,0.0,0.0,0.0,0.0,2.2124,2.4715,2.6516,2.6175,2.7757,2.8617,2.7989,2.8428,2.8978,2.9539,3.0394,3.1142,3.1751,3.234,3.2915,3.344,3.4042,3.4349,3.4336,3.4643,3.4842,3.4829,3.4509,3.467,3.5217,3.4989,3.4963,3.5217,3.5217,3.5057,3.4724,3.4431,3.4189,3.3828,3.2612,3.2318,3.2581,3.2251,3.2332,3.2621,0.0,0.0,0.0,0.0,0.0,0.0,0.0,1.2079,1.237,1.3158,1.4856,1.6663,1.8413,2.0389,2.1863,2.2562,2.1956,2.1096,2.0077,1.8436,1.7551,1.7587,1.8884,2.053,2.2476,2.393,2.532,2.6588,2.7013,2.7422,2.778,2.7692,2.7692,2.7765,2.7481,2.7422,2.7473,2.6954,2.6179,2.514,2.3291,2.2112,2.1488,0.0,0.0,0.0,0.0,0.0,0.0,0.0,0.0,0.0,0.0,0.0,0.0,0.0,0.0,0.0,0.0,0.0,0.0,0.0,0.0,0.0,0.0,0.0,0.0,0.0,0.0,0.0,0.0,0.0,0.0,0.0,0.0,2.4111,2.4507,2.638,2.8044,2.8749,3.0066,3.0818,3.0657,3.1356,3.1805,3.1751,3.2581,3.3106,3.3267,3.3892,3.428,3.4389,3.4963,3.507,3.4643,3.5351,3.5498,3.5084,3.5431,3.5672,3.5832,3.5805,3.5752,3.5832,3.5832,3.5778,3.5685,3.5391,3.5217,3.5017,3.3601,3.3106,3.316,3.308,3.3106,3.32,0.0,0.0,0.0,0.0,0.0,0.0,0.0,1.1992,1.229,1.3174,1.5101,1.7006,1.8618,2.0424,2.1709,2.2158,2.1562,2.0603,1.9362,1.8117,1.7954,1.9195,2.0565,2.2264,2.4318,2.5626,2.6705,2.7598,2.8052,2.8373,2.8511,2.8511,2.8584,2.8739,2.8417,2.83,2.8277,2.7949,2.7525,2.6947,2.552,2.4203,2.3082,2.2568,2.2717,2.3269,2.372,2.4711,2.5689,2.5126,0.0,0.0,0.0,0.0,0.0,0.0,0.0,0.0,0.0,0.0,0.0,0.0,0.0,0.0,0.0,0.0,0.0,0.0,0.0,0.0,0.0,0.0,0.0,0.0,2.4723,2.6279,2.7392,2.8322,2.9411,3.0662,3.165,3.2318,3.2621,3.3173,3.3521,3.348,3.4068,3.4429,3.4429,3.487,3.5124,3.5124,3.5698,3.5778,3.5364,3.5939,3.6086,3.5752,3.5965,3.6259,3.662,3.65,3.658,0.0,3.6794,3.6727,3.662,3.616,3.5905,0.0,0.0,0.0,0.0,0.0,3.3724,3.358,0.0,0.0,0.0,0.0,0.0,0.0,0.0,1.1885,1.2183,1.3185,1.5136,1.6923,1.8289,1.9746,2.0748,2.1029,2.047,1.944,1.7843,1.7526,1.845,2.0842,2.2493,2.4223,2.6043,2.7304,2.8145,2.8511,2.9105,2.9437,2.9467,2.9511,2.9657,2.9892,2.9672,2.9339,2.9003,2.9032,2.8695,2.8043,2.7803,2.6741,2.5197,2.4411,2.4462,2.5014,2.5528,2.5697,2.5789,2.6461,0.0,0.0,0.0,0.0,0.0,0.0,0.0,0.0,0.0,0.0,0.0,0.0,0.0,0.0,0.0,0.0,0.0,0.0,0.0,0.0,0.0,0.0,0.0,0.0,2.6961,2.8604,3.036,3.0474,3.0875,3.2104,3.2799,3.3387,3.3935,3.4309,3.4616,3.4778,3.5124,3.5311,3.5338,0.0,0.0,0.0,0.0,3.6433,3.6179,3.6473,3.658,3.654,3.6366,3.6687,3.7422,3.7099,3.7216,3.7809,3.7753,3.7606,3.7408,3.686,3.6492,3.6139,3.551,3.5271,3.5245,3.4702,3.4333,3.3954,0.0,0.0,0.0,0.0,0.0,0.0,0.0,1.1818,1.2257,1.3315,1.5222,1.6899,1.7968,1.941,2.0441,2.0766,1.9585,1.8595,1.8064,1.8418,1.9607,2.175,2.3395,2.4982,2.6594,2.7708,2.8584,2.9193,2.935,2.9555,2.9818,3.0082,3.0097,2.9921,3.0334,3.0217,2.9731,2.9994,2.9731,2.909,2.9032,2.7928,2.6164,2.5756,2.5933,2.6346,2.5882,2.7535,2.9572,2.7228,2.7416,2.8187,2.5845,2.4586,0.0,0.0,0.0,0.0,0.0,0.0,0.0,0.0,0.0,0.0,0.0,0.0,0.0,0.0,0.0,0.0,0.0,0.0,0.0,2.6357,2.8419,3.0346,3.1583,3.2746,3.3387,3.3187,3.3908,3.4521,3.4628,3.5284,3.5658,3.5418,3.5738,3.6006,3.6246,3.6299,0.0,3.7021,3.6901,3.6779,3.6754,3.7048,3.7088,3.6805,0.0,0.0,3.7686,3.7167,3.7207,3.7753,3.7312,3.7342,3.7686,3.7616,3.7519,3.7343,3.6003,3.5666,3.5899,3.5791,3.5428,3.488,0.0,0.0,0.0,0.0,0.0,0.0,0.0,1.1809,1.2192,1.2991,1.4684,1.6126,1.6858,1.7909,1.854,1.8564,1.7748,1.7613,1.8497,1.9378,2.0921,2.3372,2.4646,2.5968,2.7427,2.8195,2.8834,2.9297,2.9698,3.0068,3.0349,3.039,3.0478,3.0583,3.0583,3.0448,3.017,3.0451,3.0217,2.9672,2.9833,2.9232,2.811,2.7466,2.7377,2.7615,2.7675,2.8581,2.9563,2.8543,2.8531,2.859,2.6504,2.5539,2.4953,0.0,0.0,0.0,0.0,0.0,0.0,0.0,0.0,0.0,0.0,0.0,0.0,0.0,0.0,2.3393,0.0,0.0,2.7257,2.8564,3.0346,3.1965,3.3253,3.4202,3.4589,3.4135,3.487,3.5471,3.5471,3.5952,3.6233,3.6072,3.6473,3.6794,3.6941,3.7088,3.7301,3.7595,3.7448,3.7382,3.7382,3.7529,3.7529,3.7382,3.7676,3.7889,3.8036,3.7751,3.7857,3.8219,3.7932,3.8003,3.8219,3.7932,3.7668,3.7426,3.6428,3.6292,3.6699,3.6223,3.5718,3.5103,0.0,0.0,0.0,0.0,0.0,0.0,0.0,1.1779,1.2023,1.2626,1.4012,1.514,1.5627,1.6252,1.6497,1.6185,1.6304,1.7182,1.8946,2.0296,2.2178,2.4734,2.5722,2.6801,2.8081,2.8548,2.9028,2.9442,3.0095,3.058,3.0878,3.0715,3.0947,3.1388,3.0976,3.0727,3.0683,3.0832,3.0612,3.0199,3.0405,3.0331,2.9994,2.912,2.8686,2.8694,2.9306,2.9022,2.8483,2.9254,2.9059,2.8261,2.6803,2.6422,2.6008,2.3518,2.3111,0.0,0.0,0.0,0.0,0.0,0.0,0.0,0.0,0.0,2.2576,2.2726,2.4078,2.5401,2.5984,2.7522,2.9179,3.0715,3.2139,3.345,3.4589,3.5164,3.5364,3.519,3.5725,3.6153,3.6153,3.6473,3.6687,3.6687,3.7128,3.7478,3.7585,3.7676,3.7809,3.7996,3.7889,3.7849,3.7889,3.7889,3.7889,3.7889,3.7956,3.8103,3.8357,3.81,3.8189,3.8499,3.8499,3.8588,3.866,3.8208,3.7831,3.7493,3.6788,3.6863,3.7353,3.6286,3.5578,3.5017,0.0,0.0,0.0,0.0,0.0,0.0,0.0,0.0,1.1816,1.2601,1.3523,1.4299,1.4784,1.5382,1.5616,1.527,1.6857,1.8303,1.93,2.1148,2.3052,2.4978,2.6006,2.7022,2.8081,2.8548,2.9289,3.0249,3.0375,3.0698,3.1256,3.152,3.1666,3.1754,3.1973,3.1915,3.1622,3.1359,3.1212,3.1124,3.0876,3.0744,3.0671,3.0331,2.9818,2.9262,2.9056,2.8845,2.8583,2.7996,2.7981,2.8025,2.6853,2.6283,2.5775,2.4285,2.3304,2.2497,2.1391,2.0735,2.0544,2.1314,2.153,2.1961,0.0,0.0,2.4625,2.5389,2.6318,2.7283,2.8096,2.9486,3.0742,3.1497,3.3227,3.4511,3.4684,3.5685,3.634,3.6313,3.6393,3.6473,3.6473,3.6941,3.7275,3.7275,3.7342,3.7595,3.8143,3.7702,3.7782,3.8553,3.8103,3.7929,3.8223,3.8223,3.8223,3.8281,3.8504,3.8593,3.862,3.749,3.7329,3.7917,3.7917,3.8208,3.866,3.866,3.8588,3.8432,3.7199,3.7161,3.7598,3.6198,3.5258,3.4694,0.0,0.0,0.0,0.0,0.0,0.0,0.0,0.0,0.0,1.2317,1.2893,1.3392,1.3724,1.3982,1.4145,1.4166,1.5694,1.7362,1.9078,2.1187,2.322,2.4997,2.6005,2.6755,2.7335,2.803,2.8807,2.9651,3.0144,3.0727,3.1315,3.1256,3.1432,3.1783,3.1549,3.1563,3.1783,3.1446,3.1315,3.1315,3.1373,3.1168,3.0803,3.0671,2.9881,2.8754,2.8256,2.7814,0.0,2.6827,2.6763,2.6903,2.6805,2.6204,2.5293,2.4349,2.3235,2.2128,2.1306,2.1296,2.1679,0.0,2.301,2.3977,2.5289,2.5913,2.6422,2.7135,2.8379,2.9486,3.0034,3.1476,3.2786,0.0,3.4482,3.5325,3.5725,3.6193,3.6433,3.6273,3.654,3.6834,3.7008,3.7235,3.7448,3.7635,3.7782,3.8076,3.8504,3.8464,3.8584,3.8913,3.866,3.8571,3.8544,3.8544,3.8611,3.8798,3.8905,3.8751,3.8387,3.7834,3.7476,3.7264,3.7626,3.7917,3.8208,3.853,3.8499,3.8079,3.7134,3.6771,3.6617,3.5986,3.5518,3.5102,0.0,0.0,0.0,0.0,0.0,0.0,0.0,0.0,0.0,0.0,1.2355,1.2605,1.2954,1.2988,1.3099,1.3363,1.4621,1.6317,1.8526,2.0721,2.2817,2.4756,2.5678,2.6399,2.6974,2.7658,2.8366,2.9116,2.9819,3.0426,3.0919,3.0688,3.1004,3.1728,3.1045,3.1202,3.19,3.149,3.1315,3.1329,3.1563,3.1212,3.0539,3.0364,2.9295,2.7809,2.7407,2.6524,2.5528,2.5226,2.5061,2.5056,2.5743,2.5408,2.4705,2.4028,2.2874,2.176,2.1339,0.0,0.0,2.3445,2.4605,2.5862,2.6932,2.7634,2.8232,2.8901,3.0253,3.1396,3.1723,3.3093,3.4295,3.4855,3.5444,3.6019,3.6433,3.65,3.6366,3.5992,3.6246,3.6592,3.7088,3.7342,3.7635,3.7929,3.8143,3.8397,3.866,3.8838,3.8886,3.8993,3.8849,3.8653,3.8441,3.8346,3.8361,3.8571,3.8872,3.8578,3.7911,3.778,3.7316,3.679,3.7184,3.7496,3.7659,3.8047,3.7917,3.7484,3.6784,3.6258,3.5895,3.5732,3.5501,3.5205,0.0,0.0,0.0,0.0,0.0,0.0,0.0,0.0,0.0,0.0,0.0,0.0,0.0,1.2711,1.2819,1.3087,1.4172,1.5695,1.7706,1.9676,2.1793,2.4142,2.5077,2.614,2.7469,2.777,2.8303,2.9116,2.9411,2.9719,3.0028,3.0028,3.058,3.1597,3.0909,3.1238,3.2222,3.1578,3.1315,3.1315,3.1329,3.0759,2.9862,2.9232,2.7949,2.6567,2.659,2.5184,2.3242,2.2986,2.2659,2.2441,2.3107,2.3699,2.4003,2.3337,2.2221,2.129,2.1532,0.0,2.3281,2.4983,2.6106,2.7148,2.8575,2.9406,3.0087,3.0955,3.1864,3.2728,3.3217,3.4122,3.483,3.5137,3.5912,3.6473,3.65,3.65,3.6286,3.5712,3.5404,3.5591,0.0,3.7301,3.7929,3.8281,3.8321,3.8397,3.866,3.8437,3.8437,3.8718,3.8137,3.7846,3.7846,3.7416,3.7249,3.7262,3.8195,3.8123,3.719,3.66,3.65,3.6701,3.6463,3.6693,3.7224,3.6944,3.6843,3.6771,3.6129,3.5907,3.5836,3.5251,3.4859,3.4569,0.0,0.0,0.0,0.0,0.0,0.0,0.0,0.0,0.0,0.0,0.0,0.0,0.0,0.0,0.0,0.0,1.3769,1.4906,1.6554,1.8703,2.0582,2.2157,2.3754,2.4951,2.5561,2.633,2.7056,2.7763,2.8296,2.8725,2.9075,2.9322,2.9756,3.0322,3.0224,3.0707,3.1593,3.0991,3.0803,3.0949,3.0525,2.9865,2.9084,2.8014,2.6466,2.4695,0.0,2.2582,2.1864,2.1364,2.1244,2.1409,2.2268,2.2408,2.2074,2.1173,2.1163,2.1649,0.0,0.0,2.509,2.7068,2.823,2.9259,3.0742,3.1383,3.1845,3.2291,3.2076,3.1847,3.2044,3.2673,3.3358,3.403,3.5458,3.658,3.6754,3.7128,3.6874,3.5511,3.5939,0.0,0.0,0.0,0.0,3.8477,3.8758,3.8985,3.9279,3.9199,3.9279,3.954,3.8977,3.8767,3.9011,3.8244,3.8092,3.8467,3.7911,3.7443,3.7102,3.5406,3.5214,3.6066,3.5286,3.5581,3.6634,3.6723,3.6551,3.6187,3.5966,3.5673,3.5251,3.5087,3.4956,3.4835,0.0,0.0,0.0,0.0,0.0,0.0,0.0,0.0,0.0,0.0,0.0,0.0,0.0,0.0,0.0,0.0,0.0,1.4156,1.5407,1.7164,1.8745,2.0067,2.1582,2.2585,2.3087,2.3919,2.4597,2.5134,2.5975,2.6603,2.7062,2.7513,2.8112,2.8848,2.8791,2.9366,3.0407,2.9881,2.9607,2.9414,2.8929,2.7942,2.6712,2.572,2.4178,0.0,2.0964,2.0405,2.0203,1.9612,1.9568,1.9927,2.0646,2.0882,2.0845,2.0533,2.1368,2.2679,0.0,2.5533,2.7241,2.9205,3.0287,3.1156,3.2305,3.2719,3.2853,3.2875,3.2098,3.1378,3.1168,3.1333,3.1845,3.2973,3.4306,3.5578,3.6592,3.6885,3.6687,3.5778,3.5922,3.5998,0.0,0.0,0.0,3.8464,3.8838,3.9033,3.9265,3.9386,3.9493,3.95,3.9149,3.8978,3.9084,3.8255,3.8036,3.8496,3.6869,3.6262,3.6468,3.4262,3.3965,3.5175,3.4423,3.4857,3.6008,3.6136,3.5907,3.5602,3.5602,3.5322,3.5028,3.5028,3.4956,3.4801,0.0,0.0,0.0,0.0,0.0,0.0,0.0,0.0,0.0,0.0,0.0,0.0,0.0,0.0,0.0,0.0,0.0,0.0,1.4308,1.5181,1.6391,1.7986,1.8716,1.9456,2.0295,2.0862,2.1273,2.1542,2.2656,2.3493,2.4143,2.4673,2.566,2.7012,2.6636,2.7278,2.8584,2.8238,2.7606,2.679,2.6481,2.5097,2.3144,2.2444,2.1214,1.9808,1.9181,1.8755,1.84,1.7808,1.7849,1.8155,1.8531,1.9412,2.049,2.1462,2.2773,2.4325,2.6066,2.7829,2.9548,3.1343,3.2246,3.2808,3.3334,3.3404,3.3217,3.2701,3.1886,3.1164,0.0,0.0,3.0441,3.2045,3.2681,3.3793,3.6218,3.6112,3.5912,0.0,0.0,0.0,0.0,0.0,0.0,3.8095,0.0,3.87,3.87,3.8921,3.8961,3.8708,3.8683,3.8531,3.8211,3.75,3.721,3.7409,3.5248,3.4671,3.5495,3.3194,3.2899,3.4205,3.381,3.4352,3.5356,3.509,3.5028,3.5028,3.5028,3.5028,3.5028,3.5028,3.4859,3.4607,0.0,0.0,0.0,0.0,0.0,0.0,0.0,0.0,0.0,0.0,0.0,0.0,0.0,0.0,0.0,0.0,0.0,0.0,1.3679,1.4745,1.5516,1.596,1.768,1.8768,1.9057,1.9988,2.0615,2.0921,2.1424,2.1743,2.1921,2.2347,2.2761,2.3128,2.3393,2.3965,2.4705,2.4424,2.4271,2.4189,2.3406,2.2694,2.1991,2.0925,2.01,1.9444,1.8845,1.8413,1.809,1.7956,1.8676,1.973,2.0281,2.1096,2.2051,0.0,0.0,2.6159,2.815,2.982,3.137,3.2933,3.3427,3.3641,3.4002,3.3697,3.3164,3.2385,3.0542,2.8899,0.0,0.0,0.0,3.1055,3.3316,0.0,3.6981,3.7595,0.0,3.6292,0.0,3.6155,3.565,3.6229,0.0,0.0,3.8003,3.844,3.8591,3.8475,3.8442,3.8524,3.8108,3.8074,3.8398,3.7748,3.7237,3.6796,3.5263,3.4648,3.4756,3.2037,3.2053,3.411,3.2723,3.334,3.5356,3.509,3.5028,3.5028,3.5028,3.5028,3.5028,3.5028,3.4933,3.4932,0.0,0.0,0.0,0.0,0.0,0.0,0.0,0.0,0.0,0.0,0.0,0.0,0.0,0.0,0.0,0.0,0.0,0.0,0.0,1.4043,1.446,1.4576,1.5785,1.6494,1.6665,1.7371,1.7953,1.8405,1.881,1.9204,1.9604,1.992,2.0301,2.075,2.1024,2.1551,2.2225,2.1914,2.1739,0.0,0.0,2.015,1.9652,1.8972,1.859,1.8425,1.8197,1.8317,1.8676,1.9183,1.9903,2.0757,2.1744,2.2779,2.3875,2.5317,0.0,2.8337,3.014,3.161,3.2906,3.4002,3.4175,3.3988,3.3627,3.3187,3.2376,3.0644,2.8767,0.0,2.6429,2.6651,0.0,0.0,0.0,0.0,3.7088,3.7702,3.7812,0.0,3.7381,0.0,3.6499,3.6827,3.7037,0.0,3.7752,3.8217,3.8133,3.8116,3.8114,3.8079,3.8016,3.8022,3.8081,3.7715,3.6931,3.5703,3.4335,3.3386,3.2778,3.0534,3.0927,3.3266,0.0,3.3075,3.5356,3.4536,3.4512,3.4957,3.4382,3.4512,3.5028,3.5028,3.5028,3.5099,0.0,0.0,0.0,0.0,0.0,0.0,0.0,0.0,0.0,0.0,1.2207,0.0,0.0,0.0,0.0,0.0,0.0,0.0,0.0,0.0,1.3527,1.3748,1.3829,1.3992,1.4215,1.4511,1.4953,1.5476,1.5955,1.66,1.7434,1.7592,1.8156,1.901,1.9016,1.95,2.0271,1.992,1.9514,1.903,1.8466,1.7789,1.7139,0.0,1.7192,1.73,1.7568,1.8358,1.9481,2.0828,2.139,2.1777,2.3185,2.4516,2.5864,2.7589,2.9072,3.0474,3.1984,3.3213,3.4189,3.4788,3.4589,3.4015,3.2763,3.2131,3.0976,2.8321,0.0,2.5834,2.4879,2.5107,2.6335,2.9096,0.0,3.3448,3.6992,3.7301,3.7712,3.9281,3.8571,3.7879,3.7742,3.7525,3.7203,3.6872,3.7661,3.8025,3.7541,3.7746,3.7772,3.7472,3.7951,3.7984,3.7409,3.7409,3.6416,3.4582,3.3222,3.192,3.0531,2.9346,3.0027,3.2204,0.0,0.0,3.5249,3.3721,3.3852,3.4899,3.3605,3.3864,3.5028,3.5028,3.5028,3.5251,0.0,0.0,0.0,0.0,0.0,0.0,0.0,0.0,0.0,0.0,1.2657,1.259,0.0,0.0,0.0,0.0,0.0,0.0,0.0,0.0,0.0,1.3468,1.4065,1.4318,1.4195,1.483,1.5242,1.5314,1.5436,1.5663,1.6027,1.5923,1.6053,1.6432,1.6437,1.6677,1.7062,1.674,1.6702,1.6825,1.6451,1.6496,1.678,1.678,0.0,0.0,1.7836,1.8236,1.9011,2.139,2.2846,2.3875,2.5155,2.6506,2.8005,2.974,3.0782,3.1744,3.3467,3.4442,3.5044,3.5391,3.4897,3.3913,3.2383,3.0962,0.0,0.0,2.5327,2.4393,2.4505,2.5125,2.68,3.0326,3.2394,3.4644,3.7732,3.829,3.853,0.0,0.0,0.0,0.0,0.0,0.0,0.0,0.0,3.7841,3.7241,3.7004,3.6833,3.6797,3.6858,3.6857,3.6784,3.6784,3.601,3.4582,3.3222,3.192,3.0603,3.0174,3.0803,3.2266,0.0,0.0,3.5249,3.3721,3.3852,3.4899,3.3605,3.3864,3.5028,3.5028,3.5322,3.5836,0.0,0.0,0.0,0.0,0.0,0.0,0.0,1.355,1.3749,1.405,1.4096,1.3822,1.3033,1.3144,1.3332,0.0,0.0,0.0,0.0,0.0,0.0,0.0,1.4619,1.4787,1.4667,1.52,1.5511,1.5656,0.0,1.5855,1.6118,1.5732,1.5782,1.6164,1.6429,1.6575,1.6655,1.6763,1.6658,1.6454,1.6323,1.6522,1.6902,0.0,0.0,0.0,1.7902,1.8409,1.9241,2.0935,2.2913,2.4997,2.6947,2.847,2.9878,3.145,3.2358,3.3106,3.4416,3.5204,3.5645,3.5631,3.4736,3.3234,3.0878,0.0,0.0,0.0,2.3719,2.3387,2.3248,2.4251,2.5985,2.8551,3.0517,3.2878,3.6317,3.6934,3.7683,3.9197,0.0,0.0,0.0,0.0,0.0,0.0,0.0,3.8119,3.7127,3.6893,3.672,3.6624,3.6624,3.6624,3.6624,3.5937,3.489,3.3521,3.2913,3.192,3.0603,3.1608,3.2652,3.3744,3.4047,0.0,3.5652,3.3166,3.324,3.4805,3.2886,3.331,3.5028,3.5322,3.5673,3.6037,0.0,0.0,0.0,0.0,0.0,0.0,0.0,1.4578,1.4924,1.5378,1.5536,1.513,1.3758,1.4031,1.4209,0.0,0.0,0.0,0.0,0.0,0.0,0.0,0.0,0.0,0.0,0.0,0.0,0.0,0.0,0.0,0.0,0.0,0.0,0.0,0.0,1.7391,1.7387,1.7606,1.7419,0.0,0.0,1.7075,0.0,0.0,0.0,0.0,0.0,1.8543,1.9455,2.0458,2.2505,2.5037,2.7467,2.9352,3.0862,3.2211,3.312,3.3921,3.5004,3.5672,3.6019,3.5778,3.4469,3.2439,2.9539,2.7968,0.0,2.2691,2.2292,2.2499,2.2173,2.3265,2.4819,2.6698,2.8395,3.0825,3.474,3.5562,3.6817,0.0,4.0047,0.0,0.0,0.0,0.0,0.0,0.0,0.0,3.7381,3.7084,3.6877,3.6721,3.6721,3.6685,3.6624,3.526,3.3903,3.2603,3.2292,3.1485,3.0229,3.2455,3.3897,3.4719,3.5008,0.0,0.0,3.2881,3.2956,3.4793,3.2661,3.3181,3.5251,3.5895,3.6187,3.6421,0.0,0.0,0.0,0.0,0.0,0.0,0.0,1.5516,1.5681,1.6377,1.6221,1.5937,1.5663,1.5787,1.5781,0.0,0.0,0.0,0.0,0.0,0.0,0.0,0.0,0.0,0.0,0.0,0.0,0.0,0.0,0.0,0.0,0.0,0.0,0.0,0.0,0.0,0.0,1.7963,0.0,0.0,0.0,0.0,0.0,0.0,0.0,0.0,0.0,1.8409,1.9156,2.0588,2.1964,2.3429,2.5251,2.7749,3.0181,3.1116,0.0,0.0,3.5124,3.5832,3.6059,3.6046,3.4374,3.2,2.9332,0.0,2.4545,2.208,2.1454,2.1589,2.2322,2.2781,2.4005,2.6881,2.8104,3.0196,3.4439,3.5685,3.7071,3.9714,0.0,0.0,0.0,0.0,0.0,0.0,0.0,0.0,3.825,3.748,3.6973,3.6949,3.6949,3.6878,3.6624,3.526,3.3903,3.2603,3.135,3.0052,2.8865,3.1801,3.3166,3.3405,0.0,0.0,0.0,3.3887,3.3735,3.4899,3.4088,3.4605,3.5895,3.6492,3.7076,3.7645,0.0,0.0,0.0,0.0,0.0,0.0,1.5427,1.5866,1.637,1.6996,1.7213,1.7284,1.7246,1.7496,1.7179,1.5934,0.0,0.0,0.0,0.0,0.0,0.0,0.0,0.0,0.0,0.0,0.0,0.0,0.0,0.0,0.0,0.0,0.0,0.0,0.0,0.0,0.0,0.0,0.0,0.0,0.0,0.0,0.0,0.0,0.0,0.0,0.0,0.0,1.9268,1.9658,2.0815,2.2171,2.2532,2.4502,2.7227,2.9927,3.141,3.2701,3.479,3.5845,3.6246,3.5899,3.4028,3.1527,2.866,0.0,2.4004,2.153,2.1124,2.1348,2.1823,2.2129,2.2889,2.4709,2.5446,2.7119,3.0866,3.221,3.4136,3.7696,3.8731,0.0,0.0,0.0,0.0,0.0,0.0,0.0,3.8387,3.765,3.7142,3.6973,3.6816,3.6314,3.5395,3.4099,3.2705,3.1412,3.0842,3.0977,3.1692,3.3929,3.5438,3.6464,0.0,0.0,0.0,3.4476,3.4382,3.5451,3.4382,3.5028,3.6551,3.7134,3.7555,3.7846,0.0,0.0,0.0,0.0,0.0,1.5492,1.5893,1.6475,1.7038,1.7536,1.7892,1.8102,1.8102,1.826,1.7852,1.6657,1.6995,0.0,0.0,0.0,0.0,0.0,0.0,0.0,0.0,0.0,0.0,0.0,0.0,0.0,0.0,0.0,0.0,0.0,0.0,0.0,0.0,0.0,0.0,0.0,0.0,0.0,0.0,0.0,0.0,0.0,0.0,0.0,0.0,0.0,0.0,2.0993,2.0579,2.1817,2.4209,2.8005,3.0092,3.165,3.3921,3.5311,3.6019,3.5605,3.3553,3.0935,0.0,0.0,2.3412,2.1177,2.0934,2.1235,2.1449,2.1728,2.2224,2.3176,2.3842,2.5346,2.8377,2.9878,3.1943,0.0,0.0,0.0,0.0,0.0,0.0,0.0,0.0,0.0,0.0,3.7626,3.7179,3.6973,3.6842,3.6032,3.4582,3.3284,3.1929,3.0492,3.0749,3.1567,3.2847,3.5194,3.6837,3.7899,0.0,0.0,0.0,3.5473,3.538,3.6129,3.538,3.5907,3.7192,3.7846,3.8079,3.8137,0.0,0.0,0.0,0.0,0.0,0.0,1.7276,1.7495,1.7624,1.8045,1.81,1.81,1.81,1.7752,1.766,1.8045,1.8276,0.0,0.0,0.0,0.0,0.0,0.0,0.0,0.0,0.0,1.9191,1.9588,1.9791,0.0,0.0,0.0,0.0,0.0,0.0,0.0,0.0,0.0,0.0,0.0,0.0,0.0,0.0,0.0,0.0,0.0,0.0,0.0,0.0,0.0,0.0,0.0,0.0,2.0227,2.1448,2.4994,2.7869,3.0381,3.2438,3.4082,3.5204,3.5204,3.2901,3.0076,2.7977,2.5097,2.2472,2.1,2.0906,2.1172,2.1462,2.1728,2.2163,2.2961,2.4117,2.5699,2.8078,2.9706,3.1381,0.0,0.0,0.0,0.0,0.0,0.0,0.0,0.0,0.0,0.0,3.7358,3.6973,3.6973,3.6973,3.6222,3.4644,3.3284,3.1815,3.028,3.1174,3.1338,3.096,3.4817,3.6445,0.0,0.0,0.0,0.0,3.7063,3.6784,3.6843,3.7497,3.7788,3.7846,3.8499,3.866,3.866,0.0,0.0,0.0,0.0,0.0,0.0,0.0,1.6908,1.7238,1.7642,1.7697,1.7789,1.8082,1.7752,1.766,1.8063,1.8172,0.0,0.0,0.0,0.0,0.0,0.0,0.0,0.0,0.0,1.9266,1.9394,1.9727,1.996,2.0069,2.0615,0.0,0.0,0.0,0.0,0.0,0.0,0.0,0.0,0.0,0.0,0.0,0.0,0.0,0.0,0.0,0.0,0.0,0.0,0.0,0.0,0.0,0.0,0.0,2.2412,2.5007,2.7617,2.9276,3.0617,3.1402,3.1006,2.9371,2.7431,2.5709,2.3905,2.225,2.0964,2.0906,2.1184,2.1462,2.1728,2.2396,2.3864,2.4603,2.5562,2.7315,0.0,0.0,3.3876,3.6614,0.0,0.0,0.0,0.0,0.0,0.0,0.0,0.0,3.6819,3.678,3.6973,3.6842,3.5588,3.3284,3.2666,3.1204,2.8931,3.0373,3.1695,3.2927,3.525,0.0,0.0,0.0,0.0,0.0,3.7555,3.7497,3.7497,3.7717,3.8079,3.8441,3.866,3.8718,3.8718,0.0,0.0,0.0,0.0,0.0,0.0,0.0,1.6846,1.7121,1.745,1.7505,1.7654,1.8063,1.7747,1.7654,1.8063,1.8027,0.0,0.0,0.0,0.0,0.0,0.0,0.0,0.0,1.9292,1.9384,1.9531,1.9785,2.006,2.0372,2.0869,2.0979,2.072,0.0,0.0,0.0,0.0,0.0,0.0,0.0,0.0,2.2215,0.0,0.0,0.0,0.0,0.0,0.0,0.0,0.0,0.0,0.0,0.0,0.0,0.0,2.2465,2.466,2.6907,2.8393,2.9277,2.9026,2.7571,0.0,2.4756,2.3266,2.1872,2.1049,2.0978,2.1208,2.1595,2.1716,2.2238,2.3641,2.4462,2.5367,2.6616,0.0,0.0,3.4386,0.0,0.0,0.0,0.0,0.0,0.0,0.0,0.0,0.0,3.6698,3.6685,3.6816,3.6721,3.5263,3.2524,3.306,3.1906,2.917,3.1721,3.356,3.4631,3.6494,0.0,0.0,0.0,0.0,0.0,3.8137,3.8137,3.8137,3.8137,3.8369,3.8718,3.8718,3.8718,3.8718,0.0,0.0,0.0,0.0,0.0,0.0,0.0,1.7218,1.7287,1.7478,1.7495,1.7647,1.8009,1.7705,1.7666,1.8009,0.0,0.0,0.0,0.0,0.0,0.0,0.0,0.0,1.9312,1.9312,1.9532,1.9914,1.9914,2.0317,2.1129,2.1145,2.1145,2.1111,2.0759,2.0573,2.0592,0.0,0.0,0.0,0.0,0.0,0.0,0.0,0.0,0.0,0.0,0.0,0.0,0.0,0.0,0.0,0.0,0.0,0.0,0.0,0.0,0.0,0.0,2.7068,2.8188,2.8412,2.6874,2.5157,2.4647,2.2943,0.0,2.1123,2.1099,2.1281,2.1813,2.1728,2.1837,2.2723,2.3979,2.5204,2.6166,2.911,0.0,0.0,3.657,0.0,0.0,0.0,0.0,0.0,0.0,0.0,0.0,3.6931,3.6625,3.6625,3.6552,3.517,3.2359,3.3988,3.3375,3.0565,3.4485,3.6176,3.6,3.8094,0.0,0.0,0.0,0.0,0.0,3.8633,3.8691,3.8718,3.8691,3.8691,3.8718,3.8718,3.8718,3.8718,0.0,0.0,0.0,0.0,0.0,0.0,0.0,0.0,0.0,0.0,1.7495,1.7552,1.7628,1.7552,1.7552,0.0,0.0,0.0,0.0,0.0,0.0,0.0,0.0,0.0,1.9528,1.9528,1.9732,2.012,1.9995,2.0421,2.1429,2.1504,2.1507,2.1407,2.1412,2.1251,2.0958,2.1159,0.0,0.0,0.0,0.0,0.0,0.0,0.0,0.0,2.2443,2.1875,0.0,0.0,0.0,0.0,0.0,0.0,0.0,0.0,2.0267,2.1015,2.2058,0.0,2.3422,2.3163,2.287,2.2468,0.0,2.1624,2.1429,2.088,2.1123,2.1522,2.1849,2.2018,2.2554,2.3943,2.4866,2.5794,2.6906,0.0,0.0,3.6471,0.0,0.0,0.0,0.0,0.0,0.0,0.0,0.0,0.0,3.7108,3.6671,3.6671,3.6201,3.4797,3.2298,3.2377,3.1765,3.0555,3.2745,3.4571,3.6,3.7885,0.0,0.0,0.0,0.0,3.8691,3.821,3.829,3.8691,3.8477,3.8504,3.8718,3.8718,3.8718,3.8718,0.0,0.0,0.0,0.0,0.0,0.0,0.0,0.0,0.0,0.0,0.0,1.7718,1.7718,1.7718,0.0,0.0,0.0,0.0,0.0,0.0,0.0,0.0,0.0,1.9744,1.9744,1.9645,1.9945,2.0666,2.0336,2.0874,2.223,2.1869,2.1824,2.2013,2.1599,2.1306,2.1126,2.1288,2.1508,0.0,2.2364,0.0,0.0,0.0,0.0,0.0,2.2774,2.2142,0.0,2.0614,2.0089,1.9774,0.0,0.0,0.0,0.0,2.0027,2.0361,2.0788,2.1514,2.2088,2.1812,2.1795,2.1701,2.1448,2.1319,2.1212,2.1137,2.1217,2.1438,2.1837,2.203,2.2504,2.3712,2.4861,2.6614,0.0,0.0,3.52,3.7637,0.0,0.0,0.0,0.0,0.0,0.0,0.0,0.0,0.0,3.7304,3.6678,3.6678,3.6004,3.4447,3.1985,3.2579,3.25,3.17,3.3463,3.5344,3.7225,3.824,0.0,0.0,0.0,0.0,3.829,3.7956,3.7996,3.829,3.8321,3.837,3.8544,3.8633,3.8718,3.8718,0.0,0.0,0.0,0.0,0.0,0.0,0.0,0.0,0.0,0.0,0.0,0.0,0.0,0.0,0.0,0.0,0.0,0.0,0.0,0.0,0.0,0.0,0.0,1.9961,1.9961,1.9784,2.0218,2.1254,2.0829,2.1503,2.3134,2.2388,2.2312,2.2758,2.1732,2.1255,2.1196,2.1562,2.1687,2.1742,2.2199,0.0,0.0,0.0,0.0,0.0,0.0,0.0,0.0,2.117,2.0522,1.9808,1.9799,0.0,0.0,0.0,0.0,0.0,2.0672,2.167,2.2464,2.2104,2.1966,2.1911,2.1909,2.1383,2.0994,2.1435,2.1336,2.1341,2.1921,2.2091,2.2405,2.332,2.5022,0.0,3.2594,3.383,3.5322,3.8299,0.0,0.0,0.0,0.0,0.0,0.0,0.0,0.0,0.0,3.7402,3.6746,3.684,3.5975,3.437,3.2141,3.3513,3.3814,3.3052,3.4863,3.6804,3.8718,3.8718,3.8544,0.0,0.0,0.0,3.7809,3.7702,3.7742,3.7849,3.8103,3.824,3.8281,3.8544,3.8651,3.8651,0.0,0.0,0.0,0.0,0.0,0.0,0.0,0.0,0.0,0.0,0.0,0.0,0.0,0.0,0.0,0.0,0.0,0.0,0.0,0.0,0.0,2.0469,2.0333,2.0235,2.0235,2.0215,2.0598,2.146,2.1318,2.198,2.3361,2.3495,2.3438,2.3187,2.2428,2.1929,2.1617,2.1668,2.1687,2.176,2.251,0.0,0.0,0.0,0.0,0.0,0.0,0.0,0.0,2.1248,2.0472,1.9808,1.9799,0.0,0.0,0.0,0.0,0.0,2.1221,2.2285,2.2796,2.1261,2.143,2.174,2.0877,2.0969,2.1198,2.1189,2.1316,2.168,2.2429,2.2899,2.3584,2.4832,0.0,3.0392,0.0,0.0,0.0,0.0,0.0,0.0,0.0,0.0,0.0,0.0,0.0,0.0,0.0,3.7579,3.7041,3.7626,3.6463,3.5383,3.4406,3.3663,3.3179,3.3052,3.4405,3.635,3.8718,3.8718,3.8544,0.0,0.0,3.7849,3.7782,3.7261,3.7326,3.7809,3.7849,3.7889,3.7929,3.8223,3.8388,3.837,0.0,0.0,0.0,0.0,0.0,0.0,0.0,0.0,0.0,0.0,0.0,0.0,0.0,0.0,0.0,0.0,0.0,0.0,0.0,0.0,0.0,2.0586,2.0508,2.045,2.045,2.0584,2.1105,2.2037,2.186,2.2662,2.4311,2.397,2.3514,2.2963,2.2281,2.187,2.1705,2.1925,2.1911,2.176,0.0,0.0,0.0,0.0,0.0,0.0,0.0,0.0,0.0,0.0,2.0813,2.0019,2.0057,0.0,0.0,0.0,0.0,0.0,2.0913,2.159,2.2018,2.1674,2.2411,2.2927,2.1924,2.1915,2.2089,2.213,2.2189,2.235,2.2636,2.38,2.5521,2.8016,0.0,3.2051,3.4419,0.0,0.0,0.0,0.0,0.0,0.0,0.0,0.0,0.0,0.0,0.0,0.0,0.0,3.7497,3.7788,3.6901,3.5907,3.4921,3.4871,3.4801,3.4569,3.4964,3.6344,3.8477,3.829,3.8076,3.7782,0.0,3.7489,3.7301,3.6992,3.7088,3.7342,3.7529,3.7595,3.7635,3.8133,3.82,3.8076,0.0,0.0,0.0,0.0,0.0,0.0,0.0,0.0,0.0,0.0,0.0,0.0,0.0,0.0,0.0,0.0,0.0,0.0,0.0,0.0,2.0215,2.0566,2.0605,2.0625,2.0742,2.0993,2.1653,2.2656,2.2682,2.3598,2.5299,2.4377,2.3573,2.2906,2.2242,2.1845,2.1723,2.213,2.213,2.1906,0.0,0.0,0.0,0.0,0.0,0.0,0.0,0.0,0.0,0.0,0.0,0.0,0.0,0.0,0.0,1.98,1.9907,2.004,2.0739,2.1221,2.1643,2.2178,2.2953,2.3537,2.3274,2.3024,2.3034,2.355,2.3606,2.349,2.3338,2.5145,0.0,3.0453,3.219,3.3642,0.0,0.0,0.0,0.0,0.0,0.0,0.0,0.0,0.0,0.0,0.0,0.0,0.0,0.0,3.7715,3.7766,3.7225,3.6483,3.5568,3.6429,3.6505,3.587,3.5825,3.6679,3.8321,3.7956,3.7662,3.7382,3.7382,3.7195,3.6885,3.6885,3.6885,3.6912,3.7275,3.7382,3.7478,3.7889,3.7946,3.7782,0.0,0.0,0.0,0.0,0.0,0.0,0.0,0.0,0.0,0.0,0.0,0.0,0.0,0.0,0.0,0.0,0.0,0.0,0.0,0.0,2.0566,2.0605,2.0605,2.0781,2.1152,2.1601,2.2266,2.3169,2.4079,2.5001,2.5921,2.5044,2.4264,2.3592,2.2924,2.2283,2.1723,2.213,2.2277,2.2332,2.3114,0.0,0.0,0.0,0.0,0.0,0.0,0.0,0.0,0.0,0.0,0.0,0.0,0.0,1.9508,2.001,2.017,2.0357,2.1288,2.2131,2.2653,2.2138,2.1917,2.2245,2.3985,2.3732,2.3632,2.5175,2.5492,2.5433,2.5234,2.7403,2.9568,3.0562,3.3338,3.5698,0.0,0.0,0.0,0.0,0.0,0.0,0.0,0.0,0.0,0.0,0.0,0.0,0.0,0.0,0.0,3.7762,3.747,3.7355,3.7605,3.7958,3.7404,3.5929,3.6513,3.7338,3.8321,3.7956,3.7662,3.7382,3.7382,3.7195,3.6885,3.6885,3.6885,3.6912,3.7275,3.7382,3.7382,3.7478,3.7478,3.7448,0.0,0.0,0.0,0.0,0.0,0.0,0.0,0.0,0.0,0.0,0.0,0.0,0.0,0.0,0.0,0.0,0.0,0.0,0.0,2.0351,2.0605,2.0605,2.0605,2.0918,2.1621,2.2051,2.299,2.4378,2.5319,2.5562,2.5179,2.4606,2.3966,2.3297,2.2629,2.2232,2.2112,2.2492,2.2675,2.2748,2.3602,2.3767,0.0,0.0,0.0,0.0,0.0,0.0,0.0,0.0,2.1711,2.0644,2.0372,1.988,1.9481,1.984,1.984,1.9853,2.0548,2.1408,2.2158,2.2479,2.2773,2.3313,2.4557,2.5156,2.574,2.6911,2.7412,2.7629,2.7642,2.9323,3.1094,3.2084,3.461,3.6632,0.0,0.0,0.0,0.0,0.0,0.0,0.0,0.0,0.0,0.0,0.0,0.0,0.0,0.0,0.0,3.7809,3.7702,3.7645,3.7809,3.7742,3.7509,3.7087,3.7176,3.7383,3.7716,3.7408,3.7195,3.7059,3.7059,3.6992,3.6885,3.6885,3.6885,3.6885,3.7048,3.7059,3.7128,3.7315,3.7275,3.7155,0.0,0.0,0.0,0.0,0.0,0.0,0.0,0.0,0.0,0.0,0.0,0.0,0.0,0.0,0.0,0.0,0.0,0.0,2.0117,2.041,2.0605,2.0605,2.0605,2.1055,2.207,2.2479,2.3477,2.5082,2.5981,2.5942,2.5006,2.4609,2.4079,2.3445,2.287,2.2634,2.2698,2.2968,2.3096,2.3151,2.3901,2.4012,0.0,0.0,0.0,0.0,0.0,0.0,0.0,0.0,2.167,2.0773,2.0299,1.9793,1.9455,1.972,1.9653,1.9613,2.0064,2.0748,2.1515,2.2398,2.3215,2.4178,2.5585,2.66,2.7639,2.9013,2.9335,2.9417,2.9486,3.0652,0.0,0.0,3.5218,0.0,0.0,0.0,0.0,0.0,0.0,0.0,0.0,0.0,0.0,0.0,0.0,0.0,0.0,0.0,0.0,0.0,3.7635,3.7635,3.7529,3.7422,3.7422,3.7529,3.7342,3.7301,3.7382,3.7032,3.6885,3.6885,3.6885,3.6885,3.6885,3.6885,3.6885,3.6885,3.6885,3.6885,3.6912,3.7155,3.7128,3.6952,0.0,0.0,0.0,0.0,0.0,0.0,0.0,0.0,0.0,0.0,0.0,0.0,0.0,0.0,0.0,0.0,0.0,0.0,2.0566,2.0605,2.0605,2.0605,2.0605,2.1192,2.248,2.2908,2.3767,2.5082,2.5981,2.6152,2.5698,2.5273,2.4817,2.4273,2.3881,2.3636,2.3499,2.3499,2.3499,2.3559,2.4012,2.4202,2.4202,0.0,0.0,0.0,0.0,0.0,0.0,0.0,2.1151,2.1002,2.0097,1.962,1.9455,1.972,1.98,1.9867,2.0117,2.0454,2.0927,2.1777,2.2934,2.4526,2.7121,2.7963,2.8981,3.157,3.1318,3.064,3.0627,3.1347,0.0,0.0,0.0,0.0,0.0,0.0,0.0,0.0,0.0,0.0,0.0,0.0,0.0,0.0,0.0,0.0,0.0,0.0,0.0,0.0,3.7235,3.7235,3.6885,3.7235,3.7235,3.6885,3.6885,3.7088,3.7382,3.7032,3.6885,3.6885,3.6885,3.6885,3.6885,3.6885,3.6885,3.6885,3.6885,3.6885,3.6885,3.6885,3.6885,3.6885,0.0,0.0,0.0,0.0,0.0,0.0,0.0,0.0,0.0,0.0,0.0,0.0,0.0,0.0,0.0,0.0,0.0,0.0,2.0605,2.0605,2.0605,2.0605,2.0605,2.1055,2.2051,2.3224,2.4214,2.5082,2.5981,2.5742,2.4499,2.4673,2.4355,2.3593,2.3767,2.3725,2.3499,2.3499,2.3688,2.4012,2.4146,2.4385,2.4617,0.0,0.0,0.0,0.0,0.0,0.0,0.0,0.0,0.0,1.9895,1.9755,1.9693,1.9773,1.9947,2.009,2.0184,2.0895,2.1804,2.2712,2.4275,2.6199,2.8444,2.9032,2.99,3.2772,3.3114,3.2779,3.2235,3.3105,0.0,0.0,0.0,0.0,0.0,0.0,0.0,0.0,0.0,0.0,0.0,0.0,0.0,0.0,0.0,0.0,0.0,0.0,0.0,0.0,3.6461,3.6513,3.6592,3.6727,3.6834,3.6885,3.6885,3.6981,3.7048,3.6981,3.6885,3.6885,3.6885,3.6885,3.6885,3.6885,3.6885,3.6885,3.6885,3.6885,3.6885,3.6885,3.6885,3.6885,0.0,0.0,0.0,0.0,0.0,0.0,0.0,0.0,0.0,0.0,0.0,0.0,0.0,0.0,0.0,0.0,0.0,0.0,0.0,2.0605,2.0605,2.0605,2.0762,2.125,2.2109,2.3499,2.4237,2.4297,2.5256,2.5203,2.416,2.4755,2.4789,2.4347,2.4669,2.4659,2.4386,2.4122,2.4096,2.424,2.424,2.4401,2.468,0.0,0.0,0.0,0.0,0.0,0.0,0.0,0.0,0.0,1.9718,1.9706,1.98,1.98,1.992,2.0077,2.0347,2.1176,2.2285,2.3505,2.5211,2.7228,2.9766,3.0902,3.2011,3.4135,3.4295,3.4031,3.3764,3.4234,0.0,0.0,0.0,0.0,0.0,0.0,0.0,0.0,0.0,0.0,0.0,0.0,0.0,0.0,0.0,0.0,0.0,0.0,0.0,0.0,3.6072,3.6153,3.6326,3.6326,3.6433,3.658,3.658,3.658,3.6607,3.6672,3.6779,3.6885,3.6779,3.6687,3.6607,3.6727,3.6687,3.662,3.6805,3.6805,3.6739,3.6845,3.6885,3.6885,0.0,0.0,0.0,0.0,0.0,0.0,0.0,0.0,0.0,0.0,2.0514,0.0,0.0,0.0,0.0,0.0,0.0,0.0,0.0,0.0,2.0625,2.0644,2.1074,2.1678,2.2457,2.3647,2.3881,2.3079,2.4164,2.457,2.4387,2.526,2.5711,2.5842,2.6059,2.5992,2.567,2.5068,2.4605,2.4296,2.4342,2.4422,2.4535,2.4491,0.0,0.0,0.0,0.0,0.0,0.0,0.0,0.0,1.9609,1.9655,1.9867,1.9813,1.9853,2.0054,2.0641,2.1448,2.2512,2.4332,2.6027,2.807,3.1129,3.312,3.4549,3.5378,3.4963,3.4603,3.5137,3.4817,0.0,0.0,0.0,0.0,0.0,0.0,0.0,0.0,0.0,0.0,0.0,0.0,0.0,0.0,0.0,0.0,0.0,0.0,0.0,3.6006,3.6006,3.6033,3.6032,3.6032,3.6046,0.0,3.6072,3.6072,3.614,3.6353,3.662,3.6834,3.658,3.6313,3.6099,3.6353,3.6313,3.6126,3.6647,3.6672,3.654,3.6794,3.6901,3.6885,0.0,0.0,0.0,0.0,0.0,0.0,0.0,0.0,0.0,0.0,0.0,0.0,0.0,0.0,0.0,0.0,0.0,0.0,0.0,0.0,2.0742,2.1054,2.1815,2.224,2.2264,2.2843,2.3053,2.286,2.3942,2.4349,2.411,2.4977,2.5347,2.527,2.5694,2.5558,2.5006,2.4863,2.4592,2.4236,2.4626,2.4803,2.478,2.4392,2.4279,0.0,0.0,0.0,0.0,0.0,0.0,0.0,1.9762,2.0067,2.0401,1.9933,2.0281,2.0962,2.155,2.2211,2.3295,2.5732,2.8511,3.1062,3.2692,3.3721,3.4442,3.4857,3.5164,3.5391,3.5511,3.5618,0.0,0.0,0.0,0.0,0.0,0.0,0.0,0.0,0.0,0.0,0.0,0.0,0.0,0.0,0.0,0.0,0.0,0.0,0.0,3.5096,3.5096,3.5257,3.5725,3.5725,3.5845,0.0,3.6072,3.6072,3.6072,3.6139,3.6206,3.6259,3.6193,3.6126,3.6072,3.6139,3.6126,3.6086,3.6206,3.6366,3.6513,3.658,3.6699,3.6885,0.0,0.0,0.0,0.0,0.0,0.0,0.0,0.0,0.0,0.0,0.0,0.0,0.0,0.0,0.0,0.0,0.0,0.0,0.0,0.0,2.0879,2.1503,2.2147,2.2456,2.2349,2.2734,2.2851,2.2657,2.3512,2.4012,2.4202,2.4953,2.5486,2.5818,2.6226,2.6053,2.5552,2.5422,2.4977,2.435,2.4349,2.4245,2.409,2.3576,2.3326,2.3131,2.2184,0.0,0.0,0.0,0.0,0.0,0.0,0.0,2.0646,2.0307,2.0548,2.1056,2.179,2.276,2.4249,2.7321,3.0007,3.2104,3.3013,3.3681,3.4189,3.4496,3.5017,3.5511,3.5792,0.0,0.0,0.0,0.0,0.0,0.0,0.0,0.0,0.0,0.0,0.0,0.0,0.0,0.0,0.0,0.0,0.0,0.0,3.4549,3.4549,3.4549,3.4549,3.4763,3.5204,3.5217,3.5364,3.5658,3.5658,3.5578,3.5511,3.5939,3.5925,3.5658,3.5805,3.5778,3.5658,3.5805,3.5778,3.5685,3.5965,3.6072,3.6112,3.6393,3.6607,3.6754,0.0,0.0,0.0,0.0,0.0,0.0,0.0,0.0,0.0,0.0,0.0,0.0,0.0,0.0,0.0,0.0,0.0,0.0,0.0,0.0,0.0,2.1738,2.2246,2.2498,2.2498,2.2787,2.2804,2.2553,2.3088,2.3721,2.4485,2.5083,2.5766,2.6582,2.6793,2.6637,2.6234,2.6021,2.5306,2.4298,2.3962,2.356,2.3168,2.2628,2.2249,2.1959,2.1517,2.1061,2.0585,2.029,0.0,0.0,0.0,0.0,2.0712,2.0712,2.0739,2.0967,2.1817,2.3367,2.5491,2.8684,3.0768,3.2198,3.2826,3.34,3.3908,3.4242,3.475,3.5257,3.5685,0.0,0.0,0.0,0.0,0.0,0.0,0.0,0.0,0.0,0.0,0.0,0.0,0.0,0.0,0.0,0.0,0.0,3.4269,3.4242,3.4242,3.4242,3.4242,3.4389,3.4683,3.4683,3.4803,3.5044,3.5044,3.4923,3.4762,3.5444,3.5538,3.5137,3.5431,3.5418,3.5217,3.5458,3.5418,3.5244,3.5738,3.5805,3.5631,3.6179,3.6433,3.654,0.0,0.0,0.0,0.0,0.0,0.0,0.0,0.0,0.0,0.0,0.0,0.0,0.0,0.0,0.0,0.0,0.0,0.0,0.0,0.0,0.0,2.1308,2.2069,2.2498,2.2498,2.2386,2.2452,2.2761,2.2955,2.3658,2.4844,2.5269,2.5805,2.6424,2.6457,2.6156,2.5621,2.5567,2.4836,2.3752,2.4077,2.3684,2.28,2.2339,2.1941,2.1574,2.0745,2.0408,2.029,1.9978,2.0043,0.0,0.0,0.0,2.0712,2.0712,2.0855,2.1243,2.2124,2.4556,2.7322,2.9045,3.0667,3.1992,3.2786,3.324,3.3641,0.0,3.4589,3.4763,0.0,0.0,0.0,0.0,0.0,0.0,0.0,0.0,0.0,0.0,0.0,0.0,0.0,0.0,0.0,0.0,0.0,0.0,3.3961,3.3948,3.3948,3.3948,3.3948,3.4082,3.4376,3.4376,3.4402,3.4442,3.4442,3.4416,3.4389,3.4496,3.4656,3.4895,3.5124,3.5231,3.5204,3.5244,3.5231,3.5204,3.5284,3.5444,3.5591,3.5712,3.6072,3.6513,0.0,0.0,0.0,0.0,0.0,0.0,0.0,0.0,0.0,0.0,0.0,0.0,0.0,0.0,0.0,0.0,0.0,0.0,0.0,0.0,0.0,2.123,2.203,2.2498,2.2498,2.2517,2.2621,2.2794,2.3059,2.3809,2.5027,2.5535,2.6124,2.6728,2.6808,2.6572,2.6073,2.5567,2.4777,2.39,2.3294,2.2581,2.1806,2.1457,2.1226,2.1046,2.0655,2.0644,2.0729,2.019,2.0317,2.0664,2.0535,0.0,0.0,0.0,2.1002,2.1443,2.2993,2.4943,2.7041,2.8991,3.0341,3.141,3.2291,3.2839,3.324,3.3507,3.3948,0.0,0.0,0.0,0.0,0.0,0.0,0.0,0.0,0.0,0.0,0.0,0.0,0.0,0.0,0.0,0.0,0.0,0.0,3.3681,3.3387,3.3374,3.3374,3.3374,3.3374,3.3601,3.4068,3.3908,3.4002,3.4322,3.4322,3.4229,3.4082,3.4242,3.4389,3.4523,3.4643,3.4803,3.495,3.495,3.5044,3.5191,3.5191,3.5271,3.5404,3.5511,3.5899,3.6286,0.0,0.0,0.0,0.0,0.0,0.0,0.0,0.0,0.0,0.0,0.0,0.0,0.0,0.0,0.0,0.0,0.0,0.0,0.0,0.0,0.0,2.121,2.203,2.2477,2.2434,2.2508,2.2648,2.2878,2.3097,2.3936,2.5319,2.5908,2.6445,2.6964,2.6961,2.6769,2.6313,2.5301,2.4507,2.3811,2.2494,2.1579,2.0978,2.0697,2.0601,2.0613,2.0589,2.0805,2.0973,2.0406,2.0575,2.0962,2.0748,2.0828,0.0,0.0,0.0,2.1496,2.3273,2.4609,2.6078,2.8257,2.9579,3.0621,3.165,3.2278,3.2692,0.0,3.3276,0.0,0.0,0.0,0.0,0.0,0.0,0.0,0.0,0.0,0.0,0.0,0.0,0.0,0.0,0.0,0.0,0.0,0.0,3.3093,3.2929,3.2915,3.2915,3.2915,3.2915,3.3169,3.3654,3.3507,3.3604,3.4082,3.4082,3.3975,3.3774,3.3988,3.4082,3.4095,3.4255,3.4442,3.4656,3.4656,3.4817,3.5084,3.5084,3.5137,3.5217,3.5431,3.5698,3.5992,0.0,0.0,0.0,0.0,0.0,0.0,0.0,0.0,0.0,0.0,0.0,0.0,0.0,0.0,2.1949,2.157,0.0,0.0,0.0,0.0,0.0,2.123,2.203,0.0,2.2221,2.1983,2.2274,2.3074,2.2973,2.3919,2.5878,2.6353,2.6685,2.6884,2.6504,2.6117,2.5678,2.4474,2.3644,2.3074,0.0,0.0,0.0,0.0,0.0,0.0,0.0,0.0,2.0676,2.0321,2.0441,2.0726,2.0712,2.0712,2.0779,0.0,0.0,0.0,2.2258,2.338,2.473,2.652,2.8014,2.9468,3.0896,3.1517,3.1938,3.25,0.0,0.0,0.0,0.0,0.0,0.0,0.0,0.0,0.0,0.0,0.0,0.0,0.0,0.0,0.0,0.0,0.0,0.0,0.0,3.2634,3.2621,3.2621,3.2621,3.2621,3.2621,3.2768,3.3026,3.328,3.3427,3.3454,3.3454,3.3454,3.344,3.3454,3.3454,3.3494,3.4068,3.4322,3.4349,3.4349,3.4523,3.4842,3.4842,3.495,3.5204,3.5217,3.5404,3.5658,0.0,0.0,0.0,0.0,0.0,0.0,0.0,0.0,0.0,0.0,0.0,0.0,0.0,2.2157,2.1806,2.2056,2.1988,0.0,0.0,0.0,0.0,2.166,2.2207,2.2477,2.2392,2.2522,2.2718,2.3025,2.3185,2.3944,2.519,2.5681,2.5975,2.6134,2.6533,2.6209,2.5363,2.3927,2.3327,0.0,0.0,0.0,0.0,0.0,0.0,0.0,0.0,0.0,0.0,2.0609,2.0708,2.0922,2.0766,2.0833,2.0975,2.1082,2.1109,2.1296,2.2145,2.2873,2.3843,2.581,2.7094,2.8243,2.9482,3.0488,3.1223,3.161,0.0,0.0,0.0,0.0,0.0,0.0,0.0,0.0,0.0,0.0,0.0,0.0,0.0,0.0,0.0,0.0,0.0,0.0,0.0,0.0,3.2265,3.2265,3.2265,3.2265,3.2265,3.2318,3.2412,3.2706,3.2946,3.3133,3.3133,3.3227,3.3414,3.3414,3.3414,3.3427,3.3641,3.3855,3.4042,3.4042,3.4322,3.4815,3.4815,3.4937,3.5191,3.5191,3.5378,3.5578,0.0,0.0,0.0,0.0,0.0,0.0,0.0,0.0,0.0,0.0,0.0,0.0,0.0,0.0,2.1985,2.231,2.2311,2.2246,2.2102,2.2095,2.209,2.209,2.2551,2.2756,2.2669,2.2808,2.302,2.3302,2.3309,2.3772,2.4713,2.5173,2.5221,2.5015,2.5675,2.5621,2.4932,0.0,0.0,2.3232,0.0,0.0,2.1208,0.0,0.0,0.0,0.0,0.0,0.0,0.0,0.0,0.0,0.0,0.0,0.0,0.0,0.0,2.1243,2.1817,2.2338,2.3174,2.4967,2.5998,2.6961,2.8404,2.9339,3.0074,3.0662,0.0,0.0,0.0,0.0,0.0,0.0,0.0,0.0,0.0,0.0,0.0,0.0,0.0,0.0,0.0,0.0,0.0,0.0,0.0,0.0,3.1957,3.1957,3.1957,3.1957,3.2051,3.2104,3.2104,3.2447,3.2688,3.2888,3.2982,3.308,3.3267,3.3374,3.3414,3.3414,3.3414,3.3534,3.3721,3.3721,3.4015,3.4521,3.4521,3.471,3.5057,3.5057,3.5231,3.5485,0.0,0.0,0.0,0.0,0.0,0.0,0.0,0.0,0.0,2.3784,0.0,0.0,0.0,0.0,0.0,2.2244,2.2038,2.1954,2.1974,2.2303,2.2537,2.2537,0.0,0.0,2.3021,2.2835,2.3108,2.3884,2.3251,2.3444,2.4476,2.4878,2.4541,2.3596,2.3931,2.4226,2.4394,0.0,2.3106,2.3014,0.0,2.1222,2.129,0.0,0.0,0.0,2.1887,2.19,0.0,0.0,0.0,0.0,0.0,0.0,0.0,0.0,0.0,0.0,0.0,0.0,0.0,2.3861,2.4609,2.5623,2.763,0.0,2.8446,2.9606,0.0,0.0,0.0,0.0,0.0,0.0,0.0,0.0,0.0,0.0,0.0,0.0,0.0,0.0,0.0,0.0,0.0,0.0,0.0,3.1711,3.1711,3.1711,3.1711,3.1711,3.1944,3.2091,3.2091,3.242,3.2581,3.2594,3.2875,3.2973,3.3,3.328,3.34,3.3414,3.3414,3.3414,3.3414,3.3414,3.3601,3.3881,3.3881,3.4242,3.4815,3.4815,3.495,3.5191,0.0,0.0,0.0,0.0,0.0,0.0,2.4367,2.4075,2.366,0.0,0.0,0.0,2.2431,2.2607,2.2737,2.284,2.2793,2.2908,2.3242,2.3183,2.3265,2.3573,2.3614,2.3586,2.3517,2.3566,2.3494,2.3329,2.3727,2.3779,2.3504,2.3893,2.3734,2.3121,2.3496,2.346,2.3108,2.2657,0.0,2.3703,2.21,2.2048,0.0,0.0,0.0,0.0,0.0,2.2237,0.0,0.0,2.1911,2.167,0.0,0.0,0.0,0.0,0.0,0.0,2.1109,0.0,0.0,0.0,0.0,0.0,0.0,0.0,0.0,0.0,0.0,0.0,0.0,0.0,0.0,0.0,0.0,0.0,0.0,0.0,0.0,0.0,0.0,0.0,0.0,0.0,0.0,0.0,3.1764,3.1711,3.1711,3.1711,3.1711,3.1711,3.1744,3.1784,3.1784,3.1912,3.2179,3.2594,3.2412,3.2679,3.3293,3.316,3.3213,3.3414,3.3414,3.3414,3.3414,3.3414,3.3601,3.3881,3.3881,3.4242,3.4815,3.4815,3.495,3.5191,0.0,0.0,0.0,0.0,0.0,2.4138,2.3989,2.3719,2.3387,0.0,0.0,0.0,2.3277,0.0,2.3683,2.3473,2.3582,2.3677,2.3747,2.3679,2.3725,2.3858,2.3815,2.3786,2.3786,2.394,2.3877,2.3597,2.3812,2.3609,2.2971,2.3091,2.2875,2.2402,2.2748,0.0,0.0,0.0,0.0,0.0,2.2596,0.0,0.0,2.2637,2.2593,0.0,0.0,0.0,2.3255,2.3046,2.2619,0.0,0.0,0.0,0.0,0.0,0.0,0.0,0.0,0.0,0.0,0.0,0.0,0.0,2.4292,2.4623,2.513,0.0,0.0,0.0,0.0,0.0,0.0,0.0,0.0,0.0,0.0,0.0,0.0,0.0,0.0,0.0,0.0,0.0,0.0,3.149,3.1597,3.1711,3.1711,3.1483,3.1423,3.1711,3.1543,3.1543,3.1711,3.1711,3.1885,3.2233,3.2131,3.2372,3.2866,3.2946,3.3066,3.324,3.336,3.3414,3.3414,3.3414,3.3521,3.3694,3.3694,3.3975,3.4467,3.4536,3.4763,3.503,0.0,0.0,2.4263,2.4702,2.3783,2.3266,2.4059,2.3725,2.343,0.0,2.3942,2.4306,2.459,0.0,0.0,0.0,2.4334,2.4241,2.389,2.4011,2.4049,2.3947,2.4023,2.4065,2.4065,2.4146,2.4187,2.4174,2.3617,2.313,2.2777,2.2549,2.2225,2.1862,0.0,0.0,0.0,0.0,0.0,2.3083,2.3016,2.3079,0.0,0.0,2.3904,0.0,2.4458,2.444,2.3991,2.3884,2.322,0.0,0.0,0.0,0.0,0.0,2.1136,0.0,0.0,0.0,0.0,0.0,0.0,0.0,2.3875,2.3861,2.395,0.0,0.0,0.0,0.0,0.0,0.0,0.0,0.0,0.0,0.0,0.0,0.0,0.0,0.0,0.0,3.0702,3.0982,3.1122,3.1129,3.141,3.1617,3.1617,3.1076,3.1036,3.1604,3.1316,3.1316,3.1623,3.1623,3.1698,3.1764,3.1944,3.2091,3.2171,3.2652,3.2919,3.2986,3.3253,3.3387,3.3414,3.3414,3.3414,3.3414,3.3414,3.3601,3.3921,3.4215,3.4509,3.4855,0.0,0.0,2.4148,2.4036,2.411,2.4161,2.4122,2.4337,2.4422,2.4251,2.462,2.5188,2.5942,0.0,0.0,0.0,2.4777,2.4586,2.4948,2.4816,2.4924,2.5351,2.5208,2.5117,2.5117,2.4424,2.3826,2.3414,2.306,2.2812,2.2645,2.2585,2.2649,2.2809,2.2601,2.2536,0.0,0.0,0.0,2.3085,2.305,0.0,2.4023,2.3652,2.4026,2.4753,2.467,2.4847,2.5064,0.0,2.3527,2.2693,0.0,0.0,0.0,0.0,0.0,0.0,0.0,0.0,0.0,0.0,0.0,0.0,2.3174,2.3121,2.3335,0.0,0.0,0.0,0.0,0.0,0.0,0.0,0.0,0.0,0.0,0.0,0.0,0.0,0.0,0.0,3.0114,3.0568,3.0782,3.0541,3.0795,3.0969,3.0969,3.0849,3.0849,3.0955,3.0902,3.1022,3.1316,3.1316,3.1543,3.2011,3.1837,3.2045,3.25,3.2332,3.2532,3.2986,3.304,3.32,3.3414,3.3414,3.3414,3.3414,3.3414,3.3601,3.3921,3.4215,3.4509,3.4855,0.0,2.4012,2.3878,2.3925,2.4076,2.4182,2.4244,2.4438,2.4729,2.5019,2.6016,2.6803,2.7018,0.0,0.0,0.0,0.0,0.0,0.0,0.0,2.5425,2.5596,2.531,2.5102,2.4945,2.4712,2.4311,2.3741,2.3496,2.3282,2.3097,2.2612,2.2572,2.2841,2.2671,2.268,2.2871,0.0,2.3012,2.2893,2.3285,0.0,2.4279,2.4233,2.4649,2.5291,2.5291,2.5571,2.5772,2.4596,2.4102,0.0,0.0,2.2325,2.2151,0.0,2.1871,2.1957,0.0,0.0,0.0,2.2605,0.0,0.0,0.0,2.2786,2.2766,2.322,0.0,0.0,0.0,0.0,0.0,0.0,0.0,0.0,0.0,0.0,0.0,0.0,0.0,0.0,2.9455,2.9887,3.014,3.014,3.0274,3.0354,3.0354,3.0354,3.0421,3.0614,3.0627,3.0715,3.1009,3.1156,3.137,3.1664,3.1664,3.1872,3.2152,3.2104,3.2345,3.2822,3.2919,3.3146,3.3414,3.3414,3.3414,3.3414,3.3414,3.3507,3.3681,3.3988,3.4295,3.4589,0.0,0.0,2.361,2.3979,2.396,2.4082,2.4567,2.4746,2.5137,2.6089,2.7441,2.8249,0.0,0.0,0.0,0.0,0.0,0.0,0.0,0.0,0.0,2.5579,2.5314,2.5067,2.4845,2.4986,2.4794,2.4232,2.3856,2.3598,2.3497,2.2647,2.2463,2.2772,2.2649,2.2839,2.3208,0.0,0.0,2.2916,0.0,2.4087,2.4173,2.4841,2.5304,2.5651,2.6038,2.6279,2.6266,2.4917,0.0,2.4874,2.3509,2.3166,0.0,0.0,0.0,0.0,0.0,0.0,0.0,0.0,0.0,2.3108,0.0,0.0,0.0,2.2398,0.0,0.0,0.0,0.0,0.0,0.0,0.0,0.0,0.0,0.0,0.0,0.0,0.0,0.0,0.0,2.9032,2.9312,2.9713,2.9646,2.9633,2.974,2.9753,2.986,3.01,3.0212,3.0373,3.0621,3.0969,3.1169,3.1176,3.153,3.1711,3.1724,3.1904,3.2185,3.2527,3.2822,3.3066,3.3334,3.3387,3.3414,3.3414,3.3414,3.3414,3.3454,3.3774,3.4042,3.4282,2.358,2.3557,2.3567,2.3778,2.4124,2.4606,2.5445,2.5918,2.6602,2.7832,2.8164,0.0,0.0,0.0,0.0,0.0,0.0,0.0,2.834,0.0,0.0,2.6135,2.6142,2.6134,2.6098,2.5119,2.4396,2.4029,2.2929,2.2676,2.3142,2.2747,2.2893,2.3466,2.286,2.2955,2.3513,0.0,2.3079,0.0,2.4396,2.4137,0.0,2.4686,2.5462,2.6011,2.652,2.6747,2.6627,0.0,2.5237,2.4954,0.0,2.3514,0.0,0.0,0.0,0.0,0.0,0.0,0.0,0.0,2.3661,0.0,0.0,0.0,2.2773,2.2472,0.0,0.0,0.0,0.0,0.0,0.0,0.0,0.0,0.0,0.0,0.0,0.0,0.0,0.0,0.0,2.8072,2.8243,2.9028,2.8644,2.862,2.9068,2.9095,2.9108,2.9148,2.9446,2.9726,3.0007,3.0568,3.0969,3.1176,3.153,3.1711,3.1711,3.1751,3.1877,3.2171,3.2514,3.2808,3.3053,3.3307,3.3414,3.3414,3.3414,3.3414,3.3454,3.3774,3.3908,3.3975,2.3531,2.3602,0.0,2.4082,2.4512,2.5098,2.5977,2.7324,2.8367,2.8613,2.9531,0.0,0.0,0.0,0.0,0.0,0.0,2.7179,0.0,0.0,0.0,0.0,0.0,0.0,2.524,2.4572,2.4072,2.3773,2.3263,2.3152,2.3364,2.3055,2.3036,2.3293,2.2793,0.0,2.3284,0.0,2.3036,0.0,0.0,0.0,0.0,2.5518,2.6346,2.6787,2.6987,2.7081,2.6947,0.0,2.5798,0.0,0.0,0.0,0.0,0.0,0.0,0.0,0.0,0.0,0.0,0.0,0.0,0.0,0.0,0.0,2.2853,0.0,0.0,0.0,0.0,0.0,0.0,0.0,0.0,0.0,0.0,0.0,0.0,0.0,0.0,0.0,0.0,0.0,0.0,0.0,2.7642,2.7843,2.7721,2.8521,2.8921,2.8748,2.9072,2.9366,2.9659,3.0247,3.0688,3.0982,3.145,3.1711,3.1711,3.1711,3.1824,3.2118,3.246,3.2755,3.3,3.3293,3.3414,3.3414,3.3414,3.3414,3.3427,3.3561,3.3734,3.3908,2.3777,0.0,0.0,0.0,2.4887,2.5473,2.6588,2.8269,0.0,0.0,0.0,0.0,3.1353,3.107,0.0,0.0,0.0,2.7664,0.0,0.0,2.5549,0.0,0.0,0.0,0.0,0.0,2.3886,2.3581,2.3515,2.3448,2.3448,2.3199,2.3106,2.3089,2.3036,2.3178,2.3475,0.0,2.368,2.3829,2.4671,2.51,2.5398,2.6426,2.7001,2.7309,2.7309,2.7309,2.7175,2.6292,2.6185,0.0,2.5705,0.0,0.0,0.0,0.0,0.0,2.3861,0.0,0.0,0.0,0.0,0.0,0.0,0.0,0.0,0.0,0.0,0.0,0.0,0.0,0.0,0.0,0.0,0.0,0.0,0.0,0.0,0.0,0.0,0.0,0.0,0.0,0.0,2.6024,2.66,2.6934,2.6827,2.7801,2.8444,2.8484,2.8764,2.9018,2.9245,2.99,3.0426,3.0675,3.1263,3.1597,3.1711,3.1711,3.1831,3.2011,3.2433,3.2714,3.2942,3.3253,3.3414,3.3414,3.3414,3.3414,3.3414,3.3414,3.3561,3.3761,2.4375,2.4394,0.0,0.0,0.0,2.5669,0.0,0.0,0.0,0.0,0.0,0.0,0.0,0.0,0.0,0.0,0.0,2.6785,2.8743,0.0,2.3794,0.0,0.0,0.0,0.0,0.0,0.0,2.3589,2.3261,2.3106,2.3106,2.3106,2.3106,2.3118,2.3775,2.4166,2.4388,2.4983,2.5509,2.6025,2.6531,2.7241,2.7978,0.0,2.7001,2.7309,2.7309,0.0,0.0,2.6292,2.6185,0.0,0.0,0.0,0.0,0.0,0.0,0.0,0.0,0.0,0.0,0.0,0.0,0.0,0.0,0.0,2.322,0.0,0.0,0.0,0.0,0.0,0.0,0.0,0.0,0.0,0.0,0.0,0.0,0.0,0.0,0.0,0.0,0.0,0.0,2.5971,2.5503,2.5651,2.672,2.6827,2.7281,2.8179,2.8457,2.8631,2.8631,2.9499,3.0074,3.0426,3.0969,3.1396,3.1711,3.1711,3.1724,3.1764,3.234,3.2594,3.2648,3.3173,3.3414,3.3414,3.3414,3.3414,3.3414,3.3414,3.3414,3.3427,0.0,0.0,0.0,0.0,0.0,0.0,0.0,2.8806,0.0,0.0,0.0,0.0,0.0,0.0,3.1886,0.0,0.0,2.8893,2.9269,2.6926,0.0,0.0,0.0,2.5043,0.0,0.0,0.0,0.0,0.0,2.3417,2.3417,2.3199,2.3223,2.3457,2.3674,2.4004,0.0,0.0,0.0,0.0,0.0,2.7473,2.8301,0.0,0.0,2.7857,2.7629,2.7549,0.0,2.676,2.6466,2.6346,2.6159,2.5892,2.5665,2.5703,2.5665,0.0,0.0,0.0,2.6013,2.469,0.0,0.0,0.0,0.0,0.0,0.0,0.0,0.0,0.0,0.0,0.0,0.0,0.0,0.0,0.0,0.0,0.0,0.0,0.0,0.0,0.0,0.0,0.0,2.4222,2.4396,2.4756,2.5306,2.6253,2.7054,2.759,2.8085,2.8404,2.8604,2.9285,2.978,3.0074,3.0862,3.1276,3.1383,3.1583,3.1711,3.1738,3.2078,3.2251,3.2291,3.2879,3.3133,3.3146,3.3334,3.3414,3.3414,3.3414,3.3414,3.3414,2.6147,0.0,0.0,0.0,0.0,0.0,0.0,0.0,0.0,0.0,3.1184,0.0,3.2114,0.0,3.2196,0.0,3.0701,2.9868,2.8981,2.7704,0.0,2.6345,2.5844,0.0,0.0,0.0,0.0,0.0,0.0,2.3832,2.3595,2.3493,2.3574,2.3793,2.4235,2.4479,2.4624,2.5732,2.6028,0.0,0.0,2.7785,0.0,0.0,2.8276,2.8362,0.0,2.7629,2.7468,2.6987,2.6627,2.6386,2.6386,2.6132,2.5838,2.5971,2.5892,2.5785,2.5571,2.5999,0.0,2.5077,2.5077,0.0,2.3768,0.0,0.0,0.0,0.0,0.0,0.0,0.0,0.0,0.0,0.0,0.0,0.0,0.0,0.0,0.0,0.0,0.0,0.0,0.0,2.3487,2.318,2.342,2.3834,0.0,0.0,2.648,2.7094,2.7817,2.8339,2.8604,2.9085,2.9526,2.9927,3.0702,3.1129,3.1189,3.153,3.1711,3.1724,3.1971,3.2104,3.2144,3.2625,3.2929,3.3,3.3187,3.332,3.3414,3.3414,3.3414,3.34,0.0,0.0,0.0,0.0,2.7425,0.0,0.0,0.0,3.0463,0.0,3.2068,3.2645,3.3098,3.2483,3.2071,3.2083,3.1078,0.0,2.8174,2.7952,0.0,0.0,2.4819,2.4351,2.3072,0.0,0.0,0.0,0.0,0.0,2.3679,2.3972,2.4118,2.4192,2.5432,0.0,2.4986,2.7094,2.7536,2.6921,2.7846,2.8229,2.8317,2.8226,0.0,2.8699,2.7969,2.7522,2.7282,2.6947,2.6653,2.6413,2.6413,2.64,2.6333,2.6091,2.6212,2.6266,2.5705,2.5772,2.5891,2.5302,0.0,0.0,0.0,0.0,2.4559,0.0,0.0,0.0,0.0,0.0,0.0,0.0,0.0,0.0,0.0,0.0,0.0,0.0,0.0,0.0,0.0,2.3238,2.314,2.288,2.2565,2.2913,0.0,0.0,2.5598,2.668,2.7684,2.8312,2.8577,2.8841,2.9282,2.9873,3.0501,3.0942,3.1162,3.153,3.1711,3.1724,3.1957,3.2078,3.2104,3.2447,3.2741,3.2933,3.2946,3.3133,3.3374,3.3387,3.3387,3.3334,2.713,2.761,2.7986,0.0,2.7345,2.7502,0.0,0.0,0.0,0.0,3.195,3.2157,3.2177,3.2529,3.2573,3.2077,3.1652,0.0,0.0,0.0,0.0,2.7575,2.7105,2.625,2.492,2.5017,0.0,2.4689,0.0,0.0,2.4714,2.429,2.425,2.4514,2.5301,2.56,2.5719,2.7226,2.775,2.7663,2.8207,2.84,0.0,0.0,2.8493,2.8699,2.7969,2.7655,2.7549,2.7296,2.6961,2.6707,2.6707,2.656,2.6373,2.6346,2.6333,2.636,2.6213,2.6373,2.6466,2.5917,2.577,2.5596,0.0,0.0,0.0,0.0,0.0,0.0,0.0,0.0,0.0,0.0,0.0,0.0,0.0,0.0,0.0,0.0,0.0,0.0,2.2672,2.2458,2.2298,2.2251,2.2338,2.2552,0.0,0.0,0.0,2.5838,2.7121,2.7991,2.8299,2.8778,2.9068,2.9228,3.0301,3.0835,3.0929,3.1483,3.1711,3.1724,3.1744,3.1784,3.1797,3.2091,3.2265,3.2345,3.2621,3.2755,3.2848,3.3013,3.3009,3.2835,2.7531,0.0,0.0,2.7697,0.0,0.0,2.9067,0.0,0.0,3.0532,3.1136,0.0,3.1553,3.2489,3.2985,3.2754,3.2674,0.0,0.0,0.0,0.0,2.8369,2.7891,2.6994,2.5594,2.5359,0.0,2.4753,0.0,0.0,2.4867,2.4657,2.4646,2.4836,2.5461,2.5699,2.5777,2.6941,2.7725,2.8179,2.8318,0.0,0.0,2.8273,2.838,2.846,2.8075,2.7802,2.7669,2.7509,2.7255,2.6987,2.6867,2.6707,2.656,2.6426,2.6386,2.6413,2.6547,2.66,2.6613,2.6586,2.6372,2.6065,2.561,2.5491,2.5411,0.0,0.0,0.0,0.0,0.0,0.0,0.0,0.0,0.0,0.0,0.0,0.0,0.0,0.0,0.0,2.2432,2.2271,2.2124,2.1991,2.2258,0.0,0.0,0.0,0.0,2.5504,2.6934,2.7963,2.8524,2.9005,2.9299,2.9388,3.0354,3.0795,3.0808,3.1396,3.1711,3.1711,3.1711,3.1711,3.1724,3.1851,3.1984,3.2131,3.2474,3.2594,3.2607,3.2781,3.2741,3.2634,2.8004,0.0,0.0,0.0,0.0,0.0,0.0,2.8702,0.0,2.9805,0.0,3.1316,3.1522,3.2543,3.333,3.3487,0.0,3.2856,3.1352,3.1296,3.0439,2.8345,2.7957,2.7201,2.5879,2.5442,0.0,0.0,0.0,0.0,2.4734,2.4983,2.5086,2.5115,2.5681,0.0,0.0,2.6603,2.7501,2.8229,2.8192,2.8188,2.8234,2.8197,2.8179,2.8179,2.8179,2.8018,2.7762,2.7762,2.7562,2.7322,2.7014,2.6907,2.6827,2.6533,2.6466,2.6547,2.672,2.664,2.6613,2.7081,2.68,2.6373,2.6118,2.5812,2.5625,2.5625,2.5186,0.0,0.0,0.0,0.0,0.0,0.0,0.0,0.0,0.0,0.0,0.0,0.0,0.0,0.0,2.2392,2.2298,2.2004,0.0,0.0,0.0,0.0,0.0,2.5438,2.6841,0.0,2.8988,0.0,2.9593,2.9927,3.0515,3.0795,3.0808,3.1396,3.1711,3.1711,3.1711,3.1711,3.1711,3.1711,3.1824,3.2064,3.238,3.2487,3.2487,3.2567,3.2567,3.2581,0.0,0.0,0.0,0.0,0.0,2.9113,2.9582,2.9994,3.0835,3.2478,3.3227,3.3358,3.2748,3.3165,3.3182,3.2524,3.245,0.0,0.0,0.0,0.0,3.0164,2.902,2.8203,2.7737,2.5996,2.5473,0.0,0.0,0.0,2.5325,2.5188,2.5086,2.51,2.5447,0.0,2.5949,2.688,0.0,2.7012,2.7662,2.7906,2.7819,2.8114,2.8179,2.8179,2.8179,2.8152,2.8112,2.8112,2.7911,2.7615,2.7562,2.7375,2.7175,2.6827,2.6921,2.7055,2.6587,2.6787,2.7068,2.668,2.664,2.6667,2.6373,2.6266,2.6239,2.6239,2.6159,2.5959,2.5585,0.0,0.0,0.0,0.0,0.0,0.0,0.0,0.0,0.0,0.0,0.0,0.0,0.0,0.0,0.0,0.0,0.0,0.0,0.0,0.0,0.0,2.6333,0.0,0.0,0.0,2.9348,2.9927,3.0515,3.0795,3.0808,3.1396,3.1711,3.1711,3.1711,3.1711,3.1711,3.1711,3.1751,3.1791,3.1845,3.1872,3.1925,3.242,3.2433,3.2251,0.0,0.0,0.0,0.0,0.0,0.0,0.0,3.1183,0.0,3.2261,3.2553,3.2689,3.2656,3.3365,3.3657,3.3147,3.3054,3.2812,3.2149,3.1615,3.1004,3.0285,2.9306,0.0,2.8192,2.6466,2.5832,2.6387,0.0,0.0,0.0,0.0,2.5086,2.51,2.5217,2.5602,0.0,0.0,0.0,2.7127,2.7785,2.8011,2.7991,2.8125,2.8179,2.8179,2.8179,2.8179,2.8179,2.8179,2.8085,2.7938,2.7749,2.7602,2.7428,2.7134,2.7148,2.7282,2.7108,2.7161,2.7309,2.7336,2.7054,2.6827,2.6841,2.6613,2.6386,2.6386,2.6386,2.6213,2.5625,2.4569,0.0,0.0,0.0,0.0,0.0,0.0,0.0,0.0,0.0,0.0,0.0,0.0,0.0,0.0,0.0,0.0,0.0,0.0,0.0,0.0,0.0,0.0,0.0,0.0,0.0,2.9927,3.0515,3.0795,3.0808,3.1396,3.1711,3.1711,3.1711,3.1711,3.1711,3.1711,3.1757,3.1877,3.173,3.1805,3.1944,3.2433,3.2407,3.2185,0.0,2.7867,0.0,0.0,2.9298,0.0,3.0861,3.2118,3.2721,3.1901,3.1815,3.2004,3.2425,3.329,3.3705,3.3478,3.3445,3.299,3.1904,3.1544,3.0966,3.0034,2.9446,2.8885,2.8379,2.6934,2.6173,0.0,0.0,0.0,0.0,0.0,0.0,0.0,0.0,0.0,0.0,0.0,2.6844,2.7391,2.7888,2.8125,2.8179,2.8179,2.8179,2.8179,2.8179,2.8179,2.8179,2.8179,2.8179,2.8138,2.7911,2.7789,2.7736,2.7483,2.7443,2.751,2.7575,2.7482,2.7496,2.7898,2.7428,2.6961,2.7134,2.6814,2.6466,2.64,2.6386,2.6213,2.5625,2.4943,0.0,0.0,0.0,0.0,0.0,0.0,0.0,0.0,0.0,0.0,0.0,0.0,0.0,0.0,0.0,0.0,0.0,0.0,0.0,0.0,0.0,2.7108,2.8591,0.0,2.9593,0.0,3.0474,3.0702,3.0715,3.1296,3.1564,3.157,3.157,3.161,3.1711,3.1711,3.1797,3.1984,3.1757,3.181,3.2051,3.246,3.2447,3.2265,0.0,0.0,0.0,0.0,0.0,0.0,0.0,3.2644,3.3093,3.3434,3.3579,3.3536,3.314,3.2769,3.238,3.1948,3.1901,3.1732,3.1296,3.1002,3.0694,3.0386,2.9798,2.9285,2.8921,2.7495,2.653,0.0,0.0,0.0,0.0,0.0,0.0,0.0,0.0,0.0,0.0,2.6036,2.6647,2.6921,2.7495,2.7938,2.8179,2.8179,2.8179,2.8179,2.8179,2.8179,2.8179,2.8179,2.8179,2.8179,2.8152,2.8138,2.8085,2.7749,2.7884,2.7991,2.7483,2.7523,2.7602,2.7443,2.7322,2.7161,2.6921,2.6787,2.6707,2.644,2.6386,2.6213,2.5625,2.5451,2.513,0.0,0.0,0.0,0.0,0.0,0.0,0.0,0.0,0.0,0.0,0.0,0.0,0.0,0.0,0.0,0.0,0.0,0.0,2.4626,0.0,2.7108,2.8591,2.8881,0.0,3.036,3.0426,3.044,3.0453,3.0728,3.1022,3.1263,3.1263,3.1423,3.1711,3.1711,3.1724,3.1751,3.1724,3.1738,3.1831,3.2393,3.2581,3.2594,0.0,0.0,0.0,0.0,0.0,0.0,0.0,3.3122,3.3437,3.3594,3.364,3.3636,3.3619,3.3163,3.2644,3.2185,3.2138,3.1874,3.1249,3.0955,3.0662,3.0426,2.9838,2.9339,2.9001,2.8096,2.7216,0.0,0.0,0.0,0.0,0.0,0.0,0.0,0.0,2.529,2.5279,2.6283,2.6827,2.7134,2.7764,2.8072,2.8179,2.8179,2.8179,2.8179,2.8179,2.8179,2.8179,2.8179,2.8179,2.8179,2.8179,2.8179,2.8165,2.8045,2.8098,2.8138,2.7898,2.7924,2.7978,2.7857,2.7697,2.7495,2.7375,2.7215,2.7001,2.6707,2.6507,2.6319,2.6079,2.5745,2.5451,0.0,0.0,0.0,0.0,0.0,0.0,0.0,0.0,0.0,0.0,0.0,0.0,0.0,0.0,0.0,0.0,0.0,0.0,2.4572,0.0,2.6573,2.8043,2.8668,2.9348,3.01,3.0319,3.04,3.0413,3.0662,3.0955,3.1176,3.1176,3.1396,3.1711,3.1711,3.1711,3.1711,3.1711,3.1711,3.1764,3.2131,3.2447,3.2607,2.9938,0.0,2.9898,0.0,3.1386,3.187,3.3028,3.3365,3.3524,3.3604,3.3382,3.3266,3.3417,3.3022,3.2611,3.2232,3.2185,3.1921,3.1249,3.1036,3.0755,3.0426,3.0012,0.0,2.9179,2.8591,2.7808,2.6727,2.66,0.0,0.0,0.0,0.0,0.0,2.524,2.5592,2.5875,2.6652,2.7175,2.7603,2.8018,2.8179,2.8179,2.8179,2.8179,2.8179,2.8179,2.8179,2.8179,2.8179,2.8179,2.8179,2.8179,2.8179,2.8179,2.8179,2.8179,2.8179,2.8179,2.8125,2.8072,2.8165,2.7965,2.7696,2.7696,2.7535,2.7281,2.6894,2.6653,2.6493,2.64,2.6052,2.5812,2.5971,0.0,0.0,0.0,0.0,0.0,0.0,0.0,2.2178,2.2004,0.0,0.0,0.0,0.0,0.0,0.0,0.0,0.0,0.0,0.0,0.0,0.0,2.8548,2.9295,2.9913,3.0127,3.0234,3.0234,3.0528,3.0782,3.0982,3.1062,3.1263,3.1543,3.1543,3.1597,3.1711,3.1711,3.1711,3.1751,3.1998,3.2238,3.2474,2.9701,2.9734,3.0047,3.1537,3.1671,3.2074,3.3492,3.3273,3.3228,3.383,3.3022,3.2408,3.2408,3.1995,3.1711,3.1724,3.1724,3.1543,3.1203,3.1223,3.0969,0.0,0.0,3.0119,2.9486,2.8898,2.8163,2.7296,0.0,0.0,2.5212,0.0,2.5266,2.5203,2.5817,2.6212,2.6413,2.7041,2.7643,2.8179,2.8179,2.8179,2.8179,2.8179,2.8179,2.8179,2.8179,2.8179,2.8179,2.8179,2.8179,2.8179,2.8179,2.8179,2.8179,2.8179,2.8179,2.8179,2.8179,2.7965,2.7776,2.8112,2.7965,2.7696,2.7696,2.7696,2.7522,2.6907,2.6814,2.6734,2.644,2.6386,2.6279,2.6038,0.0,0.0,0.0,0.0,0.0,0.0,2.3046,2.2653,2.2077,0.0,0.0,0.0,0.0,0.0,0.0,0.0,0.0,2.4195,2.5382,0.0,2.7682,2.8548,2.9295,2.9913,2.9913,2.9927,2.9927,3.0234,3.0413,3.0426,3.0675,3.0969,3.1236,3.1236,3.1396,3.1711,3.1711,3.1711,3.1751,3.1998,3.2104,3.2144,3.0744,3.0984,3.1207,3.1613,3.1971,3.2237,3.2387,3.2616,3.2724,3.2594,3.2473,3.228,3.1948,3.1806,3.1711,0.0,3.1711,3.1543,0.0,3.1036,3.0755,3.0426,3.0167,2.9873,2.9486,2.9299,2.8657,2.7562,0.0,0.0,0.0,2.6342,2.6214,2.5763,2.6557,2.6934,2.7068,2.7657,2.8018,2.8179,2.8179,2.8179,2.8179,2.8179,2.8179,2.8179,2.8179,2.8179,2.8179,2.8179,2.8179,2.8179,2.8179,2.8179,2.8179,2.8179,2.8179,2.8179,2.8179,2.8112,2.8072,2.8165,2.8112,2.8045,2.8045,2.7843,2.7642,2.7455,2.7094,2.6747,2.6707,2.652,2.636,2.6305,0.0,0.0,0.0,0.0,0.0,0.0,2.3046,2.2746,0.0,2.2659,0.0,0.0,0.0,0.0,0.0,0.0,0.0,0.0,2.5932,0.0,2.8031,2.8898,2.9539,2.9913,2.9913,2.9913,2.9913,3.002,3.0167,3.0413,3.0507,3.0662,3.0942,3.1142,3.1276,3.1383,3.1597,3.1711,3.1724,3.1818,3.1931,3.2118,3.1177,3.1368,3.144,3.1335,3.1711,3.1941,3.1836,3.2125,3.2282,3.2063,3.2089,3.2043,3.1711,3.1711,0.0,3.1711,3.1711,3.1597,3.1396,3.1116,3.0822,3.0587,3.0234,2.994,2.9659,0.0,0.0,2.8203,2.8012,2.7527,2.6796,2.6877,2.6758,2.6519,2.7175,2.7469,2.7455,2.7978,2.8179,2.8179,2.8179,2.8179,2.8179,2.8179,2.8179,2.8179,2.8179,2.8179,2.8179,2.8179,2.8179,2.8179,2.8179,2.8179,2.8179,2.8179,2.8179,2.8179,2.8179,2.8179,2.8179,2.8179,2.8179,2.8179,2.8179,2.8045,2.7829,2.7722,2.7321,2.6961,2.68,2.6587,2.6386,2.6386,2.5985,2.5531,0.0,0.0,0.0,0.0,0.0,0.0,0.0,2.314,0.0,0.0,0.0,0.0,0.0,0.0,0.0,2.5224,2.6373,0.0,2.8353,2.9085,2.9633,2.9913,2.9913,2.9913,2.9913,3.0034,3.0181,3.04,3.04,3.0574,3.0808,3.0982,3.1129,3.1203,3.1557,3.1711,3.1711,3.1711,3.1831,3.1944,3.1124,3.099,0.0,0.0,3.1025,0.0,3.1656,3.1817,3.1877,3.1869,3.1766,3.1684,3.1657,3.1657,3.1657,3.1657,0.0,0.0,0.0,3.137,3.1076,3.0808,3.0547,3.0207,2.9927,2.9659,2.9352,2.9001,2.7883,2.7362,2.7362,2.7041,2.7068,2.7376,2.7602,2.7722,2.7749,2.8072,2.8179,2.8179,2.8179,2.8179,2.8179,2.8179,2.8179,2.8179,2.8179,2.8179,2.8179,2.8179,2.8179,2.8179,2.8179,2.8179,2.8179,2.8179,2.8179,2.8179,2.8179,2.8179,2.8179,2.8179,2.8179,2.8179,2.8179,2.8179,2.8112,2.7789,2.7536,2.7242,2.6907,2.6613,2.6413,2.636,2.6131,2.573,2.5104,0.0,0.0,0.0,0.0,0.0,0.0,2.3509,2.3701,0.0,0.0,0.0,0.0,0.0,2.5026,2.5585,2.6747,2.7776,2.8657,2.9232,2.9646,2.9913,2.9913,2.9913,2.9927,3.0266,3.04,3.0373,3.0413,3.056,3.0728,3.0768,3.0955,3.1223,3.1517,3.1698,3.1711,3.1711,3.1711,3.1711,0.0,0.0,3.0933,3.1049,3.1254,3.1249,3.0804,3.1314,3.1504,3.0878,3.1102,3.1249,3.1022,3.0996,3.0996,3.0996,3.141,3.1711,3.1711,3.1183,3.0862,3.0795,3.0301,2.998,2.9913,2.9847,2.9553,2.9001,2.8339,2.7978,2.7978,2.7911,2.7911,2.7978,2.8045,2.8085,2.8085,2.8152,2.8179,2.8179,2.8179,2.8179,2.8179,2.8179,2.8179,2.8179,2.8179,2.8179,2.8179,2.8179,2.8179,2.8179,2.8179,2.8179,2.8179,2.8179,2.8179,2.8179,2.8179,2.8179,2.8179,2.8179,2.8179,2.8179,2.8179,2.8179,2.8165,2.8098,2.7844,2.7509,2.7215,2.6921,2.6573,2.6172,2.5663,2.5077,2.4489,2.4102,0.0,0.0,2.3861,2.4048,2.4159,2.4142,2.4262,0.0,0.0,0.0,0.0,2.6119,2.66,2.652,2.7669,2.8604,2.9272,2.9633,2.9847,2.9913,2.9913,2.9913,2.9927,3.0266,3.0279,3.0047,3.0501,3.0474,3.0154,3.0608,3.0835,3.0929,3.1223,3.1463,3.1711,3.1711,3.1711,3.1711,3.0745,3.0879,3.0911,3.061,3.0975,3.1172,3.0512,3.1149,3.1457,3.0707,3.0942,3.1116,3.0822,3.0795,3.0849,3.0982,3.1156,3.1263,3.1263,3.0895,3.0641,3.0641,3.0154,2.9913,2.9913,2.978,2.9432,2.8801,2.8419,2.8179,2.8179,2.8179,2.8179,2.8179,2.8179,2.8179,2.8179,2.8179,2.8179,2.8179,2.8179,2.8179,2.8179,2.8179,2.8179,2.8179,2.8179,2.8179,2.8179,2.8179,2.8179,2.8179,2.8179,2.8179,2.8179,2.8179,2.8179,2.8179,2.8179,2.8179,2.8179,2.8179,2.8179,2.8179,2.8179,2.8179,2.8179,2.8179,2.7951,2.7602,2.7362,2.7028,2.6587,2.5865,2.5371,2.486,2.4102,2.391,0.0,2.3803,2.4262,2.4663,2.4823,2.5184,2.5304,2.509,0.0,0.0,2.5718,2.6827,2.7335,2.7028,2.831,2.9165,2.9486,2.9766,2.9913,2.9913,3.006,3.0114,3.0127,3.0421,3.0474,3.0327,3.0515,3.0421,3.014,3.0461,3.0641,3.0635,3.1062,3.133,3.149,3.1623,3.1711,3.1711,3.053,3.0772,3.0745,3.0172,3.0642,3.0996,3.0547,3.1136,3.137,3.0742,3.0915,3.0982,3.0688,3.0662,3.0755,3.0962,3.0808,3.0715,3.0849,3.0587,3.04,3.04,3.0074,2.99,2.9847,2.9526,2.9112,2.8604,2.8339,2.8179,2.8179,2.8179,2.8179,2.8179,2.8179,2.8179,2.8179,2.8179,2.8179,2.8179,2.8179,2.8179,2.8179,2.8179,2.8179,2.8179,2.8179,2.8179,2.8179,2.8179,2.8179,2.8179,2.8179,2.8179,2.8179,2.8179,2.8179,2.8179,2.8179,2.8219,2.8245,2.8192,2.8219,2.8245,2.8192,2.8219,2.8259,2.8259,2.8016,2.7749,2.7496,2.7121,2.66,2.5718,2.5304,2.482,2.3991,0.0,2.3928,2.4058,2.4807,2.5317,2.5436,2.6226,2.64,2.5583,2.6266,2.66,0.0,2.7255,2.7722,2.7523,2.8821,2.9499,2.9553,2.9793,2.9913,2.9913,3.0221,3.0386,3.0346,3.0635,3.0742,3.0648,3.0533,3.0426,3.0346,3.0386,3.0426,3.052,3.0969,3.1209,3.1316,3.1583,3.1711,3.1711,3.0393,3.0262,3.0298,3.0902,3.0929,3.0822,3.0742,3.1049,3.0996,3.0167,3.0314,3.0381,3.0087,3.0047,3.0074,3.0114,3.0074,3.0368,3.1116,3.0662,3.04,3.04,3.0074,2.9806,2.9553,2.9018,2.8698,2.8604,2.8339,2.8179,2.8179,2.8179,2.8179,2.8179,2.8179,2.8179,2.8179,2.8179,2.8179,2.8179,2.8179,2.8179,2.8179,2.8179,2.8179,2.8179,2.8179,2.8179,2.8179,2.8179,2.8179,2.8179,2.8179,2.8179,2.8179,2.8179,2.8179,2.8179,2.8179,2.8379,2.847,2.8245,2.8379,2.847,2.8245,2.8393,2.8537,2.8537,2.8497,2.8377,2.8112,2.7603,2.6948,2.6065,2.5476,2.4863,2.4222,0.0,2.4653,2.5184,2.5798,2.6386,2.6921,2.664,2.668,2.7255,2.6774,2.6747,2.7388,2.8083,2.8444,2.8404,2.9098,2.9606,2.9847,2.99,2.9913,2.9913,3.0221,3.0266,3.0007,3.0541,3.0528,3.0074,3.0528,3.0448,3.0007,3.0306,3.0547,3.0742,3.0822,3.1169,3.161,3.1698,3.1711,3.1711,3.0079,3.0261,3.0474,3.0715,3.0902,3.0969,3.0822,3.0902,3.0795,3.0234,3.0319,3.0293,2.9953,2.9913,3.0047,3.0368,3.01,3.0221,3.0942,3.0448,3.0114,3.0114,2.9833,2.9472,2.9018,2.8751,2.8524,2.8393,2.8259,2.8179,2.8179,2.8179,2.8179,2.8179,2.8179,2.8179,2.8179,2.8179,2.8179,2.8179,2.8179,2.8179,2.8179,2.8179,2.8179,2.8179,2.8179,2.8179,2.8179,2.8179,2.8179,2.8179,2.8179,2.8179,2.8179,2.8179,2.8179,2.8179,2.8179,2.8286,2.8406,2.8433,2.8419,2.8446,2.8577,2.8617,2.8644,2.8804,2.8801,2.8698,2.8272,2.7831,2.7215,2.6372,2.561,0.0,0.0,2.4796,2.509,2.5678,2.6547,2.7268,2.7737,2.7789,2.7923,2.8177,2.7816,2.7762,2.8163,2.8604,2.8911,2.9072,2.9486,2.978,2.9913,2.9913,2.9913,2.9913,3.0221,3.0368,3.0394,3.0501,3.0501,3.0381,3.0341,3.0167,2.9927,3.006,3.0301,3.0627,3.0728,3.1049,3.145,3.161,3.1711,3.1711,2.9967,3.0327,3.0568,3.052,3.0768,3.0942,3.0728,3.0688,3.0581,3.0346,3.0306,3.0167,2.994,2.998,3.0167,3.0555,3.0234,3.0181,3.0568,3.0167,2.9913,2.9913,2.9566,2.9165,2.8724,2.8577,2.8419,2.8179,2.8179,2.8179,2.8179,2.8179,2.8179,2.8179,2.8179,2.8179,2.8179,2.8179,2.8179,2.8179,2.8179,2.8179,2.8179,2.8179,2.8179,2.8179,2.8179,2.8179,2.8179,2.8179,2.8179,2.8179,2.8179,2.8179,2.8179,2.8179,2.8179,2.8179,2.8179,2.8286,2.8433,2.8564,2.8524,2.8607,2.8908,2.8881,2.8871,2.9055,2.9095,2.9005,2.858,2.8138,2.7535,2.672,0.0,0.0,0.0,2.5344,2.5663,2.6319,2.7255,2.7991,2.8353,2.8764,2.8908,2.8724,2.8711,2.8711,2.8711,2.8935,2.9285,2.9579,2.9806,2.9913,2.9913,2.998,3.002,3.002,3.0314,3.0587,3.0688,3.0507,3.0493,3.0568,3.0114,2.9913,2.9913,2.9913,3.0127,3.0533,3.0702,3.1009,3.1356,3.1631,3.1711,3.1711,3.0319,3.014,3.014,3.0675,3.0614,3.0467,3.044,3.044,3.0333,2.998,2.9953,2.994,2.9913,3.0167,3.0279,3.0007,3.0194,3.0234,2.9993,2.994,2.9913,2.9913,2.9335,2.9001,2.8961,2.8457,2.8205,2.8179,2.8179,2.8179,2.8179,2.8179,2.8179,2.8179,2.8179,2.8179,2.8179,2.8179,2.8179,2.8179,2.8179,2.8179,2.8179,2.8179,2.8179,2.8179,2.8179,2.8179,2.8179,2.8179,2.8179,2.8179,2.8179,2.8179,2.8179,2.8179,2.8179,2.8179,2.8179,2.8551,2.8868,2.8671,2.9005,2.9325,2.9041,2.9232,2.9419,2.9446,2.9446,2.9432,2.9392,2.8727,2.7951,2.7336,0.0,0.0,2.5971,2.6158,2.6613,2.7468,2.7924,2.8379,2.8868,2.8975,2.8988,2.8961,2.8961,2.8961,2.8961,2.9285,2.9579,2.9873,2.99,2.9913,2.9913,3.0194,3.0373,3.0373,3.0621,3.0635,3.044,3.0413,3.0221,2.998,2.994,2.9913,2.9913,2.9913,3.0247,3.0768,3.0782,3.1142,3.1684,3.1711,3.1711,3.1711,3.0034,3.014,3.0261,3.0533,3.048,3.04,3.04,3.0207,3.0047,2.9927,2.9913,2.9913,2.9913,3.002,3.0114,3.0181,3.0127,3.0114,3.0181,3.002,2.9753,2.9348,2.9121,2.8815,2.8484,2.8299,2.8179,2.8179,2.8179,2.8179,2.8179,2.8179,2.8179,2.8179,2.8179,2.8179,2.8179,2.8179,2.8179,2.8179,2.8179,2.8179,2.8179,2.8179,2.8179,2.8179,2.8179,2.8179,2.8179,2.8179,2.8179,2.8179,2.8179,2.8179,2.8179,2.8179,2.8446,2.8657,2.8484,2.8604,2.8831,2.9085,2.9179,2.9228,2.9482,2.9526,2.9539,2.9713,2.9753,2.97,2.9513,2.8911,2.8364,2.8136,0.0,2.6814,2.7296,2.7282,2.7468,2.8177,2.8684,2.9102,2.9285,2.9472,2.9535,2.9535,2.9535,2.9535,2.9535,2.9686,2.9806,2.9913,2.9913,2.9913,2.9913,3.0034,3.0181,3.04,3.052,3.0614,3.0621,3.0493,3.0346,3.0181,2.9993,2.9913,2.9913,2.9913,3.0261,3.0795,3.0795,3.1156,3.1711,3.1711,3.1711,3.1711,2.974,3.002,3.0221,3.0221,3.0221,3.0221,3.0221,3.0047,2.9913,2.9913,2.9913,2.9913,2.9913,3.0007,3.01,3.0207,3.0114,3.01,3.0207,3.0034,2.97,2.9161,2.9041,2.8804,2.8339,2.8232,2.8179,2.8179,2.8179,2.8179,2.8179,2.8179,2.8179,2.8179,2.8179,2.8179,2.8179,2.8179,2.8179,2.8179,2.8179,2.8179,2.8179,2.8179,2.8179,2.8179,2.8179,2.8179,2.8179,2.8179,2.8179,2.8179,2.8179,2.8259,2.8353,2.8446,2.8711,2.8975,2.8911,2.8885,2.8978,2.9379,2.9392,2.9375,2.982,2.9686,2.9566,2.986,2.9847,2.9753,2.9633,2.9219,2.8858,2.8764,2.7976,2.7602,2.8245,2.811,2.8203,2.8818,2.9245,2.9526,2.9606,2.9806,2.9913,2.9913,2.9913,2.9913,2.9913,2.9913,2.9913,2.9913,2.9913,2.9913,2.9913,3.0007,3.0207,3.0547,3.0547,3.0595,3.0782,3.0533,3.036,3.0207,3.0007,2.9913,2.9913,2.9913,3.0207,3.0662,3.0755,3.1089,3.1543,3.1684,3.1711,3.1711,2.9486,2.9713,2.9913,2.9913,2.9913,2.9913,2.9913,2.9913,2.9913,2.9913,2.9913,2.9913,2.9913,3.0181,3.0234,2.994,3.0181,3.0234,2.994,2.9913,2.978,2.9499,2.9205,2.8855,2.8604,2.8339,2.8179,2.8179,2.8179,2.8179,2.8179,2.8179,2.8179,2.8179,2.8179,2.8179,2.8179,2.8179,2.8179,2.8179,2.8179,2.8179,2.8179,2.8179,2.8179,2.8179,2.8179,2.8179,2.8179,2.8179,2.8179,2.8179,2.8192,2.8406,2.8671,2.8908,2.9001,2.9068,2.9406,2.9486,2.9486,2.9486,2.97,2.9913,2.9913,2.9686,2.9566,2.986,2.9686,2.9579,2.986,2.9673,2.9392,2.9041,2.8804,2.8604,2.8617,2.8617,2.8831,2.9419,2.9486,2.9606,2.9887,2.9913,2.9913,2.9913,2.9913,2.9913,2.9913,2.9913,2.9913,2.9913,2.9913,2.9913,2.9913,3.0207,3.0547,3.0795,3.0795,3.0795,3.0782,3.0533,3.0207,2.9913,2.9913,2.9913,2.9913,2.9913,3.0087,3.044,3.0675,3.0969,3.1263,3.1557,3.1711,3.1711,2.9713,2.986,2.9913,2.9913,2.9913,2.9913,2.9913,2.9913,2.9913,2.9913,2.9913,2.9913,2.9913,2.9993,3.0007,2.9927,2.9993,3.0007,2.9927,2.9913,2.978,2.9499,2.9205,2.8804,2.8339,2.8232,2.8179,2.8179,2.8179,2.8179,2.8179,2.8179,2.8179,2.8179,2.8179,2.8179,2.8179,2.8179,2.8179,2.8179,2.8179,2.8179,2.8179,2.8179,2.8179,2.8179,2.8179,2.8179,2.8179,2.8179,2.8179,2.8219,2.8404,2.8671,2.8881,2.8975,2.9282,2.9633,2.9513,2.9633,2.978,2.978,2.9847,2.9913,2.9913,2.9847,2.9806,2.99,2.9847,2.982,2.99,2.9673,2.9459,2.9366,2.9098,2.8935,2.9192,2.9219,2.9366,2.974,2.978,2.982,2.9913,2.9913,2.9913,2.9913,2.9913,2.9913,2.9913,2.9913,2.9913,2.9913,3.0114,3.0127,2.9913,3.0007,3.0301,3.0795,3.0795,3.0795,3.0795,3.0702,3.0394,2.9913,2.9913,2.9913,2.9913,2.9913,3.0087,3.044,3.0675,3.0969,3.1263,3.1557,3.1711,3.1711,2.9455,2.9753,2.9913,2.9913,2.9913,2.9913,2.9913,2.9913,2.9913,2.9913,2.9913,2.9913,2.9913,2.9913,2.9913,2.9913,2.9913,2.9913,2.9913,2.9913,2.978,2.9499,2.9312,2.8938,2.8379,2.8366,2.8312,2.8179,2.8179,2.8179,2.8179,2.8179,2.8179,2.8179,2.8179,2.8179,2.8179,2.8179,2.8179,2.8179,2.8179,2.8179,2.8179,2.8179,2.8179,2.8179,2.8179,2.8179,2.8179,2.8179,2.8179,2.8272,2.8778,2.8991,2.9041,2.9268,2.9588,2.9873,2.97,2.978,2.9913,2.9913,2.9913,2.9913,2.9913,2.982,2.978,2.9887,2.982,2.978,2.99,2.9766,2.9659,2.9659,2.9499,2.9446,2.9633,2.9659,2.9726,2.99,2.9913,2.9913,2.9913,2.9913,2.9913,2.9913,2.9913,2.9913,2.9913,2.9913,2.9967,3.0087,3.0306,3.0319,3.01,3.0087,3.0274,3.0621,3.0742,3.0728,3.0621,3.0742,3.0541,3.0087,2.9967,2.998,3.0087,2.9967,3.002,3.0221,3.0501,3.0728,3.0929,3.1343,3.149,3.1517,2.9028,2.9495,2.9913,2.9887,2.99,2.9913,2.9913,2.9913,2.9913,2.9913,2.9913,2.9913,2.9913,2.9913,2.9913,2.9913,2.9913,2.9913,2.9913,2.9913,2.9793,2.9539,2.9526,2.9259,2.8698,2.8631,2.8457,2.8179,2.8179,2.8179,2.8179,2.8179,2.8179,2.8179,2.8179,2.8179,2.8179,2.8179,2.8179,2.8179,2.8179,2.8179,2.8179,2.8179,2.8179,2.8179,2.8179,2.8179,2.8192,2.8219,2.8205,2.8339,2.9249,2.9285,2.9108,2.9695,2.9913,2.9913,2.9913,2.9913,2.9913,2.9913,2.9913,2.9913,2.9913,2.9713,2.9606,2.986,2.9713,2.9606,2.986,2.9913,2.9913,2.9913,2.9913,2.9913,2.9913,2.9913,2.9913,2.9913,2.9913,2.9913,2.9913,2.9913,2.9913,2.9913,2.9913,2.9927,2.9953,2.9927,3.0047,3.04,3.0426,3.0426,3.036,3.0426,3.044,3.0453,3.0662,3.0662,3.0453,3.0675,3.0621,3.0346,3.0034,3.0074,3.0346,3.0034,2.9913,2.994,3.0293,3.04,3.048,3.0982,3.1136,3.1236,2.9339,2.9673,2.9847,2.9619,2.9766,2.9913,2.9913,2.9913,2.9913,2.9913,2.9913,2.9913,2.9913,2.9913,2.9913,2.9913,2.9913,2.9913,2.9913,2.9913,2.9887,2.982,2.982,2.9659,2.9299,2.8845,2.8457,2.8179,2.8179,2.8179,2.8179,2.8179,2.8179,2.8179,2.8179,2.8179,2.8179,2.8179,2.8179,2.8179,2.8179,2.8179,2.8179,2.8179,2.8179,2.8179,2.8179,2.8179,2.8219,2.843,2.8379,2.8339,2.9249,2.9285,2.9108,2.9695,2.9913,2.9913,2.9913,2.9913,2.9913,2.9913,2.9913,2.9913,2.9913,2.9873,2.9847,2.99,2.986,2.9847,2.99,2.9913,2.9913,2.9913,2.9913,2.9913,2.9913,2.9913,2.9913,2.9913,2.9913,2.9913,2.9913,2.9913,2.9913,2.9913,2.9913,3.002,3.0293,3.0047,3.0047,3.04,3.0581,3.0474,3.002,3.0474,3.0702,3.0702,3.0768,3.0755,3.0702,3.0768,3.0515,3.0007,2.994,2.9953,3.0007,2.994,2.9913,2.994,3.0293,3.04,3.0453,3.0755,3.0889,3.0929,2.9219,2.9513,2.9713,2.9686,2.982,2.9913,2.9913,2.9913,2.9913,2.9913,2.9913,2.9913,2.9913,2.9913,2.9913,2.9913,2.9913,2.9913,2.9913,2.9913,2.9913,2.9913,2.9913,2.978,2.9486,2.9045,2.8671,2.8406,2.8259,2.8179,2.8179,2.8179,2.8179,2.8179,2.8179,2.8179,2.8179,2.8179,2.8179,2.8179,2.8179,2.8179,2.8179,2.8179,2.8179,2.8179,2.8179,2.8286,2.839,2.8551,2.8591,2.8684,2.9285,2.9379,2.9339,2.978,2.9913,2.9913,2.9913,2.9913,2.9913,2.9913,2.9913,2.9913,2.9913,2.9913,2.9913,2.9913,2.9913,2.9913,2.9913,2.9913,2.9913,2.9913,2.9913,2.9913,2.9913,2.9913,2.9913,2.9913,2.9913,2.9913,2.9913,2.9913,2.998,3.0114,3.0127,3.0261,3.0555,3.0287,3.0327,3.0755,3.0648,3.0501,3.0341,3.0501,3.0581,3.0581,3.0581,3.0515,3.0381,3.0528,3.0421,3.0114,2.998,2.9993,3.0114,2.998,2.9913,2.9927,3.0087,3.0154,3.0181,3.0474,3.0755,3.1022,2.8868,2.9205,2.9472,2.9659,2.974,2.978,2.9833,2.9847,2.986,2.9913,2.9913,2.9913,2.9913,2.9913,2.9913,2.9913,2.9913,2.9913,2.9913,2.9913,2.9913,2.9913,2.9913,2.9806,2.9566,2.9175,2.8855,2.8604,2.8339,2.8179,2.8179,2.8179,2.8179,2.8179,2.8179,2.8179,2.8179,2.8179,2.8179,2.8179,2.8179,2.8179,2.8179,2.8179,2.8179,2.8179,2.8179,2.8353,2.8537,2.8644,2.8804,2.8988,2.9432,2.9526,2.9539,2.9833,2.9913,2.9913,2.9913,2.9913,2.9913,2.9913,2.9913,2.9913,2.9913,2.9913,2.9913,2.9913,2.9913,2.9913,2.9913,2.9953,2.998,2.9927,2.9967,2.998,2.9927,2.9913,2.9913,2.9913,2.9913,2.9913,2.9913,2.9913,3.002,3.0306,3.0373,3.0507,3.0702,3.0533,3.0595,3.1129,3.0635,3.052,3.0715,3.052,3.0386,3.0333,3.0333,3.0181,3.0007,3.0247,3.0373,3.0319,3.002,3.006,3.0306,3.002,2.9913,2.9913,2.9913,2.9913,2.9953,3.0293,3.0702,3.1156,2.8657,2.8898,2.8988,2.8818,2.8991,2.9202,2.9499,2.9539,2.9633,2.9887,2.9913,2.9913,2.9913,2.9913,2.9913,2.9913,2.9913,2.9913,2.9913,2.9913,2.9913,2.9913,2.9913,2.99,2.986,2.9282,2.8855,2.8604,2.8339,2.8179,2.8179,2.8179,2.8179,2.8179,2.8179,2.8179,2.8179,2.8179,2.8179,2.8179,2.8179,2.8179,2.8179,2.8179,2.8179,2.8179,2.8179,2.8219,2.8326,2.8804,2.8801,2.8804,2.9606,2.9686,2.9539,2.9833,2.9913,2.9913,2.9913,2.9913,2.9913,2.9913,2.9913,2.9913,2.9913,2.9913,2.9913,2.9913,2.9913,2.9913,2.9913,3.0127,3.0266,2.9953,3.0127,3.0207,2.9953,2.9913,2.9913,2.9913,2.9913,2.9913,2.9913,2.9913,2.994,2.9967,3.0266,3.0426,3.0467,3.0426,3.056,3.0835,3.0574,3.0426,3.0467,3.0426,3.0234,2.998,2.998,3.0087,3.0346,3.0386,3.0221,2.998,2.994,2.994,2.9967,2.9927,2.9913,2.9913,2.9913,2.9913,2.9953,3.0293,3.0568,3.0849,2.8577,2.8801,2.9001,2.9085,2.9205,2.9392,2.9686,2.9593,2.9593,2.9873,2.9913,2.9913,2.9913,2.9913,2.9913,2.9913,2.9913,2.9913,2.9913,2.9913,2.9913,2.9913,2.9913,2.9847,2.9673,2.9215,2.8935,2.8801,2.8419,2.8179,2.8179,2.8179,2.8179,2.8179,2.8179,2.8179,2.8179,2.8179,2.8179,2.8179,2.8179,2.8179,2.8179,2.8179,2.8179,2.8179,2.8179,2.8406,2.8657,2.8764,2.9045,2.9379,2.9606,2.97,2.9753,2.9887,2.9913,2.9913,2.9913,2.9913,2.9913,2.9913,2.9913,2.9913,2.9913,2.9913,2.9913,2.9913,2.9913,2.9913,2.9913,3.002,3.0074,2.994,3.002,3.0074,2.994,2.9913,2.9913,2.9913,2.9913,2.9913,2.9913,2.9913,2.998,3.0154,3.0333,3.048,3.0641,3.0493,3.0533,3.0782,3.0354,3.0194,3.04,3.0194,3.0047,2.9913,2.9913,2.998,3.0114,3.0114,3.0047,2.9913,2.9913,2.9913,2.9913,2.9913,2.9913,2.9913,2.9913,2.9913,2.9927,3.006,3.0301,3.0614]},{"header":{"parameterUnit":"m.s-1","parameterCategory":1,"la1":30.6,"la2":28.766,"lo1":-90.7593,"lo2":-88.6598,"dy":0.0162,"dx":0.0183,"nx":116,"ny":114,"refTime":"2023-04-07T18:00:00:Z","depth":0,"parameterNumber":3,"parameterNumberName":"V-component_of_WINDS"},"data":[0.0,0.0,0.0,0.0,0.0,0.0,0.0,0.0,0.0,0.0,0.0,0.0,0.0,0.0,0.0,0.0,0.0,0.0,0.0,0.0,0.0,0.0,0.0,0.0,0.0,0.0,0.0,0.0,0.0,0.0,0.0,0.0,0.0,0.0,0.0,0.0,0.0,0.0,0.0,0.0,0.0,0.0,0.0,0.0,0.0,0.0,0.0,0.0,0.0,0.0,0.0,0.0,0.0,0.0,0.0,0.0,0.0,0.0,0.0,0.0,0.0,0.0,0.0,0.0,0.0,0.0,0.0,0.0,0.0,0.0,0.0,0.0,0.0,0.0,0.0,0.0,0.0,0.0,0.0,0.0,0.0,0.0,0.0,0.0,0.0,0.0,0.0,0.0,0.0,0.0,0.0,0.0,0.0,0.0,0.0,0.0,0.0,0.0,0.0,0.0,0.0,0.0,0.0,0.0,0.0,0.0,0.0,0.0,0.0,0.0,0.0,0.0,0.0,0.0,0.0,0.0,0.0,0.0,0.0,0.0,0.0,0.0,0.0,0.0,0.0,0.0,0.0,0.0,0.0,0.0,0.0,0.0,0.0,0.0,0.0,0.0,0.0,0.0,0.0,0.0,0.0,0.0,0.0,0.0,0.0,0.0,0.0,0.0,0.0,0.0,0.0,0.0,0.0,0.0,0.0,0.0,0.0,0.0,0.0,0.0,0.0,0.0,0.0,0.0,0.0,0.0,0.0,0.0,0.0,0.0,0.0,0.0,0.0,0.0,0.0,0.0,0.0,0.0,0.0,0.0,0.0,0.0,0.0,0.0,0.0,0.0,0.0,0.0,0.0,0.0,0.0,0.0,0.0,0.0,0.0,0.0,0.0,0.0,0.0,0.0,0.0,0.0,0.0,0.0,0.0,0.0,0.0,0.0,0.0,0.0,0.0,0.0,0.0,0.0,0.0,0.0,0.0,0.0,0.0,0.0,0.0,0.0,0.0,0.0,0.0,0.0,0.0,0.0,0.0,0.0,0.0,0.0,0.0,0.0,0.0,0.0,0.0,0.0,0.0,0.0,0.0,0.0,0.0,0.0,0.0,0.0,0.0,0.0,0.0,0.0,0.0,0.0,0.0,0.0,0.0,0.0,0.0,0.0,0.0,0.0,0.0,0.0,0.0,0.0,0.0,0.0,0.0,0.0,0.0,0.0,0.0,0.0,0.0,0.0,0.0,0.0,0.0,0.0,0.0,0.0,0.0,0.0,0.0,0.0,0.0,0.0,0.0,0.0,0.0,0.0,0.0,0.0,0.0,0.0,0.0,0.0,0.0,0.0,0.0,0.0,0.0,0.0,0.0,0.0,0.0,0.0,0.0,0.0,0.0,0.0,0.0,0.0,0.0,0.0,0.0,0.0,0.0,0.0,0.0,0.0,0.0,0.0,0.0,0.0,0.0,0.0,0.0,0.0,0.0,0.0,0.0,0.0,0.0,0.0,0.0,0.0,0.0,0.0,0.0,0.0,0.0,0.0,0.0,0.0,0.0,0.0,0.0,0.0,0.0,0.0,0.0,0.0,0.0,0.0,0.0,0.0,0.0,0.0,0.0,0.0,0.0,0.0,0.0,0.0,0.0,0.0,0.0,0.0,0.0,0.0,0.0,0.0,0.0,0.0,0.0,0.0,0.0,0.0,0.0,0.0,0.0,0.0,0.0,0.0,0.0,0.0,0.0,0.0,0.0,0.0,0.0,0.0,0.0,0.0,0.0,0.0,0.0,0.0,0.0,0.0,0.0,0.0,0.0,0.0,0.0,0.0,0.0,0.0,0.0,0.0,0.0,0.0,0.0,0.0,0.0,0.0,0.0,0.0,0.0,0.0,0.0,0.0,0.0,0.0,0.0,0.0,0.0,0.0,0.0,0.0,0.0,0.0,0.0,0.0,0.0,0.0,0.0,0.0,0.0,0.0,0.0,0.0,0.0,0.0,0.0,0.0,0.0,0.0,0.0,0.0,0.0,0.0,0.0,0.0,0.0,0.0,0.0,0.0,0.0,0.0,0.0,0.0,0.0,0.0,0.0,0.0,0.0,0.0,0.0,0.0,0.0,0.0,0.0,0.0,0.0,0.0,0.0,0.0,0.0,0.0,0.0,0.0,0.0,0.0,0.0,0.0,0.0,0.0,0.0,0.0,0.0,0.0,0.0,0.0,0.0,0.0,0.0,0.0,0.0,0.0,0.0,0.0,0.0,0.0,0.0,0.0,0.0,0.0,0.0,0.0,0.0,0.0,0.0,0.0,0.0,0.0,0.0,0.0,0.0,0.0,0.0,0.0,0.0,0.0,0.0,0.0,0.0,0.0,0.0,0.0,0.0,0.0,0.0,0.0,0.0,0.0,0.0,0.0,0.0,0.0,0.0,0.0,0.0,0.0,0.0,0.0,0.0,0.0,0.0,0.0,0.0,0.0,0.0,0.0,0.0,0.0,0.0,0.0,0.0,0.0,0.0,0.0,0.0,0.0,0.0,0.0,0.0,0.0,0.0,0.0,0.0,0.0,0.0,0.0,0.0,0.0,0.0,0.0,0.0,0.0,0.0,0.0,0.0,0.0,0.0,0.0,0.0,0.0,0.0,0.0,0.0,0.0,0.0,0.0,0.0,0.0,0.0,0.0,0.0,0.0,0.0,0.0,0.0,0.0,0.0,0.0,0.0,0.0,0.0,0.0,0.0,0.0,0.0,0.0,0.0,0.0,0.0,0.0,0.0,0.0,0.0,0.0,0.0,0.0,0.0,0.0,0.0,0.0,0.0,0.0,0.0,0.0,0.0,0.0,0.0,0.0,0.0,0.0,0.0,0.0,0.0,0.0,0.0,0.0,0.0,0.0,0.0,0.0,0.0,0.0,0.0,0.0,0.0,0.0,0.0,0.0,0.0,0.0,0.0,0.0,0.0,0.0,0.0,0.0,0.0,0.0,0.0,0.0,0.0,0.0,0.0,0.0,0.0,0.0,0.0,0.0,0.0,0.0,0.0,0.0,0.0,0.0,0.0,0.0,0.0,0.0,0.0,0.0,0.0,0.0,0.0,0.0,0.0,0.0,0.0,0.0,0.0,0.0,0.0,0.0,0.0,0.0,0.0,0.0,0.0,0.0,0.0,0.0,0.0,0.0,0.0,0.0,0.0,0.0,0.0,0.0,0.0,0.0,0.0,0.0,0.0,0.0,0.0,0.0,0.0,0.0,0.0,0.0,0.0,0.0,0.0,0.0,0.0,0.0,0.0,0.0,0.0,0.0,0.0,0.0,0.0,0.0,0.0,0.0,0.0,0.0,0.0,0.0,0.0,0.0,0.0,0.0,0.0,0.0,0.0,0.0,0.0,0.0,0.0,0.0,0.0,0.0,0.0,0.0,0.0,0.0,0.0,0.0,0.0,0.0,0.0,0.0,0.0,0.0,0.0,0.0,0.0,0.0,0.0,0.0,0.0,0.0,0.0,0.0,0.0,0.0,0.0,0.0,0.0,0.0,0.0,0.0,0.0,0.0,0.0,0.0,0.0,0.0,0.0,0.0,0.0,0.0,0.0,0.0,0.0,0.0,0.0,0.0,0.0,0.0,0.0,0.0,0.0,0.0,0.0,0.0,0.0,0.0,0.0,0.0,0.0,0.0,0.0,0.0,0.0,0.0,0.0,0.0,0.0,0.0,0.0,0.0,0.0,0.0,0.0,0.0,0.0,0.0,0.0,0.0,0.0,0.0,0.0,0.0,0.0,0.0,0.0,0.0,0.0,0.0,0.0,0.0,0.0,0.0,0.0,0.0,0.0,0.0,0.0,0.0,0.0,0.0,0.0,0.0,0.0,0.0,0.0,0.0,0.0,0.0,0.0,0.0,0.0,0.0,0.0,0.0,0.0,0.0,0.0,0.0,0.0,0.0,0.0,0.0,0.0,0.0,0.0,0.0,0.0,0.0,0.0,0.0,0.0,0.0,0.0,0.0,0.0,0.0,0.0,0.0,0.0,0.0,0.0,0.0,0.0,0.0,0.0,0.0,0.0,0.0,0.0,0.0,0.0,0.0,0.0,0.0,0.0,0.0,0.0,0.0,0.0,0.0,0.0,0.0,0.0,0.0,0.0,0.0,0.0,0.0,0.0,0.0,0.0,0.0,0.0,0.0,0.0,0.0,0.0,0.0,0.0,0.0,0.0,0.0,0.0,0.0,0.0,0.0,0.0,0.0,0.0,0.0,0.0,0.0,0.0,0.0,0.0,0.0,0.0,0.0,0.0,0.0,0.0,0.0,0.0,0.0,0.0,0.0,0.0,0.0,0.0,0.0,0.0,0.0,0.0,0.0,0.0,0.0,0.0,0.0,0.0,0.0,0.0,0.0,0.0,0.0,0.0,0.0,0.0,0.0,0.0,0.0,0.0,0.0,0.0,0.0,0.0,0.0,0.0,0.0,0.0,0.0,0.0,0.0,0.0,0.0,0.0,0.0,0.0,0.0,0.0,0.0,0.0,0.0,0.0,0.0,0.0,0.0,0.0,0.0,0.0,0.0,0.0,0.0,0.0,0.0,0.0,0.0,0.0,0.0,0.0,0.0,0.0,0.0,0.0,0.0,0.0,0.0,0.0,0.0,0.0,0.0,0.0,0.0,0.0,0.0,0.0,0.0,0.0,0.0,0.0,0.0,0.0,0.0,0.0,0.0,0.0,0.0,0.0,0.0,0.0,0.0,0.0,0.0,0.0,0.0,0.0,0.0,0.0,0.0,0.0,0.0,0.0,0.0,0.0,0.0,0.0,0.0,0.0,0.0,0.0,0.0,0.0,0.0,0.0,0.0,0.0,0.0,0.0,0.0,0.0,0.0,0.0,0.0,0.0,0.0,0.0,0.0,0.0,0.0,0.0,0.0,0.0,0.0,0.0,0.0,0.0,0.0,0.0,0.0,0.0,0.0,0.0,0.0,0.0,0.0,0.0,0.0,0.0,0.0,0.0,0.0,0.0,0.0,0.0,0.0,0.0,0.0,0.0,0.0,0.0,0.0,0.0,0.0,0.0,0.0,0.0,0.0,0.0,0.0,0.0,0.0,0.0,0.0,0.0,0.0,0.0,0.0,0.0,0.0,0.0,0.0,0.0,0.0,0.0,0.0,0.0,0.0,0.0,0.0,0.0,0.0,0.0,0.0,0.0,0.0,0.0,0.0,0.0,0.0,0.0,0.0,0.0,0.0,0.0,0.0,0.0,0.0,0.0,0.0,0.0,0.0,0.0,0.0,0.0,0.0,0.0,0.0,0.0,0.0,0.0,0.0,0.0,0.0,0.0,0.0,0.0,0.0,0.0,0.0,0.0,0.0,0.0,0.0,0.0,0.0,0.0,0.0,0.0,0.0,0.0,0.0,0.0,0.0,0.0,0.0,0.0,0.0,0.0,0.0,0.0,0.0,0.0,0.0,0.0,0.0,0.0,0.0,0.0,0.0,0.0,0.0,0.0,0.0,0.0,0.0,0.0,0.0,0.0,0.0,0.0,0.0,0.0,0.0,0.0,0.0,0.0,0.0,0.0,0.0,0.0,0.0,0.0,0.0,0.0,0.0,0.0,0.0,0.0,0.0,0.0,0.0,0.0,0.0,0.0,0.0,0.0,0.0,0.0,0.0,0.0,0.0,0.0,0.0,0.0,0.0,0.0,0.0,0.0,0.0,0.0,0.0,0.0,0.0,0.0,0.0,0.0,0.0,0.0,0.0,0.0,0.0,0.0,0.0,0.0,0.0,0.0,0.0,0.0,0.0,0.0,0.0,0.0,0.0,0.0,0.0,0.0,0.0,0.0,0.0,0.0,0.0,0.0,0.0,0.0,0.0,0.0,0.0,0.0,0.0,0.0,0.0,0.0,0.0,0.0,0.0,0.0,0.0,0.0,0.0,0.0,0.0,0.0,0.0,0.0,0.0,0.0,0.0,0.0,0.0,0.0,0.0,0.0,0.0,0.0,0.0,0.0,0.0,0.0,0.0,0.0,0.0,0.0,0.0,0.0,0.0,0.0,0.0,0.0,0.0,0.0,0.0,0.0,0.0,0.0,0.0,0.0,0.0,0.0,0.0,0.0,0.0,0.0,0.0,0.0,0.0,0.0,0.0,0.0,0.0,5.1991,0.0,0.0,0.0,0.0,0.0,0.0,0.0,0.0,0.0,0.0,0.0,0.0,0.0,0.0,0.0,0.0,0.0,0.0,0.0,0.0,0.0,0.0,0.0,0.0,0.0,0.0,0.0,0.0,0.0,0.0,0.0,0.0,0.0,0.0,0.0,0.0,0.0,0.0,3.5196,3.6355,3.7558,3.8681,3.8681,3.8898,3.9333,0.0,0.0,0.0,0.0,0.0,0.0,0.0,0.0,0.0,0.0,0.0,0.0,0.0,0.0,0.0,0.0,0.0,0.0,0.0,0.0,0.0,0.0,0.0,0.0,0.0,0.0,0.0,0.0,0.0,0.0,0.0,0.0,0.0,0.0,0.0,0.0,0.0,0.0,0.0,0.0,0.0,0.0,0.0,0.0,0.0,0.0,0.0,0.0,0.0,0.0,0.0,0.0,0.0,0.0,0.0,0.0,0.0,0.0,0.0,0.0,0.0,0.0,0.0,0.0,0.0,0.0,0.0,0.0,0.0,0.0,0.0,5.4275,0.0,0.0,0.0,0.0,0.0,0.0,0.0,0.0,0.0,0.0,0.0,0.0,0.0,0.0,0.0,0.0,0.0,0.0,0.0,0.0,0.0,0.0,0.0,3.3603,3.3683,3.3828,3.3828,3.3828,0.0,0.0,0.0,0.0,0.0,0.0,3.5776,3.5957,3.6065,3.621,3.811,3.9885,4.1569,4.1678,4.1895,4.2148,4.1171,0.0,0.0,0.0,0.0,0.0,0.0,0.0,0.0,0.0,0.0,0.0,0.0,0.0,0.0,0.0,0.0,0.0,0.0,0.0,0.0,0.0,0.0,0.0,0.0,0.0,0.0,0.0,0.0,0.0,0.0,0.0,0.0,0.0,0.0,0.0,0.0,0.0,0.0,0.0,0.0,0.0,0.0,0.0,0.0,0.0,0.0,0.0,0.0,0.0,0.0,0.0,0.0,0.0,0.0,0.0,0.0,0.0,0.0,0.0,0.0,0.0,0.0,0.0,6.3343,6.4934,6.5791,6.6623,6.7417,6.7907,6.3356,5.9913,5.7589,0.0,0.0,0.0,0.0,0.0,0.0,0.0,0.0,0.0,0.0,0.0,0.0,0.0,0.0,0.0,0.0,0.0,0.0,0.0,0.0,0.0,0.0,3.4436,3.4725,3.5413,3.5478,3.5478,3.5478,0.0,0.0,0.0,0.0,0.0,3.5804,3.6472,3.7168,3.7892,4.0827,4.3471,4.5733,4.6421,4.7518,4.8615,4.3706,4.2004,4.2747,0.0,0.0,0.0,0.0,0.0,0.0,0.0,0.0,0.0,0.0,0.0,0.0,0.0,0.0,0.0,0.0,0.0,0.0,0.0,0.0,0.0,0.0,0.0,0.0,0.0,0.0,0.0,0.0,0.0,0.0,0.0,0.0,0.0,0.0,0.0,0.0,0.0,0.0,0.0,0.0,0.0,4.9111,5.0165,0.0,0.0,0.0,0.0,0.0,0.0,0.0,0.0,0.0,0.0,0.0,0.0,0.0,6.13,6.2964,6.5277,6.6843,6.7637,7.0073,7.1651,7.2473,7.3266,7.4074,7.4845,7.4793,0.0,6.4058,6.2757,0.0,0.0,0.0,0.0,0.0,0.0,0.0,0.0,0.0,0.0,0.0,0.0,0.0,0.0,0.0,0.0,0.0,0.0,0.0,0.0,0.0,3.5424,3.6097,3.6507,3.7683,3.7876,3.6544,3.7305,0.0,0.0,0.0,3.6697,3.7123,3.7987,3.9682,4.2286,4.4976,4.7265,4.922,5.0017,5.0778,5.1332,4.8387,4.6287,4.4874,4.4449,0.0,0.0,0.0,0.0,0.0,0.0,0.0,0.0,0.0,0.0,0.0,0.0,0.0,0.0,0.0,0.0,0.0,0.0,0.0,0.0,0.0,0.0,0.0,0.0,0.0,0.0,0.0,0.0,0.0,0.0,0.0,0.0,0.0,0.0,0.0,0.0,0.0,0.0,0.0,5.0224,5.1497,5.079,5.2223,5.2636,0.0,0.0,0.0,0.0,0.0,0.0,0.0,0.0,0.0,6.3368,6.5338,6.737,6.9463,7.1431,7.2826,7.3656,7.5652,7.7268,7.8479,7.8846,7.969,8.0865,8.0775,7.8494,7.4515,7.0225,6.6797,6.4033,0.0,0.0,0.0,0.0,6.2835,6.5115,0.0,0.0,0.0,0.0,0.0,0.0,0.0,0.0,0.0,0.0,0.0,0.0,3.5851,3.7289,3.8389,3.8847,4.0455,4.0609,3.8687,3.9105,3.8952,3.8006,3.7555,3.7784,3.8762,4.0245,4.2859,4.6672,4.8999,5.114,5.3132,5.3711,5.4218,5.4581,5.3566,5.1104,4.7627,4.6214,4.471,4.3186,0.0,0.0,0.0,0.0,0.0,0.0,0.0,0.0,0.0,0.0,0.0,0.0,0.0,0.0,0.0,0.0,0.0,0.0,0.0,0.0,0.0,0.0,0.0,0.0,0.0,0.0,0.0,0.0,0.0,0.0,0.0,0.0,0.0,0.0,0.0,0.0,0.0,5.2481,5.392,5.1778,5.4706,5.5679,0.0,0.0,0.0,0.0,0.0,0.0,6.2462,6.4272,6.673,7.0036,7.1725,7.3744,7.6166,7.7781,7.8993,7.9784,8.1232,8.2663,8.4058,8.4058,8.4719,8.5783,8.5179,8.4499,8.323,7.6845,7.2571,6.9831,6.7178,6.6785,6.7559,6.6565,6.7856,7.0277,0.0,0.0,0.0,0.0,0.0,0.0,0.0,0.0,0.0,0.0,0.0,3.5941,3.8916,4.0564,4.2076,4.3616,4.3833,4.3618,4.2832,4.0654,3.9747,4.0488,3.8994,3.8834,4.0338,4.3425,4.6587,4.9858,5.2263,5.5015,5.8058,5.8094,5.8927,6.0326,5.8746,5.545,5.0861,4.7735,4.6272,4.5773,4.3258,0.0,0.0,0.0,0.0,0.0,0.0,0.0,0.0,0.0,0.0,0.0,0.0,0.0,0.0,0.0,0.0,0.0,0.0,0.0,0.0,0.0,0.0,0.0,0.0,0.0,0.0,0.0,0.0,0.0,0.0,0.0,0.0,0.0,0.0,0.0,0.0,0.0,0.0,5.4253,5.8105,0.0,0.0,0.0,0.0,6.1153,6.4084,6.6599,6.8371,7.0621,7.3355,7.6702,7.8442,8.0461,8.2904,8.4499,8.571,8.65,8.7362,8.8243,8.9033,8.9033,8.9069,8.9143,8.9106,8.8629,8.7399,8.0954,7.7283,7.5374,7.218,7.1923,7.3126,7.1659,7.3151,7.5912,0.0,0.0,0.0,0.0,0.0,0.0,0.0,0.0,3.3984,3.4774,3.617,3.815,4.082,4.3756,4.6224,4.7892,4.8937,4.876,4.6944,4.5134,4.3539,4.2305,4.1213,4.1877,4.4487,4.7083,5.0231,5.4023,5.6887,5.9361,6.1498,6.2005,6.2549,6.3056,6.1412,5.9783,5.7864,5.3132,5.0112,4.8299,4.5792,4.4367,0.0,0.0,0.0,0.0,0.0,0.0,0.0,0.0,0.0,0.0,0.0,0.0,0.0,0.0,0.0,0.0,0.0,0.0,0.0,0.0,0.0,0.0,0.0,0.0,0.0,0.0,0.0,0.0,0.0,0.0,0.0,0.0,0.0,0.0,0.0,0.0,0.0,6.1336,6.5494,0.0,6.405,6.543,6.6873,6.7784,7.0731,7.3245,7.505,7.7368,7.9936,8.27,8.4352,8.5857,8.7234,8.8867,8.9564,8.9344,9.0188,9.0996,9.1748,9.1216,9.1253,9.1767,9.1179,9.0776,9.0298,8.7472,8.4132,8.0482,7.7268,7.6644,7.7503,7.6447,7.8116,8.0782,0.0,0.0,0.0,0.0,0.0,0.0,0.0,0.0,3.4133,3.5212,3.7428,4.0112,4.3315,4.7153,5.0243,5.2162,5.2727,5.1966,4.9636,4.7211,4.5106,4.3269,4.3706,4.5326,4.8234,5.1327,5.4762,5.8558,6.1163,6.3237,6.483,6.5084,6.5337,6.5555,6.42,6.3476,6.2969,5.8999,5.5075,5.1295,4.8512,4.7024,4.6074,0.0,0.0,0.0,0.0,0.0,0.0,0.0,0.0,0.0,0.0,0.0,0.0,0.0,0.0,0.0,0.0,0.0,0.0,0.0,0.0,0.0,0.0,0.0,0.0,0.0,0.0,0.0,0.0,0.0,0.0,0.0,0.0,0.0,0.0,0.0,6.5902,6.6736,7.104,7.2893,7.0297,7.1735,7.3325,7.45,7.7227,7.9611,8.1342,8.3471,8.56,8.7766,8.9417,9.0519,9.1051,9.2391,9.2794,9.2262,9.2537,9.3272,9.4299,9.3455,9.3529,9.4299,9.3712,9.3308,9.2978,9.217,8.9821,8.6354,8.3104,8.2333,8.292,8.215,8.3361,8.5363,0.0,0.0,0.0,0.0,0.0,0.0,0.0,3.3873,3.4519,3.6134,3.8436,4.1776,4.6604,5.0655,5.4006,5.6415,5.4997,5.3053,5.0848,4.6742,4.4126,4.3577,4.6365,4.9038,5.1488,5.6102,6.0086,6.3323,6.4903,6.6496,6.8002,6.7257,6.7293,6.8002,6.7221,6.6424,6.5663,6.483,6.0883,5.4919,5.1428,5.0002,4.9513,0.0,0.0,0.0,0.0,0.0,0.0,0.0,0.0,0.0,0.0,0.0,0.0,0.0,0.0,0.0,0.0,0.0,0.0,0.0,0.0,0.0,0.0,0.0,0.0,0.0,0.0,0.0,0.0,0.0,0.0,0.0,0.0,0.0,5.9371,6.545,6.9989,7.0242,7.4488,7.6794,7.5236,7.7447,7.9617,8.1158,8.3508,8.5563,8.7088,8.8702,9.028,9.1877,9.3529,9.4373,9.4336,9.518,9.5565,9.5528,9.4813,9.5254,9.6759,9.5969,9.6061,9.6759,9.6759,9.6318,9.5566,9.4759,9.3932,9.2941,8.9601,8.8793,8.9363,8.861,8.883,8.9473,0.0,0.0,0.0,0.0,0.0,0.0,0.0,3.4468,3.5484,3.7028,4.0818,4.494,4.9165,5.3638,5.7048,5.8872,5.7012,5.4957,5.3255,4.8822,4.6401,4.6805,4.9195,5.2453,5.6515,5.9509,6.2571,6.5808,6.6858,6.7873,6.8866,6.8648,6.8648,6.8829,6.8017,6.7873,6.8105,6.6714,6.4794,6.2223,5.7197,5.4134,5.228,0.0,0.0,0.0,0.0,0.0,0.0,0.0,0.0,0.0,0.0,0.0,0.0,0.0,0.0,0.0,0.0,0.0,0.0,0.0,0.0,0.0,0.0,0.0,0.0,0.0,0.0,0.0,0.0,0.0,0.0,0.0,0.0,6.5467,6.5986,7.0791,7.5382,7.8453,8.2047,8.4101,8.3661,8.5859,8.7234,8.7088,8.9363,9.0959,9.14,9.2959,9.4024,9.4483,9.6061,9.6355,9.518,9.7126,9.753,9.6392,9.7346,9.8007,9.8447,9.8208,9.8227,9.8447,9.8447,9.83,9.8043,9.7236,9.6759,9.6208,9.2317,9.0959,9.1106,9.0886,9.0959,9.1216,0.0,0.0,0.0,0.0,0.0,0.0,0.0,3.4705,3.5883,3.7396,4.2059,4.6645,5.0297,5.4627,5.7775,5.9067,5.6912,5.456,5.2396,4.9358,4.8502,5.0498,5.3487,5.6976,6.0953,6.3627,6.6098,6.8307,6.943,7.0227,7.0677,7.0677,7.0858,7.1132,7.0335,7.0046,7.0097,6.9176,6.8126,6.6801,6.3164,5.9905,5.6861,5.3819,5.2013,5.0911,4.8972,4.8172,4.7747,4.574,0.0,0.0,0.0,0.0,0.0,0.0,0.0,0.0,0.0,0.0,0.0,0.0,0.0,0.0,0.0,0.0,0.0,0.0,0.0,0.0,0.0,0.0,0.0,0.0,6.7697,7.2078,7.4499,7.7028,8.0124,8.4242,8.6958,8.8793,8.9473,9.1143,9.2097,9.1987,9.3602,9.4593,9.4593,9.5804,9.6502,9.6502,9.808,9.83,9.6996,9.8741,9.9145,9.8227,9.8814,9.9622,10.0613,10.0283,10.0503,0.0,10.109,10.0907,10.0613,10.0198,9.9833,0.0,0.0,0.0,0.0,0.0,9.3768,9.3529,0.0,0.0,0.0,0.0,0.0,0.0,0.0,3.4825,3.6085,3.7558,4.2668,4.7298,5.0335,5.4252,5.7005,5.7776,5.5485,5.2784,5.0039,4.9322,5.0692,5.4385,5.8312,6.1789,6.4764,6.7794,6.9771,7.0677,7.2038,7.2746,7.2818,7.2927,7.3289,7.3868,7.3325,7.2617,7.1784,7.1857,7.1024,6.9518,6.8814,6.6083,6.2073,5.8933,5.798,5.7872,5.4902,5.2397,5.0341,4.9505,0.0,0.0,0.0,0.0,0.0,0.0,0.0,0.0,0.0,0.0,0.0,0.0,0.0,0.0,0.0,0.0,0.0,0.0,0.0,0.0,0.0,0.0,0.0,0.0,7.3575,7.8589,8.3271,8.3728,8.4829,8.8206,9.0115,9.173,9.3235,9.4263,9.5107,9.5713,9.6502,9.7016,9.7089,0.0,0.0,0.0,0.0,10.0099,9.9402,10.0209,10.0503,10.0393,9.9916,10.0796,10.2815,10.2101,10.2599,10.388,10.39,10.3497,10.2779,10.3018,10.2693,10.1699,9.8398,9.7072,9.6998,9.7152,9.6786,9.6216,0.0,0.0,0.0,0.0,0.0,0.0,0.0,3.5383,3.6966,3.8464,4.359,4.7804,4.962,5.3419,5.6161,5.6957,5.4269,5.1969,5.0748,5.1741,5.4054,5.7884,6.1146,6.4344,6.7404,6.9231,7.0858,7.2255,7.2529,7.3036,7.3687,7.4339,7.4375,7.3941,7.508,7.479,7.347,7.4122,7.347,7.2001,7.1857,6.9016,6.4758,6.3448,6.1938,6.0232,5.8388,5.7973,5.7883,5.5214,5.4466,5.4291,5.2193,5.0201,0.0,0.0,0.0,0.0,0.0,0.0,0.0,0.0,0.0,0.0,0.0,0.0,0.0,0.0,0.0,0.0,0.0,0.0,0.0,7.2049,7.7949,8.3234,8.6775,8.9968,9.173,9.1179,9.3161,9.4684,9.4978,9.6942,9.797,9.7475,9.819,9.8924,9.9585,9.9732,0.0,10.1714,10.1384,10.122,10.098,10.1788,10.1898,10.1294,0.0,0.0,10.3717,10.3696,10.3807,10.39,10.4101,10.4007,10.3717,10.3701,10.3611,10.3301,10.0794,9.9338,9.8631,9.867,9.8676,9.8498,0.0,0.0,0.0,0.0,0.0,0.0,0.0,3.5551,3.7111,3.8203,4.295,4.6502,4.7114,5.014,5.1905,5.144,5.0031,4.9996,5.1962,5.4344,5.7774,6.2408,6.5267,6.7982,7.0644,7.135,7.2273,7.3434,7.3736,7.4303,7.5116,7.51,7.5317,7.5696,7.5696,7.5244,7.4556,7.537,7.479,7.3325,7.3724,7.2239,6.9575,6.7981,6.671,6.5553,6.4126,6.3171,6.2329,6.0434,5.9315,5.8375,5.6516,5.4768,5.3058,0.0,0.0,0.0,0.0,0.0,0.0,0.0,0.0,0.0,0.0,0.0,0.0,0.0,0.0,6.2567,0.0,0.0,7.4382,7.8479,8.3234,8.7675,9.1363,9.3969,9.5034,9.3786,9.5804,9.729,9.729,9.8778,9.9548,9.9108,10.0209,10.109,10.1494,10.1898,10.2485,10.3293,10.2889,10.2705,10.2705,10.3109,10.3109,10.2705,10.3513,10.41,10.4504,10.4607,10.4901,10.5185,10.5289,10.5305,10.5185,10.5289,10.5094,10.4599,10.3586,10.2308,10.1,10.1586,10.1392,10.0697,0.0,0.0,0.0,0.0,0.0,0.0,0.0,3.5396,3.6797,3.7667,4.1651,4.4363,4.4359,4.6458,4.7324,4.5943,4.6605,4.903,5.3502,5.6919,6.1141,6.6486,6.8911,7.1092,7.3155,7.3058,7.3457,7.4385,7.484,7.557,7.6546,7.6022,7.6476,7.7688,7.6548,7.5932,7.5824,7.6311,7.5768,7.4629,7.5136,7.4955,7.4122,7.2074,7.1112,7.0687,6.9461,6.7247,6.4925,6.4753,6.3125,6.1041,6.0201,5.9259,5.7904,5.5071,5.4777,0.0,0.0,0.0,0.0,0.0,0.0,0.0,0.0,0.0,5.9786,6.1189,6.4938,6.8738,7.127,7.5616,8.0167,8.4389,8.8152,9.1748,9.5034,9.6612,9.7163,9.6519,9.8154,9.9328,9.9328,10.0209,10.0796,10.0796,10.2008,10.2795,10.3089,10.3513,10.388,10.4394,10.41,10.399,10.41,10.41,10.41,10.41,10.4284,10.4687,10.5385,10.5395,10.582,10.6497,10.6497,10.6381,10.6397,10.6601,10.628,10.5695,10.5901,10.5006,10.3505,10.4091,10.3509,10.2421,0.0,0.0,0.0,0.0,0.0,0.0,0.0,0.0,3.6165,3.7593,4.0126,4.2049,4.2709,4.4279,4.5273,4.5226,4.8357,5.1865,5.5365,5.9104,6.3442,6.8394,7.0138,7.1677,7.3155,7.3058,7.3647,7.4988,7.5063,7.586,7.7362,7.8014,7.8376,7.8593,7.9136,7.8992,7.8267,7.7615,7.7253,7.7036,7.642,7.6094,7.5913,7.4955,7.3687,7.2311,7.1467,6.8892,6.6032,6.7173,6.612,6.4358,6.4729,6.4245,6.2807,5.8901,5.6348,5.4229,5.1643,5.1321,5.2406,5.5166,5.6088,5.7679,0.0,0.0,6.6193,6.9284,7.2063,7.4705,7.7194,8.1012,8.4462,8.639,9.1289,9.4979,9.5456,9.8043,9.9842,9.9769,9.9989,10.0209,10.0209,10.1494,10.2412,10.2412,10.2595,10.3293,10.4798,10.3586,10.3806,10.6103,10.4687,10.421,10.5018,10.5018,10.5018,10.4997,10.5789,10.6213,10.6287,10.6608,10.6706,10.6705,10.6705,10.6601,10.6397,10.6397,10.6381,10.6313,10.6709,10.6599,10.599,10.4204,10.3495,10.3314,0.0,0.0,0.0,0.0,0.0,0.0,0.0,0.0,0.0,3.6946,3.8813,4.017,4.0429,4.1043,4.1895,4.2959,4.5742,4.9629,5.4822,5.9214,6.3796,6.8678,7.0847,7.2402,7.3478,7.3258,7.3837,7.5394,7.5199,7.5932,7.7507,7.7362,7.7796,7.8666,7.8086,7.8122,7.8666,7.7833,7.7507,7.7507,7.7651,7.7144,7.6239,7.5913,7.3957,7.1168,6.9937,6.7882,0.0,6.588,6.5315,6.475,6.5931,6.5163,6.3297,6.0646,5.8609,5.6903,5.5504,5.5842,5.7034,0.0,6.1542,6.4558,6.7863,7.0006,7.1983,7.4301,7.7839,8.1012,8.2517,8.6481,9.0078,0.0,9.474,9.7219,9.8154,9.9438,10.0099,9.9659,10.0393,10.12,10.1677,10.2301,10.2889,10.3403,10.3806,10.4614,10.5789,10.5678,10.6009,10.7095,10.6397,10.5972,10.5899,10.5899,10.6082,10.6596,10.689,10.7195,10.7284,10.7398,10.7316,10.6894,10.6808,10.6705,10.6601,10.6402,10.6497,10.6606,10.6898,10.6982,10.6911,10.6012,10.5386,10.4908,0.0,0.0,0.0,0.0,0.0,0.0,0.0,0.0,0.0,0.0,3.7674,3.8579,3.8998,3.9028,3.965,4.1126,4.3384,4.7221,5.3236,5.8012,6.2903,6.8017,7.055,7.2408,7.3612,7.3608,7.4259,7.5603,7.558,7.6264,7.7623,7.7042,7.7589,7.9025,7.7447,7.7594,7.8955,7.7941,7.7507,7.7543,7.8122,7.7253,7.5587,7.5152,7.2509,6.8938,6.8047,6.596,6.3582,6.303,6.2717,6.2803,6.4422,6.4093,6.2817,6.1194,5.9589,5.8298,5.8037,0.0,0.0,6.3339,6.7033,7.0816,7.3003,7.5284,7.7436,7.9271,8.2977,8.6261,8.7306,9.0922,9.4226,9.5602,9.7383,9.8961,10.0099,10.0283,9.9916,9.8888,9.9585,10.0706,10.1898,10.2595,10.3403,10.421,10.4798,10.5495,10.6397,10.6706,10.7021,10.7315,10.7284,10.7106,10.6518,10.6801,10.7211,10.7799,10.7899,10.8004,10.7992,10.7996,10.7992,10.7801,10.7418,10.7185,10.7087,10.6701,10.6705,10.6776,10.7019,10.7198,10.7279,10.7375,10.6875,10.5985,0.0,0.0,0.0,0.0,0.0,0.0,0.0,0.0,0.0,0.0,0.0,0.0,0.0,3.912,3.9454,4.0353,4.2587,4.5989,5.0791,5.5564,6.0698,6.6329,6.8898,7.1213,7.347,7.4275,7.4951,7.5603,7.6368,7.717,7.7972,7.7972,7.8764,8.0086,7.8467,7.8547,7.9752,7.8159,7.7507,7.7507,7.7543,7.613,7.3796,7.2239,6.9176,6.5859,6.6649,6.3425,5.8816,5.8917,5.8457,5.8081,5.9708,6.1238,6.2126,6.0499,5.8458,5.6847,5.7591,0.0,6.3857,6.8641,7.1725,7.4588,7.8641,8.0791,8.2663,8.5049,8.7545,8.9767,9.1418,9.3749,9.5694,9.6539,9.8668,10.0209,10.0283,10.0283,9.9695,9.8117,9.7273,9.7787,0.0,10.2485,10.421,10.4997,10.5107,10.5495,10.6397,10.5605,10.5605,10.6376,10.6585,10.6689,10.6689,10.7709,10.818,10.8217,10.8803,10.8787,10.8201,10.8402,10.8889,10.9687,10.8778,10.8288,10.8107,10.7294,10.6998,10.6982,10.72,10.7316,10.7298,10.7492,10.7086,10.6195,0.0,0.0,0.0,0.0,0.0,0.0,0.0,0.0,0.0,0.0,0.0,0.0,0.0,0.0,0.0,0.0,4.1527,4.4071,4.842,5.3091,5.7522,6.1605,6.5597,6.8321,6.9636,7.0893,7.2123,7.3401,7.4076,7.4832,7.5619,7.5523,7.6025,7.6977,7.5756,7.6362,7.8195,7.6584,7.6239,7.6601,7.5551,7.4385,7.3014,7.0329,6.6867,6.3198,0.0,5.8068,5.5329,5.4937,5.4984,5.559,5.7729,5.847,5.8263,5.6724,5.7269,5.888,0.0,0.0,6.8935,7.4368,7.7561,8.0388,8.4462,8.6224,8.7344,8.872,8.8881,8.9005,8.9557,9.1157,9.3069,9.4945,9.8084,10.0503,10.098,10.2008,10.131,9.7566,9.8741,0.0,0.0,0.0,0.0,10.5715,10.6486,10.711,10.7918,10.7697,10.7918,10.882,10.7819,10.7605,10.8098,10.7998,10.8508,10.9577,11.0101,11.0302,11.0088,10.9988,11.0009,10.9979,10.9206,10.8699,10.8308,10.7411,10.7099,10.7181,10.7296,10.7394,10.7492,10.7587,10.7383,10.7012,0.0,0.0,0.0,0.0,0.0,0.0,0.0,0.0,0.0,0.0,0.0,0.0,0.0,0.0,0.0,0.0,0.0,4.2386,4.5551,4.9408,5.3118,5.6669,6.0318,6.2904,6.4301,6.5495,6.6786,6.8129,6.9358,7.0332,7.1077,7.1908,7.2641,7.3234,7.2626,7.349,7.5261,7.3957,7.3394,7.3261,7.194,7.0147,6.8029,6.5398,6.1974,0.0,5.5425,5.3507,5.212,5.1426,5.1735,5.2769,5.4585,5.5665,5.6221,5.6128,5.8609,6.2205,0.0,7.027,7.4845,8.0241,8.3214,8.56,8.8757,8.9895,9.0262,9.017,8.9247,8.8301,8.7713,8.8483,9.0084,9.2792,9.5551,9.8249,10.0706,10.1514,10.0796,9.83,9.937,10.009,0.0,0.0,0.0,10.5678,10.6706,10.7425,10.7881,10.8211,10.8505,10.871,10.8297,10.8193,10.8487,10.8782,10.9686,11.1014,11.1195,11.1395,11.1615,11.1413,11.1095,11.0718,11.0013,10.9303,10.86,10.761,10.7316,10.7376,10.7376,10.751,10.7606,10.7606,10.7383,10.7105,0.0,0.0,0.0,0.0,0.0,0.0,0.0,0.0,0.0,0.0,0.0,0.0,0.0,0.0,0.0,0.0,0.0,0.0,4.2376,4.4802,4.7857,5.1686,5.35,5.5518,5.7914,5.8708,5.9557,6.0415,6.2671,6.4112,6.4788,6.7216,6.8517,6.8793,6.8939,6.9695,7.0858,7.0113,6.8977,6.7579,6.6693,6.3712,5.961,5.7996,5.4995,5.1602,5.0879,5.008,4.9295,4.8598,4.904,5.0051,5.0912,5.3335,5.6393,5.8866,6.2462,6.6719,7.1615,7.646,8.1321,8.6114,8.8445,8.9987,9.1583,9.1932,9.1418,8.9693,8.8659,8.7548,0.0,0.0,8.7016,9.0179,9.1652,9.4283,9.9678,9.9218,9.8834,0.0,0.0,0.0,0.0,0.0,0.0,10.5023,0.0,10.6507,10.6507,10.7299,10.741,10.6712,10.8298,10.8809,10.8093,11.0077,11.1411,11.221,11.2006,11.2309,11.2789,11.251,11.2189,11.188,11.102,10.9995,10.8814,10.7997,10.7606,10.7606,10.7606,10.7606,10.7606,10.7606,10.7086,10.6511,0.0,0.0,0.0,0.0,0.0,0.0,0.0,0.0,0.0,0.0,0.0,0.0,0.0,0.0,0.0,0.0,0.0,0.0,4.0733,4.3053,4.5142,4.6848,5.0014,5.2363,5.3629,5.5577,5.6929,5.7774,5.8963,5.9636,5.9821,6.0372,6.0676,6.0746,6.0644,6.1428,6.2817,6.2003,6.1812,6.1802,5.9801,5.8737,5.8044,5.5231,5.3581,5.2616,5.1255,5.0248,4.9534,4.9334,5.14,5.43,5.5721,5.796,6.0688,0.0,0.0,7.1872,7.7341,8.1929,8.6187,9.0482,9.184,9.2427,9.3418,9.2739,9.1271,8.8977,8.5655,8.2465,0.0,0.0,0.0,8.7545,9.2794,0.0,10.1604,10.3293,0.0,10.1603,0.0,10.2812,10.2988,10.32,0.0,0.0,10.7504,10.7804,10.8414,10.9408,11.0082,11.0509,10.9702,10.9797,11.0925,11.1601,11.2102,11.2412,11.2698,11.2888,11.3019,11.2886,11.2475,11.1786,11.0694,10.9693,10.8814,10.7997,10.7606,10.7606,10.7606,10.7606,10.7606,10.7606,10.7514,10.7309,0.0,0.0,0.0,0.0,0.0,0.0,0.0,0.0,0.0,0.0,0.0,0.0,0.0,0.0,0.0,0.0,0.0,0.0,0.0,4.0857,4.1994,4.2863,4.4966,4.6497,4.7389,4.8631,4.9833,5.0999,5.1767,5.2496,5.314,5.3814,5.4298,5.4588,5.4859,5.587,5.7243,5.6442,5.6174,0.0,0.0,5.3186,5.2914,5.1083,5.0474,5.0452,4.9911,5.0325,5.14,5.2795,5.4777,5.7127,5.9844,6.2585,6.5595,6.9559,0.0,7.7855,8.281,8.6848,9.0408,9.3418,9.3896,9.3382,9.2391,9.1179,8.9105,8.4913,8.1518,0.0,7.5549,7.7127,0.0,0.0,0.0,0.0,10.1898,10.3586,10.4419,0.0,10.5196,0.0,10.6001,10.6012,10.6807,0.0,10.8296,10.8298,10.9197,11.0113,11.0692,11.0787,11.0602,11.1013,11.1983,11.2107,11.2409,11.2805,11.3188,11.339,11.3608,11.3706,11.3195,11.2081,0.0,10.9896,10.8814,10.8093,10.7814,10.7588,10.7814,10.7814,10.7606,10.7606,10.7606,10.7624,0.0,0.0,0.0,0.0,0.0,0.0,0.0,0.0,0.0,0.0,3.3884,0.0,0.0,0.0,0.0,0.0,0.0,0.0,0.0,0.0,3.9217,3.9926,4.0022,4.042,4.1211,4.1191,4.1863,4.3252,4.391,4.4921,4.632,4.7845,4.8886,4.9523,5.0357,5.1469,5.2722,5.1894,5.1254,5.0644,4.9145,4.7897,4.6929,0.0,4.7076,4.7369,4.8186,5.0352,5.3434,5.7226,5.8767,5.9832,6.3809,6.7357,7.094,7.5799,7.9874,8.3728,8.7876,9.1253,9.3932,9.5418,9.5034,9.3455,9.0169,8.828,8.5541,7.9563,0.0,7.4764,7.187,7.3568,7.7029,8.2023,0.0,9.3161,10.1808,10.2485,10.379,10.8291,10.7799,10.7713,10.9416,10.8788,10.8816,11.0,10.8989,10.8697,10.9609,11.0405,11.0479,10.9797,11.1202,11.2099,11.221,11.221,11.2495,11.3113,11.3519,11.3893,11.4192,11.4502,11.38,11.231,0.0,0.0,10.889,10.8391,10.7982,10.7607,10.8018,10.8019,10.7606,10.7606,10.7606,10.7492,0.0,0.0,0.0,0.0,0.0,0.0,0.0,0.0,0.0,0.0,3.4135,3.3785,0.0,0.0,0.0,0.0,0.0,0.0,0.0,0.0,0.0,3.9113,3.9649,4.0016,4.0225,4.0744,4.1176,4.1441,4.1562,4.2103,4.3009,4.3381,4.3957,4.4692,4.4856,4.5434,4.625,4.5453,4.5425,4.5838,4.4893,4.5168,4.6104,4.6104,0.0,0.0,4.9087,5.0188,5.2234,5.8767,6.2768,6.5595,6.8995,7.2701,7.6812,8.1709,8.4572,8.7215,9.195,9.463,9.6282,9.7236,9.5878,9.3492,9.0348,8.5795,0.0,0.0,7.3038,7.0344,6.9684,7.2198,7.6744,8.4031,8.9306,9.5346,10.3492,10.5201,10.6402,0.0,0.0,0.0,0.0,0.0,0.0,0.0,0.0,11.029,11.07,11.1603,11.2112,11.2001,11.2186,11.2392,11.2375,11.2375,11.2707,11.3113,11.3519,11.3893,11.4213,11.36,11.2985,11.2292,0.0,0.0,10.889,10.8391,10.7982,10.7607,10.8018,10.8019,10.7606,10.7606,10.751,10.7298,0.0,0.0,0.0,0.0,0.0,0.0,0.0,3.3749,3.43,3.5105,3.4834,3.4481,3.4286,3.5038,3.5718,0.0,0.0,0.0,0.0,0.0,0.0,0.0,3.8906,3.9094,3.9097,3.9856,4.0406,4.0853,0.0,4.1237,4.2056,4.166,4.1933,4.2665,4.2522,4.2969,4.3816,4.3315,4.3397,4.3934,4.4024,4.4784,4.5893,0.0,0.0,0.0,4.927,5.0665,5.2774,5.7519,6.2952,6.8678,7.4037,7.8222,8.195,8.6407,8.8904,9.0959,9.4556,9.6722,9.7933,9.7897,9.5437,9.1619,8.6447,0.0,0.0,0.0,6.913,6.7922,6.7516,7.0806,7.5332,8.0766,8.529,9.1416,10.0806,10.1995,10.3884,10.8986,0.0,0.0,0.0,0.0,0.0,0.0,0.0,11.2094,11.2385,11.2915,11.3012,11.2509,11.2509,11.2509,11.2509,11.269,11.3018,11.3391,11.361,11.3893,11.4213,11.3493,11.2709,11.1898,11.0498,0.0,10.8717,10.8481,10.809,10.7719,10.8198,10.8109,10.7606,10.751,10.7394,10.7314,0.0,0.0,0.0,0.0,0.0,0.0,0.0,3.3829,3.453,3.5525,3.5414,3.5164,3.4927,3.5449,3.5841,0.0,0.0,0.0,0.0,0.0,0.0,0.0,0.0,0.0,0.0,0.0,0.0,0.0,0.0,0.0,0.0,0.0,0.0,0.0,0.0,4.218,4.2899,4.2768,4.2844,0.0,0.0,4.4994,0.0,0.0,0.0,0.0,0.0,5.1032,5.3361,5.6113,6.1728,6.8788,7.5594,8.0645,8.4792,8.85,9.0996,9.3198,9.6171,9.8007,9.8961,9.83,9.4703,8.9581,8.2985,7.803,0.0,6.7087,6.6026,6.6162,6.6148,6.9407,7.3377,7.74,8.1028,8.7047,9.7595,9.8877,10.1497,0.0,11.0215,0.0,0.0,0.0,0.0,0.0,0.0,0.0,11.3988,11.3921,11.3495,11.2806,11.2806,11.2695,11.2509,11.2903,11.3318,11.3699,11.3787,11.4014,11.4312,11.3416,11.2627,11.1599,11.0402,0.0,0.0,10.8608,10.8218,10.7682,10.8307,10.8108,10.7492,10.7279,10.7181,10.7101,0.0,0.0,0.0,0.0,0.0,0.0,0.0,3.3753,3.4408,3.5936,3.5492,3.5021,3.4973,3.5046,3.5134,0.0,0.0,0.0,0.0,0.0,0.0,0.0,0.0,0.0,0.0,0.0,0.0,0.0,0.0,0.0,0.0,0.0,0.0,0.0,0.0,0.0,0.0,4.2577,0.0,0.0,0.0,0.0,0.0,0.0,0.0,0.0,0.0,5.0665,5.2721,5.6565,6.0346,6.4261,6.9376,7.624,8.292,8.549,0.0,0.0,9.6502,9.8447,9.9071,9.9035,9.4281,8.8369,8.3555,0.0,6.9918,6.6714,6.4823,6.4407,6.6593,6.7963,7.0972,7.7791,8.1046,8.6316,9.6748,10.0078,10.3606,10.9297,0.0,0.0,0.0,0.0,0.0,0.0,0.0,0.0,11.4523,11.4079,11.3792,11.3718,11.3718,11.3289,11.2509,11.2903,11.3318,11.3699,11.401,11.44,11.4705,11.2993,11.2192,11.1877,0.0,0.0,0.0,10.8298,10.8019,10.7607,10.7908,10.7702,10.7279,10.7118,10.6918,10.6677,0.0,0.0,0.0,0.0,0.0,0.0,3.1938,3.294,3.4129,3.5734,3.5587,3.5291,3.531,3.5187,3.5125,3.5065,0.0,0.0,0.0,0.0,0.0,0.0,0.0,0.0,0.0,0.0,0.0,0.0,0.0,0.0,0.0,0.0,0.0,0.0,0.0,0.0,0.0,0.0,0.0,0.0,0.0,0.0,0.0,0.0,0.0,0.0,0.0,0.0,5.214,5.3827,5.7189,6.0811,6.1802,6.732,7.4933,8.2223,8.6297,8.9693,9.5584,9.8484,9.9585,9.8631,9.3492,8.7211,8.1639,0.0,6.8618,6.5292,6.3945,6.4035,6.6059,6.7109,6.9286,7.4115,7.5639,7.932,8.8233,9.1115,9.5405,10.3921,10.6413,0.0,0.0,0.0,0.0,0.0,0.0,0.0,11.4519,11.4598,11.4312,11.3792,11.3309,11.302,11.2902,11.33,11.3588,11.3993,11.4108,11.4112,11.3794,11.229,11.1127,11.0177,0.0,0.0,0.0,10.7907,10.7814,10.7509,10.7814,10.7606,10.7099,10.6898,10.6792,10.6689,0.0,0.0,0.0,0.0,0.0,3.016,3.1446,3.2553,3.3756,3.5124,3.5163,3.5099,3.5099,3.4753,3.4569,3.4727,3.5432,0.0,0.0,0.0,0.0,0.0,0.0,0.0,0.0,0.0,0.0,0.0,0.0,0.0,0.0,0.0,0.0,0.0,0.0,0.0,0.0,0.0,0.0,0.0,0.0,0.0,0.0,0.0,0.0,0.0,0.0,0.0,0.0,0.0,0.0,5.7581,5.6444,5.9942,6.6512,7.6812,8.2537,8.6958,9.3198,9.7016,9.8961,9.7823,9.2501,8.6012,0.0,0.0,6.7872,6.4339,6.3719,6.4278,6.577,6.6748,6.8271,7.1329,7.2303,7.5343,8.2853,8.5558,9.0049,0.0,0.0,0.0,0.0,0.0,0.0,0.0,0.0,0.0,0.0,11.4524,11.4424,11.3792,11.3178,11.2987,11.3113,11.3501,11.3687,11.3798,11.4012,11.3586,11.2693,11.1409,11.0094,10.8906,0.0,0.0,0.0,10.7378,10.7491,10.72,10.7491,10.7316,10.6877,10.6689,10.6606,10.6585,0.0,0.0,0.0,0.0,0.0,0.0,3.2534,3.2904,3.3189,3.4027,3.413,3.413,3.413,3.3386,3.3258,3.4027,3.4921,0.0,0.0,0.0,0.0,0.0,0.0,0.0,0.0,0.0,3.6866,3.7629,3.7567,0.0,0.0,0.0,0.0,0.0,0.0,0.0,0.0,0.0,0.0,0.0,0.0,0.0,0.0,0.0,0.0,0.0,0.0,0.0,0.0,0.0,0.0,0.0,0.0,5.5574,5.8829,6.8554,7.657,8.3471,8.9124,9.3639,9.6722,9.6722,9.1324,8.4784,7.9974,7.3406,6.7407,6.4273,6.4222,6.5039,6.5931,6.6748,6.8085,7.0536,7.287,7.6667,8.3161,8.6733,9.0494,0.0,0.0,0.0,0.0,0.0,0.0,0.0,0.0,0.0,0.0,11.3708,11.3792,11.3792,11.3792,11.3583,11.3094,11.3501,11.3516,11.3006,11.3613,11.3,11.1403,11.0217,10.9319,0.0,0.0,0.0,0.0,10.6881,10.7019,10.6998,10.6812,10.671,10.6689,10.6497,10.6397,10.6397,0.0,0.0,0.0,0.0,0.0,0.0,0.0,3.18,3.2421,3.3179,3.3283,3.35,3.4052,3.3386,3.3214,3.4017,3.4357,0.0,0.0,0.0,0.0,0.0,0.0,0.0,0.0,0.0,3.6474,3.6716,3.7247,3.7787,3.8347,3.934,0.0,0.0,0.0,0.0,0.0,0.0,0.0,0.0,0.0,0.0,0.0,0.0,0.0,0.0,0.0,0.0,0.0,0.0,0.0,0.0,0.0,0.0,0.0,6.1471,6.8591,7.5747,8.0298,8.4549,8.7463,8.636,8.2796,7.8551,7.4931,7.0676,6.674,6.4162,6.4222,6.5076,6.5931,6.6748,6.842,7.1843,7.3532,7.5847,8.0037,0.0,0.0,9.5995,10.3396,0.0,0.0,0.0,0.0,0.0,0.0,0.0,0.0,11.2898,11.3198,11.3792,11.3178,11.3087,11.3501,11.299,11.2997,11.3399,11.2616,11.1683,11.0715,10.9505,0.0,0.0,0.0,0.0,0.0,10.6792,10.6812,10.6812,10.6693,10.6606,10.6518,10.6397,10.6376,10.6376,0.0,0.0,0.0,0.0,0.0,0.0,0.0,3.1434,3.1863,3.2307,3.2366,3.2685,3.3441,3.2857,3.2685,3.3486,3.3594,0.0,0.0,0.0,0.0,0.0,0.0,0.0,0.0,3.6284,3.6456,3.6732,3.726,3.7778,3.8364,3.925,3.9457,3.902,0.0,0.0,0.0,0.0,0.0,0.0,0.0,0.0,4.3657,0.0,0.0,0.0,0.0,0.0,0.0,0.0,0.0,0.0,0.0,0.0,0.0,0.0,6.1618,6.7637,7.3802,7.8541,8.1544,8.0845,7.8129,0.0,7.2408,6.916,6.6207,6.4422,6.4445,6.5151,6.6339,6.6711,6.7937,7.13,7.2714,7.4594,7.813,0.0,0.0,9.6601,0.0,0.0,0.0,0.0,0.0,0.0,0.0,0.0,0.0,11.2526,11.2695,11.3309,11.2806,11.2698,11.3193,11.2509,11.2192,11.2288,11.131,11.0198,10.9211,10.8479,0.0,0.0,0.0,0.0,0.0,10.6585,10.6585,10.6585,10.6585,10.6502,10.6376,10.6376,10.6376,10.6376,0.0,0.0,0.0,0.0,0.0,0.0,0.0,3.1589,3.1551,3.149,3.1481,3.1754,3.2447,3.19,3.1788,3.2447,0.0,0.0,0.0,0.0,0.0,0.0,0.0,0.0,3.6273,3.6273,3.6687,3.7502,3.7502,3.8261,3.9687,3.9767,3.9767,3.9652,3.9043,3.8744,3.8778,0.0,0.0,0.0,0.0,0.0,0.0,0.0,0.0,0.0,0.0,0.0,0.0,0.0,0.0,0.0,0.0,0.0,0.0,0.0,0.0,0.0,0.0,7.4368,7.7577,7.8326,7.589,7.2931,7.1454,6.8444,0.0,6.4891,6.4816,6.5373,6.7008,6.6748,6.7082,6.9546,7.1022,7.3328,7.7499,8.3799,0.0,0.0,10.2914,0.0,0.0,0.0,0.0,0.0,0.0,0.0,0.0,11.2203,11.2303,11.2303,11.2286,11.2399,11.2387,11.1824,11.1111,11.0215,10.9789,10.8709,10.7203,10.7389,0.0,0.0,0.0,0.0,0.0,10.6324,10.6302,10.6376,10.6302,10.6302,10.6376,10.6376,10.6376,10.6376,0.0,0.0,0.0,0.0,0.0,0.0,0.0,0.0,0.0,0.0,3.1481,3.1583,3.172,3.1583,3.1583,0.0,0.0,0.0,0.0,0.0,0.0,0.0,0.0,0.0,3.6202,3.6202,3.658,3.7347,3.7458,3.8205,3.957,4.0284,4.0238,3.9582,4.0111,4.002,3.9468,3.9848,0.0,0.0,0.0,0.0,0.0,0.0,0.0,0.0,4.6725,4.8069,0.0,0.0,0.0,0.0,0.0,0.0,0.0,0.0,5.5684,5.774,6.0603,0.0,6.5799,6.6098,6.5952,6.5718,0.0,6.5219,6.4749,6.4025,6.4891,6.6116,6.7119,6.7639,6.8902,7.1817,7.299,7.4778,7.8278,0.0,0.0,10.2991,0.0,0.0,0.0,0.0,0.0,0.0,0.0,0.0,0.0,11.0704,11.0397,11.0397,11.0593,11.1206,11.2405,11.1081,11.0323,11.0177,10.9016,10.8,10.7203,10.68,0.0,0.0,0.0,0.0,10.6302,10.4981,10.5201,10.6302,10.5715,10.5789,10.6376,10.6376,10.6376,10.6376,0.0,0.0,0.0,0.0,0.0,0.0,0.0,0.0,0.0,0.0,0.0,3.1356,3.1356,3.1356,0.0,0.0,0.0,0.0,0.0,0.0,0.0,0.0,0.0,3.6129,3.6129,3.6182,3.6687,3.7717,3.7896,3.8849,4.0468,4.0753,4.0777,4.0542,4.041,4.0124,3.9733,4.0089,4.0503,0.0,4.2171,0.0,0.0,0.0,0.0,0.0,4.6565,4.7688,0.0,5.0231,5.141,5.2451,0.0,0.0,0.0,0.0,5.5023,5.5941,5.7116,5.9512,6.1838,6.2349,6.2521,6.2801,6.3754,6.3715,6.3627,6.3982,6.4819,6.5856,6.7082,6.7676,6.8878,7.1647,7.3239,7.6478,0.0,0.0,9.8716,10.5188,0.0,0.0,0.0,0.0,0.0,0.0,0.0,0.0,0.0,10.9895,10.9818,10.9818,10.9588,11.0088,11.1316,11.0207,10.9497,10.9203,10.8185,10.738,10.6783,10.6507,0.0,0.0,0.0,0.0,10.5201,10.4284,10.4394,10.5201,10.5107,10.5422,10.5899,10.6324,10.6376,10.6376,0.0,0.0,0.0,0.0,0.0,0.0,0.0,0.0,0.0,0.0,0.0,0.0,0.0,0.0,0.0,0.0,0.0,0.0,0.0,0.0,0.0,0.0,0.0,3.5965,3.5965,3.6062,3.6805,3.8196,3.8562,3.9707,4.1575,4.1449,4.1579,4.1915,4.0605,3.9974,3.9917,4.0607,4.0894,4.0998,4.1861,0.0,0.0,0.0,0.0,0.0,0.0,0.0,0.0,5.0254,5.1196,5.177,5.2692,0.0,0.0,0.0,0.0,0.0,5.6701,5.9538,6.2034,6.2205,6.1922,6.1983,6.3515,6.2993,6.263,6.4294,6.4821,6.5559,6.7342,6.7862,6.8828,7.1241,7.3844,0.0,8.9857,9.4062,9.8548,10.5406,0.0,0.0,0.0,0.0,0.0,0.0,0.0,0.0,0.0,10.9202,10.9424,10.931,10.8899,10.9007,10.9603,10.9191,10.8689,10.8107,10.7496,10.6888,10.6376,10.6376,10.5899,0.0,0.0,0.0,10.388,10.3586,10.3696,10.399,10.4687,10.4887,10.4997,10.5899,10.6192,10.6192,0.0,0.0,0.0,0.0,0.0,0.0,0.0,0.0,0.0,0.0,0.0,0.0,0.0,0.0,0.0,0.0,0.0,0.0,0.0,0.0,0.0,3.5633,3.5756,3.5811,3.5811,3.5867,3.6593,3.8125,3.9008,4.0115,4.1448,4.2937,4.328,4.2705,4.196,4.1297,4.071,4.086,4.0894,4.1032,4.2447,0.0,0.0,0.0,0.0,0.0,0.0,0.0,0.0,4.9457,5.0669,5.177,5.2692,0.0,0.0,0.0,0.0,0.0,5.8205,6.1227,6.2953,5.9727,5.9791,6.0759,6.1391,6.1772,6.2561,6.4376,6.5362,6.6599,6.8902,7.0475,7.2182,7.4485,0.0,8.5086,0.0,0.0,0.0,0.0,0.0,0.0,0.0,0.0,0.0,0.0,0.0,0.0,0.0,10.7611,10.7385,10.7181,10.7417,10.7696,10.7889,10.8205,10.8313,10.8107,10.7684,10.7084,10.6376,10.6376,10.5899,0.0,0.0,10.399,10.3806,10.2375,10.2726,10.388,10.399,10.41,10.421,10.5018,10.529,10.5422,0.0,0.0,0.0,0.0,0.0,0.0,0.0,0.0,0.0,0.0,0.0,0.0,0.0,0.0,0.0,0.0,0.0,0.0,0.0,0.0,0.0,3.5566,3.5656,3.5689,3.5689,3.6152,3.7114,3.8606,3.9691,4.0988,4.2481,4.3077,4.2971,4.2293,4.1684,4.124,4.0929,4.1343,4.1262,4.1032,0.0,0.0,0.0,0.0,0.0,0.0,0.0,0.0,0.0,0.0,5.0403,5.1646,5.2594,0.0,0.0,0.0,0.0,0.0,5.7361,5.9318,6.07,6.016,6.1887,6.3529,6.289,6.2975,6.37,6.5544,6.6678,6.7777,6.941,7.244,7.6273,8.1077,0.0,9.0508,9.4888,0.0,0.0,0.0,0.0,0.0,0.0,0.0,0.0,0.0,0.0,0.0,0.0,0.0,10.6812,10.671,10.6978,10.7316,10.7477,10.7123,10.7105,10.759,10.7011,10.6302,10.5715,10.5201,10.4614,10.3806,0.0,10.2999,10.2485,10.1808,10.1898,10.2595,10.3109,10.3293,10.3403,10.4593,10.4777,10.4614,0.0,0.0,0.0,0.0,0.0,0.0,0.0,0.0,0.0,0.0,0.0,0.0,0.0,0.0,0.0,0.0,0.0,0.0,0.0,0.0,3.5013,3.5577,3.56,3.5678,3.5881,3.6683,3.7836,3.9242,4.0709,4.23,4.3985,4.3252,4.2582,4.1968,4.1395,4.1031,4.0963,4.1676,4.1676,4.1309,0.0,0.0,0.0,0.0,0.0,0.0,0.0,0.0,0.0,0.0,0.0,0.0,0.0,0.0,0.0,5.4399,5.4693,5.506,5.6884,5.8205,5.9465,6.0933,6.3062,6.4886,6.5271,6.4904,6.5273,6.8031,6.9169,6.995,7.0906,7.5287,0.0,8.6598,9.1536,9.5166,0.0,0.0,0.0,0.0,0.0,0.0,0.0,0.0,0.0,0.0,0.0,0.0,0.0,0.0,10.6321,10.6096,10.6411,10.6709,10.6688,10.5984,10.6206,10.7205,10.6107,10.5402,10.5107,10.4284,10.3476,10.2705,10.2705,10.2191,10.1514,10.1514,10.1514,10.1587,10.2412,10.2705,10.2795,10.41,10.4079,10.3806,0.0,0.0,0.0,0.0,0.0,0.0,0.0,0.0,0.0,0.0,0.0,0.0,0.0,0.0,0.0,0.0,0.0,0.0,0.0,0.0,3.5532,3.56,3.56,3.5949,3.6682,3.7461,3.8565,4.0028,4.2343,4.4245,4.5699,4.4266,4.3271,4.2616,4.2003,4.1417,4.0963,4.1676,4.1952,4.2056,4.3586,0.0,0.0,0.0,0.0,0.0,0.0,0.0,0.0,0.0,0.0,0.0,0.0,0.0,5.3508,5.5071,5.5511,5.6025,5.8389,6.0701,6.2132,6.0823,6.0114,6.1324,6.7382,6.7016,6.6968,7.247,7.3642,7.3993,7.501,8.0296,8.5418,8.8132,9.3657,9.8413,0.0,0.0,0.0,0.0,0.0,0.0,0.0,0.0,0.0,0.0,0.0,0.0,0.0,0.0,0.0,10.4105,10.5082,10.5123,10.4203,10.4823,10.581,10.7185,10.5294,10.4714,10.5107,10.4284,10.3476,10.2705,10.2705,10.2191,10.1514,10.1514,10.1514,10.1587,10.2412,10.2705,10.2705,10.2795,10.2795,10.2889,0.0,0.0,0.0,0.0,0.0,0.0,0.0,0.0,0.0,0.0,0.0,0.0,0.0,0.0,0.0,0.0,0.0,0.0,0.0,3.5205,3.56,3.56,3.56,3.6186,3.7449,3.8193,3.977,4.2172,4.4019,4.478,4.4504,4.3436,4.2631,4.1976,4.1408,4.1267,4.1642,4.2413,4.2758,4.2896,4.4389,4.4699,0.0,0.0,0.0,0.0,0.0,0.0,0.0,0.0,5.0916,5.2157,5.2641,5.2995,5.3434,5.4509,5.4509,5.4546,5.6455,5.8719,6.0774,6.1655,6.2462,6.4053,6.8048,6.9825,7.1815,7.6125,7.7813,7.8978,8.0421,8.4262,8.8112,9.1076,9.6397,10.0816,0.0,0.0,0.0,0.0,0.0,0.0,0.0,0.0,0.0,0.0,0.0,0.0,0.0,0.0,0.0,10.388,10.4293,10.4313,10.388,10.3696,10.4113,10.5093,10.3901,10.3411,10.3623,10.2779,10.2191,10.1991,10.1991,10.1808,10.1514,10.1514,10.1514,10.1514,10.1788,10.1991,10.2008,10.2522,10.2412,10.2081,0.0,0.0,0.0,0.0,0.0,0.0,0.0,0.0,0.0,0.0,0.0,0.0,0.0,0.0,0.0,0.0,0.0,0.0,3.4844,3.5306,3.56,3.56,3.56,3.6422,3.8227,3.8983,4.0663,4.3389,4.4945,4.5103,4.3973,4.3165,4.2613,4.2296,4.1632,4.1849,4.2746,4.331,4.3552,4.3655,4.4893,4.51,0.0,0.0,0.0,0.0,0.0,0.0,0.0,0.0,5.1442,5.2568,5.2794,5.3028,5.3361,5.4179,5.3995,5.3885,5.5218,5.7005,5.9013,6.1435,6.3673,6.6316,7.0293,7.3083,7.6197,8.0809,8.227,8.307,8.4288,8.6859,0.0,0.0,9.7755,0.0,0.0,0.0,0.0,0.0,0.0,0.0,0.0,0.0,0.0,0.0,0.0,0.0,0.0,0.0,0.0,0.0,10.3403,10.3403,10.3109,10.2815,10.2815,10.3109,10.2595,10.2485,10.2705,10.1918,10.1514,10.1514,10.1514,10.1514,10.1514,10.1514,10.1514,10.1514,10.1514,10.1514,10.1587,10.2081,10.2008,10.1698,0.0,0.0,0.0,0.0,0.0,0.0,0.0,0.0,0.0,0.0,0.0,0.0,0.0,0.0,0.0,0.0,0.0,0.0,3.5532,3.56,3.56,3.56,3.56,3.6659,3.8937,3.9728,4.1217,4.3389,4.4945,4.5297,4.4567,4.3775,4.3586,4.3847,4.3082,4.3306,4.4311,4.4311,4.4311,4.4367,4.51,4.5397,4.5397,0.0,0.0,0.0,0.0,0.0,0.0,0.0,5.17,5.2477,5.2872,5.3092,5.3361,5.4179,5.4399,5.4583,5.5365,5.6198,5.7398,5.9832,6.2903,6.727,7.4515,7.6827,7.9491,8.6738,8.7078,8.6076,8.6039,8.8064,0.0,0.0,0.0,0.0,0.0,0.0,0.0,0.0,0.0,0.0,0.0,0.0,0.0,0.0,0.0,0.0,0.0,0.0,0.0,0.0,10.2301,10.2301,10.1514,10.2301,10.2301,10.1514,10.1514,10.1898,10.2705,10.1918,10.1514,10.1514,10.1514,10.1514,10.1514,10.1514,10.1514,10.1514,10.1514,10.1514,10.1514,10.1514,10.1514,10.1514,0.0,0.0,0.0,0.0,0.0,0.0,0.0,0.0,0.0,0.0,0.0,0.0,0.0,0.0,0.0,0.0,0.0,0.0,3.56,3.56,3.56,3.56,3.56,3.6422,3.8193,4.0582,4.2311,4.3389,4.4945,4.4812,4.3138,4.3443,4.3488,4.3284,4.3546,4.3924,4.4311,4.4311,4.4609,4.51,4.5294,4.5742,4.6238,0.0,0.0,0.0,0.0,0.0,0.0,0.0,0.0,0.0,5.2948,5.3459,5.4106,5.4326,5.4803,5.5291,5.5548,5.7409,5.9905,6.2401,6.6696,7.1982,7.8148,7.9764,8.215,9.0041,9.1289,9.0829,9.0401,9.2206,0.0,0.0,0.0,0.0,0.0,0.0,0.0,0.0,0.0,0.0,0.0,0.0,0.0,0.0,0.0,0.0,0.0,0.0,0.0,0.0,10.0006,10.0319,10.0706,10.0907,10.12,10.1514,10.1514,10.1604,10.1788,10.1604,10.1514,10.1514,10.1514,10.1514,10.1514,10.1514,10.1514,10.1514,10.1514,10.1514,10.1514,10.1514,10.1514,10.1514,0.0,0.0,0.0,0.0,0.0,0.0,0.0,0.0,0.0,0.0,0.0,0.0,0.0,0.0,0.0,0.0,0.0,0.0,0.0,3.56,3.56,3.56,3.5915,3.6806,3.8294,4.101,4.2298,4.2083,4.3965,4.404,4.2432,4.3532,4.4095,4.4207,4.4966,4.5417,4.5564,4.5307,4.5497,4.5951,4.5951,4.644,4.7221,0.0,0.0,0.0,0.0,0.0,0.0,0.0,0.0,0.0,5.3181,5.3685,5.4399,5.4399,5.473,5.5254,5.5904,5.818,6.1227,6.469,6.9265,7.4808,8.1782,8.4903,8.7949,9.3786,9.4226,9.3657,9.3878,9.4539,0.0,0.0,0.0,0.0,0.0,0.0,0.0,0.0,0.0,0.0,0.0,0.0,0.0,0.0,0.0,0.0,0.0,0.0,0.0,0.0,9.9108,9.9328,9.9805,9.9805,10.0099,10.0503,10.0503,10.0503,10.0576,10.0927,10.122,10.1514,10.122,10.0796,10.0576,10.0907,10.0796,10.0613,10.1294,10.1294,10.111,10.1404,10.1514,10.1514,0.0,0.0,0.0,0.0,0.0,0.0,0.0,0.0,0.0,0.0,3.2829,0.0,0.0,0.0,0.0,0.0,0.0,0.0,0.0,0.0,3.5633,3.5712,3.6547,3.7642,3.8996,4.106,4.1467,4.0125,4.2385,4.3098,4.2347,4.3918,4.51,4.5968,4.6831,4.7315,4.7402,4.6838,4.6642,4.6672,4.6824,4.7355,4.8087,4.8197,0.0,0.0,0.0,0.0,0.0,0.0,0.0,0.0,5.3512,5.3911,5.4583,5.4436,5.4546,5.5097,5.6712,5.8829,6.1851,6.6966,7.1629,7.7121,8.5527,9.0996,9.4923,9.7199,9.6061,9.507,9.6539,9.5658,0.0,0.0,0.0,0.0,0.0,0.0,0.0,0.0,0.0,0.0,0.0,0.0,0.0,0.0,0.0,0.0,0.0,0.0,0.0,9.8758,9.8758,9.8831,9.8998,9.8998,9.9035,0.0,9.9108,9.9108,9.9125,9.9879,10.0613,10.12,10.0503,9.9769,9.9181,9.9879,9.9769,9.9255,10.0686,10.0927,10.0393,10.109,10.1384,10.1514,0.0,0.0,0.0,0.0,0.0,0.0,0.0,0.0,0.0,0.0,0.0,0.0,0.0,0.0,0.0,0.0,0.0,0.0,0.0,0.0,3.5881,3.6513,3.7833,3.8715,3.9151,4.017,4.059,4.0251,4.1837,4.2549,4.2505,4.4034,4.5261,4.6241,4.7077,4.7196,4.6783,4.6638,4.6251,4.5821,4.7117,4.7773,4.8049,4.899,4.9916,0.0,0.0,0.0,0.0,0.0,0.0,0.0,5.4205,5.5133,5.6051,5.4766,5.5721,5.7593,5.9208,6.0921,6.3894,7.0697,7.8332,8.5343,8.9821,9.2648,9.463,9.5768,9.6612,9.7236,9.7566,9.786,0.0,0.0,0.0,0.0,0.0,0.0,0.0,0.0,0.0,0.0,0.0,0.0,0.0,0.0,0.0,0.0,0.0,0.0,0.0,9.6262,9.6262,9.6869,9.8154,9.8154,9.8484,0.0,9.9108,9.9108,9.9108,9.9292,9.9475,9.9622,9.9438,9.9255,9.9108,9.9292,9.9255,9.9145,9.9475,9.9916,10.0319,10.0503,10.1,10.1514,0.0,0.0,0.0,0.0,0.0,0.0,0.0,0.0,0.0,0.0,0.0,0.0,0.0,0.0,0.0,0.0,0.0,0.0,0.0,0.0,3.6118,3.7291,3.8408,3.9042,3.9103,3.9827,4.0031,3.9692,4.1138,4.2066,4.2453,4.4048,4.5451,4.6697,4.7989,4.8172,4.7554,4.7624,4.7285,4.6776,4.7787,4.8496,4.9052,4.9777,5.067,5.1574,5.1946,0.0,0.0,0.0,0.0,0.0,0.0,0.0,5.6627,5.5794,5.6455,5.785,5.9869,6.2426,6.6623,7.5065,8.2443,8.8206,9.0702,9.2537,9.3932,9.4777,9.6208,9.7566,9.8337,0.0,0.0,0.0,0.0,0.0,0.0,0.0,0.0,0.0,0.0,0.0,0.0,0.0,0.0,0.0,0.0,0.0,0.0,9.4923,9.4923,9.4923,9.4923,9.5511,9.6722,9.6759,9.7163,9.797,9.797,9.775,9.74,9.8575,9.8704,9.797,9.8374,9.83,9.797,9.8374,9.83,9.8043,9.8814,9.9108,9.9218,9.9989,10.0576,10.098,0.0,0.0,0.0,0.0,0.0,0.0,0.0,0.0,0.0,0.0,0.0,0.0,0.0,0.0,0.0,0.0,0.0,0.0,0.0,0.0,0.0,3.7652,3.8531,3.9017,3.9017,3.9617,3.9697,3.9211,4.0705,4.1873,4.2786,4.4334,4.5832,4.7345,4.8836,4.9188,4.8696,4.881,4.8612,4.8207,4.8723,4.9395,5.0183,5.06,5.1322,5.2126,5.2268,5.3042,5.4065,5.4177,0.0,0.0,0.0,0.0,5.6811,5.6811,5.6884,5.7508,5.9942,6.42,7.0036,7.8809,8.4535,8.8463,9.0188,9.1767,9.3161,9.4079,9.5474,9.6869,9.8043,0.0,0.0,0.0,0.0,0.0,0.0,0.0,0.0,0.0,0.0,0.0,0.0,0.0,0.0,0.0,0.0,0.0,9.4153,9.4079,9.4079,9.4079,9.4079,9.4483,9.529,9.529,9.5621,9.6282,9.6282,9.5951,9.5345,9.7383,9.764,9.6539,9.7346,9.7309,9.6759,9.7419,9.7309,9.6832,9.819,9.8374,9.8063,9.9402,10.0099,10.0393,0.0,0.0,0.0,0.0,0.0,0.0,0.0,0.0,0.0,0.0,0.0,0.0,0.0,0.0,0.0,0.0,0.0,0.0,0.0,0.0,0.0,3.6953,3.8273,3.9017,3.9017,3.9217,3.9583,4.0127,4.1094,4.2625,4.4647,4.5528,4.6794,4.8415,4.8664,4.887,4.9021,4.9049,4.881,4.8565,5.0057,5.0503,5.0394,5.1453,5.2006,5.2244,5.2579,5.3338,5.4177,5.4334,5.4976,0.0,0.0,0.0,5.6811,5.6811,5.7299,5.8364,6.0786,6.7467,7.494,7.98,8.4115,8.7748,9.0078,9.1326,9.2427,0.0,9.5034,9.5511,0.0,0.0,0.0,0.0,0.0,0.0,0.0,0.0,0.0,0.0,0.0,0.0,0.0,0.0,0.0,0.0,0.0,0.0,9.3308,9.3272,9.3272,9.3272,9.3272,9.3639,9.4446,9.4446,9.452,9.463,9.463,9.4556,9.4483,9.4777,9.5217,9.5712,9.6502,9.6795,9.6722,9.6832,9.6795,9.6722,9.6942,9.7383,9.7953,9.8117,9.9108,10.0319,0.0,0.0,0.0,0.0,0.0,0.0,0.0,0.0,0.0,0.0,0.0,0.0,0.0,0.0,0.0,0.0,0.0,0.0,0.0,0.0,0.0,3.6818,3.8205,3.9017,3.9017,3.9547,3.9982,4.0288,4.1706,4.3567,4.5795,4.703,4.8177,4.9227,4.9762,4.9844,4.9622,4.9841,4.9627,4.9275,5.0384,5.0792,5.0832,5.1405,5.1965,5.2501,5.3201,5.4043,5.4804,5.5005,5.5915,5.687,5.6418,0.0,0.0,0.0,5.7703,5.8914,6.3172,6.8531,7.4169,7.9653,8.3361,8.6297,8.872,9.0225,9.1326,9.206,9.3272,0.0,0.0,0.0,0.0,0.0,0.0,0.0,0.0,0.0,0.0,0.0,0.0,0.0,0.0,0.0,0.0,0.0,0.0,9.2537,9.173,9.1693,9.1693,9.1693,9.1693,9.2317,9.3602,9.3161,9.3418,9.4299,9.4299,9.4042,9.3639,9.4079,9.4483,9.485,9.518,9.5621,9.6025,9.6025,9.6282,9.6685,9.6685,9.6906,9.7273,9.7733,9.8631,9.9695,0.0,0.0,0.0,0.0,0.0,0.0,0.0,0.0,0.0,0.0,0.0,0.0,0.0,0.0,0.0,0.0,0.0,0.0,0.0,0.0,0.0,3.6829,3.8205,3.9029,3.9054,3.9732,4.0235,4.0644,4.2264,4.4431,4.7059,4.8471,4.9867,5.1183,5.1449,5.1286,5.0818,5.1025,5.1021,5.0918,5.1045,5.1226,5.1517,5.1631,5.2216,5.3092,5.3813,5.4734,5.5631,5.5592,5.6528,5.7593,5.7005,5.7226,0.0,0.0,0.0,5.9061,6.3943,6.7614,7.1527,7.7635,8.1269,8.4132,8.6958,8.8683,8.9821,0.0,9.1271,0.0,0.0,0.0,0.0,0.0,0.0,0.0,0.0,0.0,0.0,0.0,0.0,0.0,0.0,0.0,0.0,0.0,0.0,9.0922,9.0317,9.028,9.028,9.028,9.028,9.0978,9.2464,9.206,9.2482,9.3639,9.3639,9.3345,9.2794,9.3382,9.3639,9.3675,9.4116,9.463,9.5217,9.5217,9.5658,9.6392,9.6392,9.6539,9.6759,9.7346,9.808,9.8888,0.0,0.0,0.0,0.0,0.0,0.0,0.0,0.0,0.0,0.0,0.0,0.0,0.0,0.0,3.4787,3.5069,0.0,0.0,0.0,0.0,0.0,3.6818,3.8205,0.0,3.9176,3.9354,4.0131,4.1519,4.2643,4.5105,4.8797,4.9562,5.1813,5.5121,5.3524,5.2887,5.3015,5.2635,5.3184,5.4114,0.0,0.0,0.0,0.0,0.0,0.0,0.0,0.0,5.6616,5.5831,5.6161,5.6847,5.6811,5.6811,5.6994,0.0,0.0,0.0,6.1153,6.4237,6.7944,7.2863,7.7099,8.1101,8.5029,8.6591,8.7601,8.9143,0.0,0.0,0.0,0.0,0.0,0.0,0.0,0.0,0.0,0.0,0.0,0.0,0.0,0.0,0.0,0.0,0.0,0.0,0.0,8.951,8.9473,8.9473,8.9473,8.9473,8.9473,8.9877,9.0739,9.1436,9.184,9.1913,9.1913,9.1913,9.1877,9.1913,9.1913,9.2024,9.3602,9.4299,9.4373,9.4373,9.485,9.5565,9.5565,9.6025,9.6722,9.6759,9.7273,9.797,0.0,0.0,0.0,0.0,0.0,0.0,0.0,0.0,0.0,0.0,0.0,0.0,0.0,3.4655,3.5153,3.5642,3.637,0.0,0.0,0.0,0.0,3.7516,3.8464,3.9029,3.9078,4.0217,4.1091,4.1591,4.315,4.5092,4.7438,4.8812,5.0773,5.314,5.3509,5.3886,5.416,5.3271,5.3409,0.0,0.0,0.0,0.0,0.0,0.0,0.0,0.0,0.0,0.0,5.6432,5.6895,5.7483,5.6957,5.7141,5.7629,5.7923,5.7997,5.851,6.0945,6.2842,6.5398,7.0793,7.4441,7.7598,8.1138,8.3765,8.5783,8.6848,0.0,0.0,0.0,0.0,0.0,0.0,0.0,0.0,0.0,0.0,0.0,0.0,0.0,0.0,0.0,0.0,0.0,0.0,0.0,0.0,8.8647,8.8647,8.8647,8.8647,8.8647,8.8793,8.905,8.9858,9.0519,9.1033,9.1033,9.1289,9.1803,9.1803,9.1803,9.184,9.2427,9.3015,9.3529,9.3529,9.4299,9.5492,9.5492,9.5988,9.6685,9.6685,9.7199,9.7916,0.0,0.0,0.0,0.0,0.0,0.0,0.0,0.0,0.0,0.0,0.0,0.0,0.0,0.0,3.6097,3.654,3.7224,3.7672,3.7757,3.8077,3.8261,3.8261,3.9257,3.9815,3.9865,4.1041,4.1906,4.2419,4.3438,4.5183,4.76,4.8681,5.0585,5.3115,5.3753,5.4556,5.5347,0.0,0.0,5.515,0.0,0.0,5.5249,0.0,0.0,0.0,0.0,0.0,0.0,0.0,0.0,0.0,0.0,0.0,0.0,0.0,0.0,5.8364,5.9942,6.1374,6.3563,6.8481,7.1307,7.3949,7.8038,8.0608,8.2627,8.4242,0.0,0.0,0.0,0.0,0.0,0.0,0.0,0.0,0.0,0.0,0.0,0.0,0.0,0.0,0.0,0.0,0.0,0.0,0.0,0.0,8.7802,8.7802,8.7802,8.7802,8.8059,8.8206,8.8206,8.8996,8.9657,9.0207,9.0464,9.0886,9.14,9.1693,9.1803,9.1803,9.1803,9.2134,9.2648,9.2648,9.3455,9.4684,9.4684,9.5364,9.6318,9.6318,9.6795,9.7493,0.0,0.0,0.0,0.0,0.0,0.0,0.0,0.0,0.0,3.8155,0.0,0.0,0.0,0.0,0.0,3.7764,3.7884,3.7978,3.8012,3.8679,3.9085,3.9085,0.0,0.0,4.1638,4.1785,4.2615,4.4104,4.3557,4.5398,4.9428,4.9358,5.1524,5.542,5.4467,5.4977,5.6608,0.0,5.7188,5.7141,0.0,5.5285,5.5552,0.0,0.0,0.0,5.8834,5.9163,0.0,0.0,0.0,0.0,0.0,0.0,0.0,0.0,0.0,0.0,0.0,0.0,0.0,6.5558,6.7614,7.0279,7.5784,0.0,7.8023,8.1342,0.0,0.0,0.0,0.0,0.0,0.0,0.0,0.0,0.0,0.0,0.0,0.0,0.0,0.0,0.0,0.0,0.0,0.0,0.0,8.6978,8.6978,8.6978,8.6978,8.6978,8.7766,8.8169,8.8169,8.8923,8.9363,8.94,9.017,9.0592,9.0665,9.1436,9.1767,9.1803,9.1803,9.1803,9.1803,9.1803,9.2317,9.3088,9.3088,9.4079,9.5492,9.5492,9.6025,9.6685,0.0,0.0,0.0,0.0,0.0,0.0,3.8295,3.8203,3.8048,0.0,0.0,0.0,3.7562,3.8094,3.8697,3.9361,3.9478,3.9728,4.0257,4.0561,4.0964,4.1507,4.2112,4.2441,4.248,4.3121,4.3782,4.44,4.5338,4.6543,4.7991,4.9192,5.0825,5.286,5.4443,5.552,5.6133,5.5726,0.0,5.8759,5.6831,5.7437,0.0,0.0,0.0,0.0,0.0,6.0787,0.0,0.0,6.0199,5.9538,0.0,0.0,0.0,0.0,0.0,0.0,5.7997,0.0,0.0,0.0,0.0,0.0,0.0,0.0,0.0,0.0,0.0,0.0,0.0,0.0,0.0,0.0,0.0,0.0,0.0,0.0,0.0,0.0,0.0,0.0,0.0,0.0,0.0,0.0,8.7124,8.6978,8.6978,8.6978,8.6978,8.6978,8.7215,8.7325,8.7325,8.7528,8.8262,8.94,8.905,8.9784,9.1473,9.1106,9.1253,9.1803,9.1803,9.1803,9.1803,9.1803,9.2317,9.3088,9.3088,9.4079,9.5492,9.5492,9.6025,9.6685,0.0,0.0,0.0,0.0,0.0,3.8302,3.8671,3.8517,3.8399,0.0,0.0,0.0,3.9467,0.0,4.0814,4.107,4.1052,4.1268,4.1813,4.1852,4.2095,4.2602,4.3074,4.3357,4.3357,4.4207,4.4906,4.545,4.6482,4.7547,4.8637,4.966,5.1003,5.2617,5.4082,0.0,0.0,0.0,0.0,0.0,5.8105,0.0,0.0,6.0847,6.1655,0.0,0.0,0.0,6.3783,6.3319,6.2144,0.0,0.0,0.0,0.0,0.0,0.0,0.0,0.0,0.0,0.0,0.0,0.0,0.0,6.6856,6.765,6.9045,0.0,0.0,0.0,0.0,0.0,0.0,0.0,0.0,0.0,0.0,0.0,0.0,0.0,0.0,0.0,0.0,0.0,0.0,8.6518,8.6811,8.6978,8.6978,8.6354,8.6334,8.6978,8.6664,8.6664,8.6978,8.6978,8.7455,8.8409,8.828,8.894,9.0298,9.0519,9.0849,9.1326,9.1657,9.1803,9.1803,9.1803,9.2097,9.2574,9.2574,9.3345,9.4538,9.4887,9.5511,9.6245,0.0,0.0,3.8362,3.8962,3.8293,3.8153,3.9454,3.9291,3.9285,0.0,4.0798,4.1626,4.2591,0.0,0.0,0.0,4.2468,4.2521,4.2987,4.2875,4.2943,4.3313,4.4073,4.4495,4.4495,4.5294,4.6156,4.6999,4.7368,4.8562,5.0491,5.0721,5.1886,5.3772,0.0,0.0,0.0,0.0,0.0,5.7492,5.9282,6.0221,0.0,0.0,6.4794,0.0,6.5963,6.6136,6.5802,6.5508,6.3796,0.0,0.0,0.0,0.0,0.0,5.807,0.0,0.0,0.0,0.0,0.0,0.0,0.0,6.5595,6.5558,6.5692,0.0,0.0,0.0,0.0,0.0,0.0,0.0,0.0,0.0,0.0,0.0,0.0,0.0,0.0,0.0,8.4352,8.5123,8.5654,8.5527,8.6297,8.6721,8.6721,8.538,8.527,8.6684,8.604,8.604,8.6885,8.6885,8.6941,8.7124,8.7766,8.8169,8.839,8.9711,9.0445,9.0629,9.1363,9.173,9.1803,9.1803,9.1803,9.1803,9.1803,9.2317,9.3198,9.4006,9.4813,9.5602,0.0,0.0,3.9262,3.9513,3.988,4.026,4.0647,4.111,4.1513,4.1794,4.2483,4.3463,4.4877,0.0,0.0,0.0,4.3024,4.2908,4.432,4.4483,4.5138,4.6508,4.6852,4.699,4.699,4.7485,4.7919,4.8339,4.9243,5.0346,5.1618,5.2411,5.3276,5.4311,5.5158,5.5691,0.0,0.0,0.0,5.8417,5.9562,0.0,6.4041,6.422,6.5789,6.7894,6.755,6.8151,6.8862,0.0,6.464,6.2242,0.0,0.0,0.0,0.0,0.0,0.0,0.0,0.0,0.0,0.0,0.0,0.0,6.3563,6.3417,6.4004,0.0,0.0,0.0,0.0,0.0,0.0,0.0,0.0,0.0,0.0,0.0,0.0,0.0,0.0,0.0,8.2737,8.3985,8.4572,8.3911,8.4609,8.5086,8.5086,8.4756,8.4756,8.5049,8.4903,8.5233,8.604,8.604,8.6664,8.7949,8.7472,8.7895,8.9143,8.883,8.9381,9.0629,9.0776,9.1216,9.1803,9.1803,9.1803,9.1803,9.1803,9.2317,9.3198,9.4006,9.4813,9.5602,0.0,3.9619,3.9837,4.0264,4.072,4.1156,4.1572,4.1956,4.251,4.3335,4.506,4.6365,4.6737,0.0,0.0,0.0,0.0,0.0,0.0,0.0,4.6646,4.7575,4.7727,4.7837,4.7919,4.8961,4.964,4.9915,5.1408,5.2447,5.3041,5.3758,5.4494,5.5229,5.5763,5.6223,5.6609,0.0,5.7773,5.8869,6.056,0.0,6.5154,6.6129,6.7724,6.9486,6.9486,7.0257,7.0807,6.7577,6.6219,0.0,0.0,6.1337,6.086,0.0,6.0089,6.0224,0.0,0.0,0.0,6.2108,0.0,0.0,0.0,6.2499,6.2548,6.3796,0.0,0.0,0.0,0.0,0.0,0.0,0.0,0.0,0.0,0.0,0.0,0.0,0.0,0.0,8.1064,8.2113,8.281,8.281,8.3177,8.3398,8.3398,8.3398,8.3581,8.3968,8.4005,8.4389,8.5196,8.56,8.6187,8.6995,8.6995,8.7418,8.8189,8.8206,8.8867,9.0024,9.0445,9.1069,9.1803,9.1803,9.1803,9.1803,9.1803,9.206,9.2537,9.3382,9.4226,9.5034,0.0,0.0,4.0132,4.0912,4.124,4.1711,4.2604,4.2861,4.3538,4.5244,4.753,4.8868,0.0,0.0,0.0,0.0,0.0,0.0,0.0,0.0,0.0,4.8425,4.8564,4.8736,4.9025,5.0527,5.1403,5.167,5.3346,5.4271,5.4528,5.4928,5.551,5.6186,5.6235,5.6706,5.7442,0.0,0.0,5.9698,0.0,6.3892,6.5194,6.7903,6.9522,7.0477,7.1417,7.2202,7.2165,6.8458,0.0,6.8224,6.4481,6.3649,0.0,0.0,0.0,0.0,0.0,0.0,0.0,0.0,0.0,6.338,0.0,0.0,0.0,6.1643,0.0,0.0,0.0,0.0,0.0,0.0,0.0,0.0,0.0,0.0,0.0,0.0,0.0,0.0,0.0,7.9764,8.0534,8.1636,8.1452,8.1415,8.1709,8.1746,8.2039,8.27,8.2867,8.3308,8.4132,8.5086,8.5637,8.58,8.6628,8.6978,8.7014,8.7655,8.8426,8.9216,9.0024,9.0849,9.1583,9.173,9.1803,9.1803,9.1803,9.1803,9.1913,9.2794,9.3529,9.4189,3.9833,3.9892,4.0158,4.103,4.1732,4.2672,4.4127,4.4891,4.6075,4.8206,4.8781,0.0,0.0,0.0,0.0,0.0,0.0,0.0,5.2264,0.0,0.0,5.1086,5.1169,5.1568,5.2417,5.3109,5.3531,5.3654,5.443,5.5085,5.5611,5.5774,5.6221,5.6915,5.7119,5.7628,5.8288,0.0,5.9928,0.0,6.4819,6.5207,0.0,6.771,6.9839,7.1344,7.2863,7.3487,7.3156,0.0,6.9339,6.8444,0.0,6.4604,0.0,0.0,0.0,0.0,0.0,0.0,0.0,0.0,6.5007,0.0,0.0,0.0,6.2462,6.1741,0.0,0.0,0.0,0.0,0.0,0.0,0.0,0.0,0.0,0.0,0.0,0.0,0.0,0.0,0.0,7.6995,7.7598,7.989,7.8699,7.85,8.0,8.0073,8.011,8.022,8.0901,8.1672,8.2443,8.3985,8.5086,8.58,8.6628,8.6978,8.6978,8.7088,8.7582,8.839,8.9179,8.9987,9.0812,9.151,9.1803,9.1803,9.1803,9.1803,9.1913,9.2794,9.3161,9.3345,3.9998,4.0319,0.0,4.1711,4.2455,4.347,4.4993,4.7327,4.907,4.956,5.115,0.0,0.0,0.0,0.0,0.0,0.0,5.2349,0.0,0.0,0.0,0.0,0.0,0.0,5.3441,5.4309,5.4789,5.4919,5.573,5.6241,5.6492,5.6619,5.6837,5.7112,5.7313,0.0,5.8548,0.0,6.0405,0.0,0.0,0.0,0.0,7.011,7.2386,7.3472,7.4147,7.4404,7.4037,0.0,7.0881,0.0,0.0,0.0,0.0,0.0,0.0,0.0,0.0,0.0,0.0,0.0,0.0,0.0,0.0,0.0,6.2683,0.0,0.0,0.0,0.0,0.0,0.0,0.0,0.0,0.0,0.0,0.0,0.0,0.0,0.0,0.0,0.0,0.0,0.0,0.0,7.5946,7.6497,7.6292,7.8494,7.9596,7.9119,7.9874,8.0681,8.1489,8.3104,8.4315,8.5123,8.6407,8.6978,8.6978,8.6978,8.7435,8.8243,8.9033,8.984,9.0665,9.1473,9.1803,9.1803,9.1803,9.1803,9.184,9.2207,9.2684,9.3161,4.0669,0.0,0.0,0.0,4.3051,4.4065,4.5993,4.8901,0.0,0.0,0.0,0.0,5.5417,5.5621,0.0,0.0,0.0,5.6175,0.0,0.0,5.3943,0.0,0.0,0.0,0.0,0.0,5.5848,5.5978,5.6683,5.7049,5.7049,5.715,5.7188,5.7237,5.8016,5.8842,5.969,0.0,6.2709,6.3946,6.6426,6.8266,6.9779,7.2606,7.4184,7.4903,7.4903,7.4903,7.4536,7.2114,7.1821,0.0,7.0624,0.0,0.0,0.0,0.0,0.0,6.5558,0.0,0.0,0.0,0.0,0.0,0.0,0.0,0.0,0.0,0.0,0.0,0.0,0.0,0.0,0.0,0.0,0.0,0.0,0.0,0.0,0.0,0.0,0.0,0.0,0.0,0.0,7.138,7.3083,7.4001,7.3707,7.6512,7.8148,7.8259,7.9029,7.9727,8.0351,8.215,8.3454,8.4278,8.5894,8.6811,8.6978,8.6978,8.7308,8.7949,8.8959,8.973,9.0354,9.1363,9.1803,9.1803,9.1803,9.1803,9.1803,9.1803,9.2207,9.2758,4.2219,4.2252,0.0,0.0,0.0,4.4404,0.0,0.0,0.0,0.0,0.0,0.0,0.0,0.0,0.0,0.0,0.0,6.0337,6.129,0.0,5.6397,0.0,0.0,0.0,0.0,0.0,0.0,5.6948,5.7125,5.7188,5.7188,5.7188,5.7188,5.731,5.9782,6.1349,6.2311,6.5724,6.8114,6.984,7.2401,7.4845,7.6738,0.0,7.4184,7.4903,7.4903,0.0,0.0,7.2114,7.1821,0.0,0.0,0.0,0.0,0.0,0.0,0.0,0.0,0.0,0.0,0.0,0.0,0.0,0.0,0.0,6.3796,0.0,0.0,0.0,0.0,0.0,0.0,0.0,0.0,0.0,0.0,0.0,0.0,0.0,0.0,0.0,0.0,0.0,0.0,7.1233,6.9949,7.0477,7.3538,7.3832,7.4955,7.7289,7.8185,7.8662,7.8662,8.1048,8.2627,8.3454,8.5086,8.6261,8.6978,8.6978,8.7014,8.7124,8.8702,8.94,8.9546,9.1143,9.1803,9.1803,9.1803,9.1803,9.1803,9.1803,9.1803,9.184,0.0,0.0,0.0,0.0,0.0,0.0,0.0,5.0979,0.0,0.0,0.0,0.0,0.0,0.0,6.7323,0.0,0.0,6.5086,6.4317,6.211,0.0,0.0,0.0,5.9177,0.0,0.0,0.0,0.0,0.0,5.7061,5.7061,5.715,5.7478,5.8058,5.9528,6.1329,0.0,0.0,0.0,0.0,0.0,7.4219,7.6328,0.0,0.0,7.6408,7.5909,7.5689,0.0,7.3523,7.2716,7.2386,7.1872,7.1138,7.0513,7.0499,7.0513,0.0,0.0,0.0,7.1592,6.7834,0.0,0.0,0.0,0.0,0.0,0.0,0.0,0.0,0.0,0.0,0.0,0.0,0.0,0.0,0.0,0.0,0.0,0.0,0.0,0.0,0.0,0.0,0.0,6.6549,6.7026,6.8017,6.9646,7.2253,7.4331,7.5674,7.7032,7.8038,7.8589,8.0461,8.1819,8.2627,8.4792,8.593,8.6224,8.6775,8.6978,8.7051,8.8133,8.861,8.872,9.0335,9.1033,9.1069,9.1583,9.1803,9.1803,9.1803,9.1803,9.1803,4.5345,0.0,0.0,0.0,0.0,0.0,0.0,0.0,0.0,0.0,6.3062,0.0,7.0876,0.0,7.1996,0.0,7.1457,6.9519,6.7052,6.6067,0.0,6.2825,6.2779,0.0,0.0,0.0,0.0,0.0,0.0,5.8073,5.7495,5.7874,5.8347,5.8891,6.065,6.2443,6.4356,6.803,6.9964,0.0,0.0,7.4811,0.0,0.0,7.7295,7.7138,0.0,7.5909,7.5469,7.4147,7.3156,7.2496,7.2496,7.1798,7.0991,7.1233,7.1138,7.0844,7.0257,7.1431,0.0,6.8898,6.8898,0.0,6.5301,0.0,0.0,0.0,0.0,0.0,0.0,0.0,0.0,0.0,0.0,0.0,0.0,0.0,0.0,0.0,0.0,0.0,0.0,0.0,6.453,6.3686,6.4347,6.5485,0.0,0.0,7.2753,7.4441,7.6298,7.7729,7.8589,7.991,8.1122,8.2223,8.4352,8.5527,8.5837,8.6628,8.6978,8.7014,8.7839,8.8206,8.8316,8.9638,9.0317,9.0665,9.1179,9.1546,9.1803,9.1803,9.1803,9.1767,0.0,0.0,0.0,0.0,4.835,0.0,0.0,0.0,6.0191,0.0,6.6022,6.9513,7.1284,7.2638,7.3759,7.4562,7.5029,0.0,6.9844,7.0396,0.0,0.0,6.4867,6.4168,6.1811,0.0,0.0,0.0,0.0,0.0,5.8515,5.924,5.9602,5.9783,6.2947,0.0,6.5305,7.0814,7.3403,7.3964,7.6246,7.6646,7.5989,7.6897,0.0,7.7014,7.6326,7.5616,7.483,7.4037,7.323,7.2569,7.2569,7.2532,7.2349,7.1564,7.1894,7.2165,7.0624,7.0807,7.1013,6.9398,0.0,0.0,0.0,0.0,6.759,0.0,0.0,0.0,0.0,0.0,0.0,0.0,0.0,0.0,0.0,0.0,0.0,0.0,0.0,0.0,0.0,6.3956,6.3576,6.2756,6.1998,6.2952,0.0,0.0,7.033,7.3428,7.5931,7.7656,7.8516,7.9376,8.0587,8.2076,8.3801,8.5013,8.5764,8.6628,8.6978,8.7014,8.7802,8.8133,8.8206,8.8996,8.9803,9.0482,9.0519,9.1033,9.1693,9.173,9.173,9.1583,4.7708,4.8738,4.9782,0.0,5.0759,5.1384,0.0,0.0,0.0,0.0,7.155,7.6102,7.9391,8.0513,8.0621,7.9642,7.8466,0.0,0.0,0.0,0.0,7.1717,7.0726,6.9171,6.6875,6.4959,0.0,6.1688,0.0,0.0,6.0034,5.9743,5.9928,6.0579,6.2621,6.4269,6.5817,6.9674,7.2529,7.4482,7.4945,7.5457,0.0,0.0,7.659,7.7014,7.6326,7.5983,7.5689,7.4867,7.4074,7.3377,7.3377,7.2973,7.2459,7.2261,7.2349,7.2422,7.2018,7.2459,7.2716,7.1087,7.0683,7.0206,0.0,0.0,0.0,0.0,0.0,0.0,0.0,0.0,0.0,0.0,0.0,0.0,0.0,0.0,0.0,0.0,0.0,0.0,6.2291,6.1704,6.1263,6.1031,6.1374,6.1961,0.0,0.0,0.0,7.0991,7.4515,7.6775,7.7619,7.9066,8.0,8.044,8.3251,8.4719,8.4976,8.6354,8.6978,8.7014,8.7215,8.7325,8.7362,8.8169,8.8647,8.8867,8.9473,8.984,9.0097,9.0702,9.0537,9.006,4.9097,0.0,0.0,5.2784,0.0,0.0,5.621,0.0,0.0,6.8076,7.3353,0.0,8.0229,8.2085,8.2939,8.2359,8.1381,0.0,0.0,0.0,0.0,7.4634,7.4105,7.2438,6.9375,6.7044,0.0,6.2839,0.0,0.0,6.0689,6.0648,6.0905,6.1376,6.3019,6.4313,6.5543,6.9617,7.258,7.4622,7.5363,0.0,0.0,7.638,7.6799,7.7144,7.6744,7.6387,7.6019,7.5579,7.4882,7.4147,7.3817,7.3377,7.2973,7.2606,7.2496,7.2569,7.2936,7.3083,7.312,7.2922,7.2334,7.149,7.0243,7.0036,6.9816,0.0,0.0,0.0,0.0,0.0,0.0,0.0,0.0,0.0,0.0,0.0,0.0,0.0,0.0,0.0,6.163,6.119,6.0786,6.0419,6.1153,0.0,0.0,0.0,0.0,7.0073,7.4001,7.6827,7.8369,7.969,8.0498,8.0881,8.3398,8.4609,8.4646,8.6261,8.6978,8.6978,8.6978,8.6978,8.7014,8.7509,8.7876,8.828,8.9069,8.94,8.9436,8.9913,8.9803,8.951,5.0979,0.0,0.0,0.0,0.0,0.0,0.0,6.3073,0.0,6.9164,0.0,7.7632,7.8265,8.0928,8.2885,8.3538,0.0,8.2486,7.9846,8.1,7.9948,7.5812,7.6164,7.4735,7.1101,6.8848,0.0,0.0,0.0,0.0,6.1123,6.1738,6.1992,6.2064,6.3563,0.0,0.0,6.9872,7.2707,7.4144,7.6161,7.6536,7.602,7.6949,7.7289,7.7289,7.7289,7.6848,7.6276,7.6276,7.5726,7.494,7.4221,7.3927,7.3707,7.2899,7.2716,7.2936,7.3413,7.3193,7.312,7.428,7.3634,7.2459,7.1637,7.0917,7.0403,7.0403,6.9316,0.0,0.0,0.0,0.0,0.0,0.0,0.0,0.0,0.0,0.0,0.0,0.0,0.0,0.0,6.152,6.1263,6.0456,0.0,0.0,0.0,0.0,0.0,6.9889,7.3744,0.0,7.9779,0.0,8.1305,8.2223,8.3838,8.4609,8.4646,8.6261,8.6978,8.6978,8.6978,8.6978,8.6978,8.6978,8.7435,8.8096,8.8812,8.9106,8.9106,8.9326,8.9326,8.9363,0.0,0.0,0.0,0.0,0.0,6.4817,6.7429,7.1418,7.4326,7.503,7.9847,8.3085,8.2739,8.3792,8.4373,8.4043,8.3988,0.0,0.0,0.0,0.0,8.0678,7.9061,7.7488,7.6078,7.1183,6.8586,0.0,0.0,0.0,6.278,6.2245,6.1992,6.2028,6.2983,0.0,6.5769,6.8677,0.0,7.1889,7.4232,7.5516,7.6173,7.698,7.7289,7.7289,7.7289,7.7215,7.7105,7.7105,7.6555,7.5873,7.5726,7.5212,7.4536,7.3707,7.3964,7.4206,7.3046,7.3597,7.4243,7.3179,7.3193,7.3266,7.2459,7.2165,7.2092,7.2092,7.1872,7.1321,7.0293,0.0,0.0,0.0,0.0,0.0,0.0,0.0,0.0,0.0,0.0,0.0,0.0,0.0,0.0,0.0,0.0,0.0,0.0,0.0,0.0,0.0,7.2349,0.0,0.0,0.0,8.0771,8.2223,8.3838,8.4609,8.4646,8.6261,8.6978,8.6978,8.6978,8.6978,8.6978,8.6978,8.7088,8.7198,8.7344,8.7418,8.7565,8.8923,8.8959,8.861,0.0,0.0,0.0,0.0,0.0,0.0,0.0,7.7181,0.0,7.7287,7.9322,8.1164,8.1725,8.3629,8.49,8.51,8.5136,8.5063,8.4856,8.4139,8.32,8.2092,8.0246,0.0,7.7326,7.2591,6.9786,6.9077,0.0,0.0,0.0,0.0,6.1992,6.2028,6.2907,6.4478,0.0,0.0,0.0,7.2555,7.5062,7.631,7.6775,7.7142,7.7289,7.7289,7.7289,7.7289,7.7289,7.7289,7.7032,7.6628,7.624,7.5836,7.5359,7.4551,7.4588,7.483,7.4478,7.4625,7.4903,7.4977,7.4331,7.3707,7.3744,7.312,7.2496,7.2496,7.2496,7.2018,7.0403,6.7504,0.0,0.0,0.0,0.0,0.0,0.0,0.0,0.0,0.0,0.0,0.0,0.0,0.0,0.0,0.0,0.0,0.0,0.0,0.0,0.0,0.0,0.0,0.0,0.0,0.0,8.2223,8.3838,8.4609,8.4646,8.6261,8.6978,8.6978,8.6978,8.6978,8.6978,8.6978,8.7252,8.7582,8.7178,8.7234,8.7766,8.8959,8.8886,8.8426,0.0,6.0018,0.0,0.0,6.9761,0.0,7.6384,8.0762,8.254,7.9207,7.9116,7.984,8.1144,8.3575,8.5427,8.6229,8.6283,8.6082,8.5616,8.4791,8.3797,8.2517,8.0901,7.936,7.7839,7.3876,7.0826,0.0,0.0,0.0,0.0,0.0,0.0,0.0,0.0,0.0,0.0,0.0,7.2036,7.375,7.6106,7.7142,7.7289,7.7289,7.7289,7.7289,7.7289,7.7289,7.7289,7.7289,7.7289,7.7179,7.6555,7.635,7.6203,7.538,7.527,7.5454,7.5763,7.5506,7.5417,7.6518,7.5359,7.4074,7.4551,7.367,7.2716,7.2532,7.2496,7.2018,7.0403,6.8531,0.0,0.0,0.0,0.0,0.0,0.0,0.0,0.0,0.0,0.0,0.0,0.0,0.0,0.0,0.0,0.0,0.0,0.0,0.0,0.0,0.0,7.4478,7.8552,0.0,8.1305,0.0,8.3728,8.4352,8.4389,8.584,8.6574,8.6738,8.6738,8.6848,8.6978,8.6978,8.7362,8.7876,8.7252,8.7399,8.8059,8.9033,8.8996,8.8647,0.0,0.0,0.0,0.0,0.0,0.0,0.0,8.1435,8.3611,8.3012,8.43,8.541,8.5773,8.6208,8.6605,8.6891,8.6908,8.6595,8.584,8.5032,8.4188,8.3344,8.1729,8.0461,7.9596,7.5542,7.2277,0.0,0.0,0.0,0.0,0.0,0.0,0.0,0.0,0.0,0.0,6.9752,7.2109,7.3839,7.5542,7.6628,7.7289,7.7289,7.7289,7.7289,7.7289,7.7289,7.7289,7.7289,7.7289,7.7289,7.7215,7.7179,7.7032,7.624,7.6481,7.6775,7.538,7.5491,7.5836,7.527,7.494,7.4625,7.3964,7.3722,7.3377,7.2642,7.2496,7.2018,7.0403,6.9926,6.9045,0.0,0.0,0.0,0.0,0.0,0.0,0.0,0.0,0.0,0.0,0.0,0.0,0.0,0.0,0.0,0.0,0.0,0.0,6.7774,0.0,7.4478,7.8552,7.9486,0.0,8.3271,8.3454,8.3491,8.3528,8.4425,8.5233,8.5894,8.5894,8.6334,8.6978,8.6978,8.7014,8.7088,8.7014,8.7051,8.7308,8.8849,8.9363,8.94,0.0,0.0,0.0,0.0,0.0,0.0,0.0,8.2758,8.381,8.4337,8.4991,8.5664,8.6174,8.6392,8.659,8.6803,8.6821,8.6543,8.5857,8.5049,8.4242,8.3454,8.184,8.0608,7.9816,7.7194,7.4147,0.0,0.0,0.0,0.0,0.0,0.0,0.0,0.0,6.6861,6.795,7.1244,7.3333,7.4551,7.6151,7.6995,7.7289,7.7289,7.7289,7.7289,7.7289,7.7289,7.7289,7.7289,7.7289,7.7289,7.7289,7.7289,7.7252,7.6922,7.7069,7.7179,7.6518,7.6592,7.6738,7.6408,7.5968,7.5542,7.5212,7.4771,7.4184,7.3377,7.2826,7.2312,7.1651,7.0734,6.9926,0.0,0.0,0.0,0.0,0.0,0.0,0.0,0.0,0.0,0.0,0.0,0.0,0.0,0.0,0.0,0.0,0.0,0.0,6.7627,0.0,7.301,7.7047,7.8898,8.0771,8.27,8.3161,8.3381,8.3418,8.4242,8.5049,8.58,8.58,8.6261,8.6978,8.6978,8.6978,8.6978,8.6978,8.6978,8.7124,8.828,8.8996,8.9436,7.0636,0.0,7.2854,0.0,7.7562,7.8757,8.3048,8.3629,8.4028,8.5173,8.5428,8.5683,8.6211,8.6447,8.6644,8.6786,8.6803,8.6526,8.5857,8.527,8.4499,8.3454,8.2317,0.0,8.0167,7.8552,7.5886,7.2204,7.0792,0.0,0.0,0.0,0.0,0.0,6.7172,6.8792,7.002,7.2856,7.4661,7.5711,7.6848,7.7289,7.7289,7.7289,7.7289,7.7289,7.7289,7.7289,7.7289,7.7289,7.7289,7.7289,7.7289,7.7289,7.7289,7.7289,7.7289,7.7289,7.7289,7.7142,7.6995,7.7252,7.6702,7.6093,7.6093,7.5652,7.4955,7.3891,7.323,7.2789,7.2532,7.1578,7.0917,7.1233,0.0,0.0,0.0,0.0,0.0,0.0,0.0,6.0933,6.0456,0.0,0.0,0.0,0.0,0.0,0.0,0.0,0.0,0.0,0.0,0.0,0.0,7.8568,8.0624,8.2186,8.2774,8.3067,8.3067,8.3875,8.4572,8.5123,8.5343,8.5894,8.6664,8.6664,8.6811,8.6978,8.6978,8.6978,8.7088,8.7912,8.8573,8.9069,7.3398,7.4647,7.6036,7.8302,7.951,8.0905,8.3157,8.3665,8.4355,8.5882,8.6447,8.6679,8.6679,8.6873,8.6978,8.7014,8.7014,8.6664,8.5874,8.5783,8.5086,0.0,0.0,8.261,8.1012,7.9396,7.7378,7.4867,0.0,0.0,6.7433,0.0,6.6578,6.752,6.9167,7.0812,7.2569,7.4169,7.5821,7.7289,7.7289,7.7289,7.7289,7.7289,7.7289,7.7289,7.7289,7.7289,7.7289,7.7289,7.7289,7.7289,7.7289,7.7289,7.7289,7.7289,7.7289,7.7289,7.7289,7.6702,7.6313,7.7105,7.6702,7.6093,7.6093,7.6093,7.5616,7.4052,7.367,7.345,7.2642,7.2496,7.2202,7.1417,0.0,0.0,0.0,0.0,0.0,0.0,6.3319,6.2132,6.0554,0.0,0.0,0.0,0.0,0.0,0.0,0.0,0.0,6.6476,6.9619,0.0,7.6056,7.8568,8.0624,8.2186,8.2186,8.2223,8.2223,8.3067,8.3418,8.3454,8.4278,8.5086,8.582,8.582,8.6261,8.6978,8.6978,8.6978,8.7088,8.7912,8.8206,8.8316,7.6094,7.705,7.8097,7.9491,8.0904,8.2101,8.2881,8.4008,8.4971,8.5606,8.6279,8.6768,8.6891,8.6943,8.6978,0.0,8.6978,8.6664,0.0,8.527,8.4499,8.3454,8.2884,8.2076,8.1012,8.0498,7.8736,7.5726,0.0,0.0,0.0,7.0222,7.0228,7.0187,7.235,7.3626,7.4243,7.5858,7.6848,7.7289,7.7289,7.7289,7.7289,7.7289,7.7289,7.7289,7.7289,7.7289,7.7289,7.7289,7.7289,7.7289,7.7289,7.7289,7.7289,7.7289,7.7289,7.7289,7.7289,7.7105,7.6995,7.7252,7.7105,7.6922,7.6922,7.6497,7.5946,7.5432,7.4441,7.3611,7.3377,7.2863,7.2422,7.2151,0.0,0.0,0.0,0.0,0.0,0.0,6.3319,6.2389,0.0,6.2254,0.0,0.0,0.0,0.0,0.0,0.0,0.0,0.0,7.1248,0.0,7.6885,7.9396,8.1158,8.2186,8.2186,8.2186,8.2186,8.248,8.2884,8.3418,8.3675,8.4242,8.5013,8.5563,8.593,8.6224,8.6811,8.6978,8.7014,8.7271,8.7729,8.8243,7.7899,7.8748,7.956,8.0189,8.1677,8.2803,8.2801,8.4238,8.5349,8.5473,8.6256,8.6856,8.6978,8.6978,0.0,8.6978,8.6978,8.6811,8.6261,8.549,8.4682,8.3895,8.3067,8.226,8.1489,0.0,0.0,7.7488,7.6185,7.449,7.2512,7.2732,7.2776,7.2738,7.4536,7.5344,7.5432,7.6738,7.7289,7.7289,7.7289,7.7289,7.7289,7.7289,7.7289,7.7289,7.7289,7.7289,7.7289,7.7289,7.7289,7.7289,7.7289,7.7289,7.7289,7.7289,7.7289,7.7289,7.7289,7.7289,7.7289,7.7289,7.7289,7.7289,7.7289,7.6922,7.646,7.6166,7.5065,7.4074,7.3758,7.3046,7.2496,7.2496,7.1394,7.0146,0.0,0.0,0.0,0.0,0.0,0.0,0.0,6.3576,0.0,0.0,0.0,0.0,0.0,0.0,0.0,6.9302,7.2459,0.0,7.7766,7.991,8.1415,8.2186,8.2186,8.2186,8.2186,8.2517,8.292,8.3381,8.3381,8.3858,8.4646,8.5123,8.5527,8.5874,8.6701,8.6978,8.6978,8.6978,8.7308,8.7766,7.8887,7.982,0.0,0.0,8.2024,0.0,8.2871,8.4397,8.5543,8.5379,8.625,8.6904,8.6831,8.6831,8.6831,8.6831,0.0,0.0,0.0,8.6187,8.538,8.4646,8.3785,8.2994,8.2223,8.1489,8.0645,7.9816,7.6607,7.505,7.505,7.4294,7.4368,7.5087,7.5836,7.6166,7.624,7.6995,7.7289,7.7289,7.7289,7.7289,7.7289,7.7289,7.7289,7.7289,7.7289,7.7289,7.7289,7.7289,7.7289,7.7289,7.7289,7.7289,7.7289,7.7289,7.7289,7.7289,7.7289,7.7289,7.7289,7.7289,7.7289,7.7289,7.7289,7.7289,7.7105,7.635,7.5527,7.472,7.3927,7.312,7.2569,7.2422,7.1674,7.0573,6.8972,0.0,0.0,0.0,0.0,0.0,0.0,6.4481,6.5118,0.0,0.0,0.0,0.0,0.0,6.8875,7.0293,7.3487,7.6313,7.8736,8.0314,8.1452,8.2186,8.2186,8.2186,8.2223,8.3014,8.3381,8.3308,8.3418,8.3821,8.4425,8.4535,8.5049,8.5783,8.6591,8.6941,8.6978,8.6978,8.6978,8.6978,0.0,0.0,8.0847,8.2223,8.3315,8.3859,8.3357,8.5168,8.5972,8.4121,8.5162,8.5857,8.5233,8.5159,8.5159,8.5159,8.6297,8.6978,8.6978,8.5673,8.4792,8.4609,8.3251,8.237,8.2186,8.2003,8.1195,7.9816,7.7729,7.6738,7.6738,7.6555,7.6555,7.6738,7.6922,7.7032,7.7032,7.7215,7.7289,7.7289,7.7289,7.7289,7.7289,7.7289,7.7289,7.7289,7.7289,7.7289,7.7289,7.7289,7.7289,7.7289,7.7289,7.7289,7.7289,7.7289,7.7289,7.7289,7.7289,7.7289,7.7289,7.7289,7.7289,7.7289,7.7289,7.7289,7.7252,7.7069,7.6371,7.5579,7.4771,7.3964,7.301,7.1784,7.0389,6.8898,6.7283,6.6219,0.0,0.0,6.5558,6.6072,6.6489,6.6329,6.6659,0.0,0.0,0.0,0.0,7.1762,7.3083,7.2863,7.6019,7.8589,8.0424,8.1415,8.2003,8.2186,8.2186,8.2186,8.2223,8.3014,8.3051,8.2553,8.3801,8.3728,8.2847,8.4095,8.4719,8.4976,8.5783,8.6444,8.6978,8.6978,8.6978,8.6978,8.0751,8.1369,8.1858,8.2555,8.3961,8.4637,8.3548,8.5436,8.628,8.4225,8.5013,8.549,8.4682,8.4609,8.4756,8.5123,8.56,8.5894,8.5894,8.4739,8.4042,8.4042,8.2847,8.2186,8.2186,8.1819,8.0865,7.9265,7.7949,7.7289,7.7289,7.7289,7.7289,7.7289,7.7289,7.7289,7.7289,7.7289,7.7289,7.7289,7.7289,7.7289,7.7289,7.7289,7.7289,7.7289,7.7289,7.7289,7.7289,7.7289,7.7289,7.7289,7.7289,7.7289,7.7289,7.7289,7.7289,7.7289,7.7289,7.7289,7.7289,7.7289,7.7289,7.7289,7.7289,7.7289,7.7289,7.7289,7.6665,7.5836,7.505,7.4258,7.3046,7.1064,6.9706,6.8187,6.6219,6.5582,0.0,6.5288,6.6659,6.776,6.8201,6.9192,6.9522,6.8935,0.0,0.0,7.066,7.3707,7.5102,7.4258,7.7781,8.0131,8.1012,8.1782,8.2186,8.2186,8.259,8.2737,8.2774,8.3581,8.3728,8.3324,8.3838,8.3581,8.281,8.3691,8.4042,8.4168,8.5343,8.6077,8.6518,8.6885,8.6978,8.6978,8.1792,8.2578,8.2921,8.2757,8.4332,8.5159,8.3785,8.5399,8.6187,8.4462,8.4939,8.5123,8.4315,8.4242,8.4499,8.5213,8.4646,8.4389,8.4756,8.3895,8.3381,8.3381,8.2627,8.215,8.2003,8.1122,7.9984,7.8589,7.7729,7.7289,7.7289,7.7289,7.7289,7.7289,7.7289,7.7289,7.7289,7.7289,7.7289,7.7289,7.7289,7.7289,7.7289,7.7289,7.7289,7.7289,7.7289,7.7289,7.7289,7.7289,7.7289,7.7289,7.7289,7.7289,7.7289,7.7289,7.7289,7.7289,7.7289,7.7399,7.7472,7.7326,7.7399,7.7472,7.7326,7.7399,7.7509,7.7509,7.6974,7.624,7.5417,7.4515,7.3083,7.066,6.9522,6.8077,6.5802,0.0,6.5742,6.5985,6.8041,6.9559,6.9765,7.2055,7.2532,7.0169,7.2165,7.3083,0.0,7.4882,7.6166,7.5491,7.905,8.1048,8.1195,8.1856,8.2186,8.2186,8.303,8.3344,8.3234,8.4168,8.4462,8.4205,8.3748,8.3454,8.3234,8.3344,8.3454,8.3711,8.5086,8.5747,8.604,8.6775,8.6978,8.6978,8.2801,8.2724,8.2961,8.4903,8.4976,8.4682,8.4462,8.5306,8.5159,8.2884,8.3287,8.3471,8.2663,8.2553,8.2627,8.2737,8.2627,8.3434,8.549,8.4242,8.3381,8.3381,8.2627,8.1893,8.1195,7.9727,7.8846,7.8589,7.7729,7.7289,7.7289,7.7289,7.7289,7.7289,7.7289,7.7289,7.7289,7.7289,7.7289,7.7289,7.7289,7.7289,7.7289,7.7289,7.7289,7.7289,7.7289,7.7289,7.7289,7.7289,7.7289,7.7289,7.7289,7.7289,7.7289,7.7289,7.7289,7.7289,7.7289,7.7839,7.8222,7.7472,7.7839,7.8222,7.7472,7.7876,7.8405,7.8405,7.8295,7.7965,7.7105,7.5711,7.3913,7.149,6.9876,6.8311,6.6549,0.0,6.7847,6.9192,7.0881,7.2496,7.3839,7.3193,7.3303,7.4882,7.356,7.3487,7.5249,7.7157,7.8148,7.8038,7.9947,8.1342,8.2003,8.215,8.2186,8.2186,8.303,8.3014,8.2443,8.3911,8.3875,8.2627,8.3875,8.3654,8.2443,8.3124,8.3785,8.4462,8.4682,8.5637,8.6848,8.6941,8.6978,8.6978,8.25,8.3141,8.3728,8.4389,8.4903,8.5086,8.4682,8.4903,8.4609,8.3067,8.3161,8.3087,8.2296,8.2186,8.2553,8.3434,8.27,8.303,8.5013,8.3654,8.2737,8.2737,8.1966,8.0975,7.9727,7.8993,7.8369,7.7876,7.7509,7.7289,7.7289,7.7289,7.7289,7.7289,7.7289,7.7289,7.7289,7.7289,7.7289,7.7289,7.7289,7.7289,7.7289,7.7289,7.7289,7.7289,7.7289,7.7289,7.7289,7.7289,7.7289,7.7289,7.7289,7.7289,7.7289,7.7289,7.7289,7.7289,7.7289,7.7582,7.7913,7.7986,7.7949,7.8023,7.8516,7.8626,7.8699,7.914,7.9265,7.8846,7.7546,7.6335,7.4771,7.2334,7.0243,0.0,0.0,6.8128,6.8935,7.055,7.2936,7.4918,7.6078,7.635,7.6717,7.7414,7.6423,7.6276,7.7378,7.8589,7.9433,7.9874,8.1012,8.1819,8.2186,8.2186,8.2186,8.2186,8.303,8.3434,8.3508,8.3801,8.3801,8.3471,8.3361,8.2884,8.2223,8.259,8.3251,8.4005,8.4425,8.5306,8.6407,8.6848,8.6978,8.6978,8.2333,8.3324,8.3985,8.3711,8.4535,8.5013,8.4425,8.4315,8.4022,8.3234,8.3124,8.2884,8.226,8.237,8.2884,8.3948,8.3067,8.292,8.3985,8.2884,8.2186,8.2186,8.1232,8.0131,7.8919,7.8516,7.7949,7.7289,7.7289,7.7289,7.7289,7.7289,7.7289,7.7289,7.7289,7.7289,7.7289,7.7289,7.7289,7.7289,7.7289,7.7289,7.7289,7.7289,7.7289,7.7289,7.7289,7.7289,7.7289,7.7289,7.7289,7.7289,7.7289,7.7289,7.7289,7.7289,7.7289,7.7289,7.7289,7.7582,7.7986,7.8479,7.8369,7.8463,7.9559,7.9486,7.9323,7.9963,8.0073,7.969,7.839,7.7179,7.5652,7.3413,0.0,0.0,0.0,6.9633,7.0389,7.2188,7.4757,7.6775,7.7766,7.9029,7.9559,7.8919,7.8883,7.8883,7.8883,7.9633,8.0461,8.1269,8.1893,8.2186,8.2186,8.237,8.248,8.248,8.3287,8.3895,8.4315,8.3675,8.3638,8.3985,8.2737,8.2186,8.2186,8.2186,8.2774,8.3748,8.4352,8.5196,8.6151,8.6757,8.6978,8.6978,8.3161,8.281,8.281,8.4278,8.3968,8.3564,8.3491,8.3491,8.3197,8.237,8.2296,8.226,8.2186,8.2884,8.3051,8.2443,8.2957,8.3067,8.2406,8.226,8.2186,8.2186,8.0734,7.9816,7.9706,7.8185,7.7362,7.7289,7.7289,7.7289,7.7289,7.7289,7.7289,7.7289,7.7289,7.7289,7.7289,7.7289,7.7289,7.7289,7.7289,7.7289,7.7289,7.7289,7.7289,7.7289,7.7289,7.7289,7.7289,7.7289,7.7289,7.7289,7.7289,7.7289,7.7289,7.7289,7.7289,7.7289,7.7289,7.8442,7.9449,7.8772,7.969,8.0571,7.9926,8.0314,8.0828,8.0901,8.0901,8.0865,8.0755,7.8794,7.6665,7.4977,0.0,0.0,7.1233,7.1747,7.312,7.5469,7.6592,7.7839,7.9449,7.9743,7.9779,7.9706,7.9706,7.9706,7.9706,8.0461,8.1269,8.2076,8.215,8.2186,8.2186,8.2957,8.3308,8.3308,8.4132,8.4168,8.3491,8.3418,8.303,8.237,8.226,8.2186,8.2186,8.2186,8.3104,8.4535,8.4572,8.5563,8.6904,8.6978,8.6978,8.6978,8.2517,8.281,8.3141,8.3748,8.3601,8.3381,8.3381,8.2994,8.2553,8.2223,8.2186,8.2186,8.2186,8.248,8.2737,8.292,8.2774,8.2737,8.292,8.248,8.1746,8.0771,8.0147,7.9302,7.8259,7.7619,7.7289,7.7289,7.7289,7.7289,7.7289,7.7289,7.7289,7.7289,7.7289,7.7289,7.7289,7.7289,7.7289,7.7289,7.7289,7.7289,7.7289,7.7289,7.7289,7.7289,7.7289,7.7289,7.7289,7.7289,7.7289,7.7289,7.7289,7.7289,7.7289,7.7289,7.8023,7.8736,7.8259,7.8589,7.9213,7.991,8.0167,8.044,8.1138,8.1122,8.1158,8.1636,8.1746,8.1599,8.1085,7.9433,7.7928,7.7304,0.0,7.367,7.4867,7.483,7.5469,7.7414,7.8809,7.9821,8.0461,8.0975,8.1285,8.1285,8.1285,8.1285,8.1285,8.1562,8.1893,8.2186,8.2186,8.2186,8.2186,8.2517,8.292,8.3381,8.3711,8.3968,8.4132,8.3638,8.3234,8.292,8.2406,8.2186,8.2186,8.2186,8.3141,8.4609,8.4609,8.56,8.6978,8.6978,8.6978,8.6978,8.1709,8.248,8.303,8.303,8.303,8.303,8.303,8.2553,8.2186,8.2186,8.2186,8.2186,8.2186,8.2443,8.27,8.2994,8.2737,8.27,8.2994,8.2517,8.1599,8.0257,7.9926,7.914,7.7729,7.7436,7.7289,7.7289,7.7289,7.7289,7.7289,7.7289,7.7289,7.7289,7.7289,7.7289,7.7289,7.7289,7.7289,7.7289,7.7289,7.7289,7.7289,7.7289,7.7289,7.7289,7.7289,7.7289,7.7289,7.7289,7.7289,7.7289,7.7289,7.7509,7.7766,7.8023,7.8883,7.9743,7.9433,7.936,7.9617,8.0718,8.0755,8.0844,8.1929,8.1562,8.1232,8.2039,8.2003,8.1746,8.1415,8.0277,7.9286,7.9029,7.6864,7.5836,7.7472,7.7231,7.7488,7.9176,8.0351,8.1122,8.1342,8.1893,8.2186,8.2186,8.2186,8.2186,8.2186,8.2186,8.2186,8.2186,8.2186,8.2186,8.2186,8.2443,8.2994,8.3785,8.3785,8.4058,8.4572,8.3748,8.3271,8.2994,8.2443,8.2186,8.2186,8.2186,8.2994,8.4242,8.4499,8.5416,8.6664,8.6904,8.6978,8.6978,8.1012,8.1636,8.2186,8.2186,8.2186,8.2186,8.2186,8.2186,8.2186,8.2186,8.2186,8.2186,8.2186,8.292,8.3067,8.226,8.292,8.3067,8.226,8.2186,8.1819,8.1048,8.0241,7.9412,7.8589,7.7729,7.7289,7.7289,7.7289,7.7289,7.7289,7.7289,7.7289,7.7289,7.7289,7.7289,7.7289,7.7289,7.7289,7.7289,7.7289,7.7289,7.7289,7.7289,7.7289,7.7289,7.7289,7.7289,7.7289,7.7289,7.7289,7.7289,7.7326,7.7913,7.8772,7.9559,7.9816,8.0,8.0791,8.1012,8.1012,8.1012,8.1599,8.2186,8.2186,8.1562,8.1232,8.2039,8.1562,8.1269,8.2039,8.1525,8.0755,7.9926,7.914,7.8589,7.8626,7.8626,7.9213,8.0828,8.1012,8.1342,8.2113,8.2186,8.2186,8.2186,8.2186,8.2186,8.2186,8.2186,8.2186,8.2186,8.2186,8.2186,8.2186,8.2994,8.3785,8.4609,8.4609,8.4609,8.4572,8.3748,8.2994,8.2186,8.2186,8.2186,8.2186,8.2186,8.2663,8.3491,8.4278,8.5086,8.5894,8.6701,8.6978,8.6978,8.1636,8.2039,8.2186,8.2186,8.2186,8.2186,8.2186,8.2186,8.2186,8.2186,8.2186,8.2186,8.2186,8.2406,8.2443,8.2223,8.2406,8.2443,8.2223,8.2186,8.1819,8.1048,8.0241,7.914,7.7729,7.7436,7.7289,7.7289,7.7289,7.7289,7.7289,7.7289,7.7289,7.7289,7.7289,7.7289,7.7289,7.7289,7.7289,7.7289,7.7289,7.7289,7.7289,7.7289,7.7289,7.7289,7.7289,7.7289,7.7289,7.7289,7.7289,7.7399,7.8038,7.8772,7.9486,7.9743,8.0587,8.1415,8.1085,8.1415,8.1819,8.1819,8.2003,8.2186,8.2186,8.2003,8.1893,8.215,8.2003,8.1929,8.215,8.1525,8.0938,8.0681,7.9947,7.9633,8.0204,8.0277,8.0681,8.1709,8.1819,8.1929,8.2186,8.2186,8.2186,8.2186,8.2186,8.2186,8.2186,8.2186,8.2186,8.2186,8.2737,8.2774,8.2186,8.2443,8.3251,8.4609,8.4609,8.4609,8.4609,8.4352,8.3508,8.2186,8.2186,8.2186,8.2186,8.2186,8.2663,8.3491,8.4278,8.5086,8.5894,8.6701,8.6978,8.6978,8.1064,8.1746,8.2186,8.2186,8.2186,8.2186,8.2186,8.2186,8.2186,8.2186,8.2186,8.2186,8.2186,8.2186,8.2186,8.2186,8.2186,8.2186,8.2186,8.2186,8.1819,8.1048,8.0534,7.9507,7.7839,7.7803,7.7656,7.7289,7.7289,7.7289,7.7289,7.7289,7.7289,7.7289,7.7289,7.7289,7.7289,7.7289,7.7289,7.7289,7.7289,7.7289,7.7289,7.7289,7.7289,7.7289,7.7289,7.7289,7.7289,7.7289,7.7289,7.7546,7.9066,7.9653,7.9926,8.055,8.1432,8.2076,8.1599,8.1819,8.2186,8.2186,8.2186,8.2186,8.2186,8.1929,8.1819,8.2113,8.1929,8.1819,8.215,8.1782,8.1489,8.1489,8.1048,8.0901,8.1415,8.1489,8.1672,8.215,8.2186,8.2186,8.2186,8.2186,8.2186,8.2186,8.2186,8.2186,8.2186,8.2186,8.2333,8.2663,8.3124,8.3161,8.27,8.2663,8.3177,8.4132,8.4462,8.4425,8.4132,8.4462,8.3911,8.2663,8.2333,8.237,8.2663,8.2333,8.248,8.303,8.3801,8.4425,8.4976,8.6114,8.6518,8.6591,7.989,8.1175,8.2186,8.2113,8.215,8.2186,8.2186,8.2186,8.2186,8.2186,8.2186,8.2186,8.2186,8.2186,8.2186,8.2186,8.2186,8.2186,8.2186,8.2186,8.1856,8.1158,8.1122,8.0388,7.8846,7.8662,7.8185,7.7289,7.7289,7.7289,7.7289,7.7289,7.7289,7.7289,7.7289,7.7289,7.7289,7.7289,7.7289,7.7289,7.7289,7.7289,7.7289,7.7289,7.7289,7.7289,7.7289,7.7289,7.7326,7.7399,7.7362,7.7729,8.0225,8.0461,8.011,8.1725,8.2186,8.2186,8.2186,8.2186,8.2186,8.2186,8.2186,8.2186,8.2186,8.1636,8.1342,8.2039,8.1636,8.1342,8.2039,8.2186,8.2186,8.2186,8.2186,8.2186,8.2186,8.2186,8.2186,8.2186,8.2186,8.2186,8.2186,8.2186,8.2186,8.2186,8.2186,8.2223,8.2296,8.2223,8.2553,8.3381,8.3454,8.3454,8.3271,8.3454,8.3491,8.3528,8.4242,8.4242,8.3528,8.4278,8.4132,8.3234,8.2517,8.2627,8.3234,8.2517,8.2186,8.226,8.3087,8.3381,8.3601,8.5123,8.569,8.582,8.0608,8.1525,8.2003,8.1379,8.1782,8.2186,8.2186,8.2186,8.2186,8.2186,8.2186,8.2186,8.2186,8.2186,8.2186,8.2186,8.2186,8.2186,8.2186,8.2186,8.2113,8.1929,8.1929,8.1489,8.0498,7.925,7.8185,7.7289,7.7289,7.7289,7.7289,7.7289,7.7289,7.7289,7.7289,7.7289,7.7289,7.7289,7.7289,7.7289,7.7289,7.7289,7.7289,7.7289,7.7289,7.7289,7.7289,7.7289,7.7399,7.8112,7.7839,7.7729,8.0225,8.0461,8.011,8.1725,8.2186,8.2186,8.2186,8.2186,8.2186,8.2186,8.2186,8.2186,8.2186,8.2076,8.2003,8.215,8.2039,8.2003,8.215,8.2186,8.2186,8.2186,8.2186,8.2186,8.2186,8.2186,8.2186,8.2186,8.2186,8.2186,8.2186,8.2186,8.2186,8.2186,8.2186,8.248,8.3087,8.2553,8.2553,8.3381,8.4022,8.3728,8.248,8.3728,8.4352,8.4352,8.4535,8.4499,8.4352,8.4535,8.3838,8.2443,8.226,8.2296,8.2443,8.226,8.2186,8.226,8.3087,8.3381,8.3528,8.4499,8.4866,8.4976,8.0277,8.1085,8.1636,8.1562,8.1929,8.2186,8.2186,8.2186,8.2186,8.2186,8.2186,8.2186,8.2186,8.2186,8.2186,8.2186,8.2186,8.2186,8.2186,8.2186,8.2186,8.2186,8.2186,8.1819,8.1012,7.98,7.8772,7.7913,7.7509,7.7289,7.7289,7.7289,7.7289,7.7289,7.7289,7.7289,7.7289,7.7289,7.7289,7.7289,7.7289,7.7289,7.7289,7.7289,7.7289,7.7289,7.7289,7.7582,7.8002,7.8442,7.8552,7.8809,8.0461,8.0718,8.0608,8.1819,8.2186,8.2186,8.2186,8.2186,8.2186,8.2186,8.2186,8.2186,8.2186,8.2186,8.2186,8.2186,8.2186,8.2186,8.2186,8.2186,8.2186,8.2186,8.2186,8.2186,8.2186,8.2186,8.2186,8.2186,8.2186,8.2186,8.2186,8.2186,8.237,8.2737,8.2774,8.3141,8.3948,8.3214,8.3324,8.4499,8.4205,8.3801,8.3361,8.3801,8.4022,8.4022,8.4022,8.3838,8.3471,8.3875,8.3581,8.2737,8.237,8.2406,8.2737,8.237,8.2186,8.2223,8.2663,8.2847,8.292,8.3728,8.4499,8.5233,7.9449,8.0241,8.0975,8.1489,8.1709,8.1819,8.1966,8.2003,8.2039,8.2186,8.2186,8.2186,8.2186,8.2186,8.2186,8.2186,8.2186,8.2186,8.2186,8.2186,8.2186,8.2186,8.2186,8.1893,8.1232,8.0293,7.9412,7.8589,7.7729,7.7289,7.7289,7.7289,7.7289,7.7289,7.7289,7.7289,7.7289,7.7289,7.7289,7.7289,7.7289,7.7289,7.7289,7.7289,7.7289,7.7289,7.7289,7.7766,7.8405,7.8699,7.914,7.9779,8.0865,8.1122,8.1158,8.1966,8.2186,8.2186,8.2186,8.2186,8.2186,8.2186,8.2186,8.2186,8.2186,8.2186,8.2186,8.2186,8.2186,8.2186,8.2186,8.2296,8.237,8.2223,8.2333,8.237,8.2223,8.2186,8.2186,8.2186,8.2186,8.2186,8.2186,8.2186,8.248,8.3124,8.3308,8.3675,8.4352,8.3748,8.4058,8.5527,8.4168,8.3711,8.4389,8.3711,8.3344,8.3197,8.3197,8.292,8.2443,8.3104,8.3308,8.3161,8.248,8.259,8.3124,8.248,8.2186,8.2186,8.2186,8.2186,8.2296,8.3087,8.4352,8.56,7.8736,7.9396,7.9779,7.9176,7.9653,8.0367,8.1048,8.1158,8.1415,8.2113,8.2186,8.2186,8.2186,8.2186,8.2186,8.2186,8.2186,8.2186,8.2186,8.2186,8.2186,8.2186,8.2186,8.215,8.2039,8.0587,7.9412,7.8589,7.7729,7.7289,7.7289,7.7289,7.7289,7.7289,7.7289,7.7289,7.7289,7.7289,7.7289,7.7289,7.7289,7.7289,7.7289,7.7289,7.7289,7.7289,7.7289,7.7399,7.7693,7.914,7.9265,7.914,8.1342,8.1562,8.1158,8.1966,8.2186,8.2186,8.2186,8.2186,8.2186,8.2186,8.2186,8.2186,8.2186,8.2186,8.2186,8.2186,8.2186,8.2186,8.2186,8.2774,8.3014,8.2296,8.2774,8.2994,8.2296,8.2186,8.2186,8.2186,8.2186,8.2186,8.2186,8.2186,8.226,8.2333,8.3014,8.3454,8.3564,8.3454,8.3821,8.4719,8.3858,8.3454,8.3564,8.3454,8.3067,8.237,8.237,8.2663,8.3234,8.3344,8.303,8.237,8.226,8.226,8.2333,8.2223,8.2186,8.2186,8.2186,8.2186,8.2296,8.3087,8.3985,8.4756,7.8516,7.9265,7.9816,7.991,8.0241,8.0755,8.1562,8.1305,8.1305,8.2076,8.2186,8.2186,8.2186,8.2186,8.2186,8.2186,8.2186,8.2186,8.2186,8.2186,8.2186,8.2186,8.2186,8.2003,8.1525,8.0404,7.9633,7.9265,7.7949,7.7289,7.7289,7.7289,7.7289,7.7289,7.7289,7.7289,7.7289,7.7289,7.7289,7.7289,7.7289,7.7289,7.7289,7.7289,7.7289,7.7289,7.7289,7.7913,7.8736,7.9029,7.98,8.0718,8.1342,8.1599,8.1746,8.2113,8.2186,8.2186,8.2186,8.2186,8.2186,8.2186,8.2186,8.2186,8.2186,8.2186,8.2186,8.2186,8.2186,8.2186,8.2186,8.248,8.2627,8.226,8.248,8.2627,8.226,8.2186,8.2186,8.2186,8.2186,8.2186,8.2186,8.2186,8.237,8.2847,8.3197,8.3601,8.4042,8.3638,8.3748,8.4572,8.3398,8.2957,8.3381,8.2957,8.2553,8.2186,8.2186,8.237,8.2737,8.2737,8.2553,8.2186,8.2186,8.2186,8.2186,8.2186,8.2186,8.2186,8.2186,8.2186,8.2223,8.259,8.3251,8.3968]}]]